<?xml version="1.0" encoding="UTF-8" standalone="no" ?>
<gpx xmlns="http://www.topografix.com/GPX/1/1" xmlns:xsi="http://www.w3.org/2001/XMLSchema-instance" xsi:schemaLocation="http://www.topografix.com/GPX/1/1 http://www.topografix.com/GPX/1/1/gpx.xsd" version="1.1" creator="VisuGPX - https://www.visugpx.com">
  <metadata>
    <name>l\'Alpet</name>
    <desc><![CDATA[Tete de l\'Alpet]]></desc>
  </metadata>
  <trk>
    <name><![CDATA[2015-03-24 13:45:54]]></name>
    <trkseg>
      <trkpt lat="44.59353" lon="6.8479">
        <ele>1917.49</ele>
        <time>2015-03-24T07:35:32Z</time>
      </trkpt>
      <trkpt lat="44.59353" lon="6.8479">
        <ele>1917.49</ele>
        <time>2015-03-24T07:35:33Z</time>
      </trkpt>
      <trkpt lat="44.59353" lon="6.8479">
        <ele>1913.64</ele>
        <time>2015-03-24T07:35:36Z</time>
      </trkpt>
      <trkpt lat="44.59353" lon="6.8479">
        <ele>1913.64</ele>
        <time>2015-03-24T07:35:37Z</time>
      </trkpt>
      <trkpt lat="44.59358" lon="6.84791">
        <ele>1914.12</ele>
        <time>2015-03-24T07:36:00Z</time>
      </trkpt>
      <trkpt lat="44.59363" lon="6.84791">
        <ele>1914.12</ele>
        <time>2015-03-24T07:36:04Z</time>
      </trkpt>
      <trkpt lat="44.59365" lon="6.84792">
        <ele>1914.12</ele>
        <time>2015-03-24T07:36:05Z</time>
      </trkpt>
      <trkpt lat="44.59367" lon="6.84793">
        <ele>1914.12</ele>
        <time>2015-03-24T07:36:06Z</time>
      </trkpt>
      <trkpt lat="44.59367" lon="6.84796">
        <ele>1914.12</ele>
        <time>2015-03-24T07:36:20Z</time>
      </trkpt>
      <trkpt lat="44.59364" lon="6.84797">
        <ele>1914.12</ele>
        <time>2015-03-24T07:36:45Z</time>
      </trkpt>
      <trkpt lat="44.59352" lon="6.84795">
        <ele>1914.12</ele>
        <time>2015-03-24T07:36:58Z</time>
      </trkpt>
      <trkpt lat="44.5935" lon="6.84797">
        <ele>1912.68</ele>
        <time>2015-03-24T07:37:08Z</time>
      </trkpt>
      <trkpt lat="44.5935" lon="6.84794">
        <ele>1913.16</ele>
        <time>2015-03-24T07:37:22Z</time>
      </trkpt>
      <trkpt lat="44.59352" lon="6.84797">
        <ele>1913.16</ele>
        <time>2015-03-24T07:37:36Z</time>
      </trkpt>
      <trkpt lat="44.59351" lon="6.84798">
        <ele>1913.16</ele>
        <time>2015-03-24T07:37:54Z</time>
      </trkpt>
      <trkpt lat="44.59355" lon="6.84799">
        <ele>1912.68</ele>
        <time>2015-03-24T07:38:14Z</time>
      </trkpt>
      <trkpt lat="44.59352" lon="6.848">
        <ele>1912.68</ele>
        <time>2015-03-24T07:38:42Z</time>
      </trkpt>
      <trkpt lat="44.59352" lon="6.84796">
        <ele>1912.68</ele>
        <time>2015-03-24T07:39:11Z</time>
      </trkpt>
      <trkpt lat="44.59355" lon="6.84798">
        <ele>1912.68</ele>
        <time>2015-03-24T07:39:41Z</time>
      </trkpt>
      <trkpt lat="44.59352" lon="6.84799">
        <ele>1912.68</ele>
        <time>2015-03-24T07:40:06Z</time>
      </trkpt>
      <trkpt lat="44.5935" lon="6.848">
        <ele>1913.16</ele>
        <time>2015-03-24T07:40:26Z</time>
      </trkpt>
      <trkpt lat="44.59349" lon="6.848">
        <ele>1913.16</ele>
        <time>2015-03-24T07:40:52Z</time>
      </trkpt>
      <trkpt lat="44.59351" lon="6.848">
        <ele>1913.16</ele>
        <time>2015-03-24T07:41:23Z</time>
      </trkpt>
      <trkpt lat="44.59348" lon="6.848">
        <ele>1915.56</ele>
        <time>2015-03-24T07:41:51Z</time>
      </trkpt>
      <trkpt lat="44.59352" lon="6.84801">
        <ele>1914.12</ele>
        <time>2015-03-24T07:42:06Z</time>
      </trkpt>
      <trkpt lat="44.5935" lon="6.84798">
        <ele>1914.12</ele>
        <time>2015-03-24T07:42:25Z</time>
      </trkpt>
      <trkpt lat="44.59351" lon="6.84795">
        <ele>1915.08</ele>
        <time>2015-03-24T07:42:45Z</time>
      </trkpt>
      <trkpt lat="44.59351" lon="6.84791">
        <ele>1915.08</ele>
        <time>2015-03-24T07:43:00Z</time>
      </trkpt>
      <trkpt lat="44.59354" lon="6.84794">
        <ele>1915.56</ele>
        <time>2015-03-24T07:43:22Z</time>
      </trkpt>
      <trkpt lat="44.59356" lon="6.84798">
        <ele>1915.56</ele>
        <time>2015-03-24T07:43:42Z</time>
      </trkpt>
      <trkpt lat="44.59353" lon="6.84794">
        <ele>1916.53</ele>
        <time>2015-03-24T07:43:57Z</time>
      </trkpt>
      <trkpt lat="44.59355" lon="6.84792">
        <ele>1915.56</ele>
        <time>2015-03-24T07:44:14Z</time>
      </trkpt>
      <trkpt lat="44.59356" lon="6.84791">
        <ele>1915.08</ele>
        <time>2015-03-24T07:44:32Z</time>
      </trkpt>
      <trkpt lat="44.59353" lon="6.84792">
        <ele>1915.08</ele>
        <time>2015-03-24T07:44:46Z</time>
      </trkpt>
      <trkpt lat="44.59355" lon="6.84784">
        <ele>1915.08</ele>
        <time>2015-03-24T07:45:02Z</time>
      </trkpt>
      <trkpt lat="44.5935" lon="6.84783">
        <ele>1916.53</ele>
        <time>2015-03-24T07:45:16Z</time>
      </trkpt>
      <trkpt lat="44.59352" lon="6.84784">
        <ele>1916.53</ele>
        <time>2015-03-24T07:45:19Z</time>
      </trkpt>
      <trkpt lat="44.59351" lon="6.8479">
        <ele>1916.53</ele>
        <time>2015-03-24T07:45:34Z</time>
      </trkpt>
      <trkpt lat="44.59352" lon="6.84795">
        <ele>1916.53</ele>
        <time>2015-03-24T07:46:01Z</time>
      </trkpt>
      <trkpt lat="44.59351" lon="6.84793">
        <ele>1916.53</ele>
        <time>2015-03-24T07:46:25Z</time>
      </trkpt>
      <trkpt lat="44.59349" lon="6.84791">
        <ele>1917.01</ele>
        <time>2015-03-24T07:46:47Z</time>
      </trkpt>
      <trkpt lat="44.59348" lon="6.8479">
        <ele>1917.01</ele>
        <time>2015-03-24T07:47:08Z</time>
      </trkpt>
      <trkpt lat="44.59352" lon="6.84796">
        <ele>1917.01</ele>
        <time>2015-03-24T07:47:21Z</time>
      </trkpt>
      <trkpt lat="44.59353" lon="6.84795">
        <ele>1917.01</ele>
        <time>2015-03-24T07:47:22Z</time>
      </trkpt>
      <trkpt lat="44.5935" lon="6.84796">
        <ele>1915.56</ele>
        <time>2015-03-24T07:47:34Z</time>
      </trkpt>
      <trkpt lat="44.59349" lon="6.84797">
        <ele>1915.08</ele>
        <time>2015-03-24T07:47:35Z</time>
      </trkpt>
      <trkpt lat="44.59349" lon="6.84818">
        <ele>1913.16</ele>
        <time>2015-03-24T07:47:53Z</time>
      </trkpt>
      <trkpt lat="44.59353" lon="6.84829">
        <ele>1912.2</ele>
        <time>2015-03-24T07:48:01Z</time>
      </trkpt>
      <trkpt lat="44.59363" lon="6.84853">
        <ele>1909.8</ele>
        <time>2015-03-24T07:48:17Z</time>
      </trkpt>
      <trkpt lat="44.59372" lon="6.84877">
        <ele>1909.32</ele>
        <time>2015-03-24T07:48:31Z</time>
      </trkpt>
      <trkpt lat="44.59372" lon="6.8488">
        <ele>1908.83</ele>
        <time>2015-03-24T07:48:33Z</time>
      </trkpt>
      <trkpt lat="44.59375" lon="6.84892">
        <ele>1908.35</ele>
        <time>2015-03-24T07:48:40Z</time>
      </trkpt>
      <trkpt lat="44.59379" lon="6.84901">
        <ele>1907.87</ele>
        <time>2015-03-24T07:48:46Z</time>
      </trkpt>
      <trkpt lat="44.59382" lon="6.8491">
        <ele>1907.87</ele>
        <time>2015-03-24T07:48:52Z</time>
      </trkpt>
      <trkpt lat="44.59385" lon="6.84921">
        <ele>1907.87</ele>
        <time>2015-03-24T07:48:58Z</time>
      </trkpt>
      <trkpt lat="44.59389" lon="6.84941">
        <ele>1907.39</ele>
        <time>2015-03-24T07:49:10Z</time>
      </trkpt>
      <trkpt lat="44.59398" lon="6.84969">
        <ele>1905.95</ele>
        <time>2015-03-24T07:49:26Z</time>
      </trkpt>
      <trkpt lat="44.59399" lon="6.84976">
        <ele>1905.95</ele>
        <time>2015-03-24T07:49:31Z</time>
      </trkpt>
      <trkpt lat="44.59404" lon="6.85">
        <ele>1905.95</ele>
        <time>2015-03-24T07:49:45Z</time>
      </trkpt>
      <trkpt lat="44.59409" lon="6.85028">
        <ele>1906.43</ele>
        <time>2015-03-24T07:50:00Z</time>
      </trkpt>
      <trkpt lat="44.59409" lon="6.85035">
        <ele>1906.43</ele>
        <time>2015-03-24T07:50:04Z</time>
      </trkpt>
      <trkpt lat="44.59411" lon="6.85046">
        <ele>1906.43</ele>
        <time>2015-03-24T07:50:11Z</time>
      </trkpt>
      <trkpt lat="44.59413" lon="6.85055">
        <ele>1906.43</ele>
        <time>2015-03-24T07:50:17Z</time>
      </trkpt>
      <trkpt lat="44.59415" lon="6.85072">
        <ele>1907.87</ele>
        <time>2015-03-24T07:50:28Z</time>
      </trkpt>
      <trkpt lat="44.59419" lon="6.85095">
        <ele>1907.87</ele>
        <time>2015-03-24T07:50:42Z</time>
      </trkpt>
      <trkpt lat="44.59424" lon="6.85114">
        <ele>1908.35</ele>
        <time>2015-03-24T07:50:56Z</time>
      </trkpt>
      <trkpt lat="44.59432" lon="6.85135">
        <ele>1908.83</ele>
        <time>2015-03-24T07:51:12Z</time>
      </trkpt>
      <trkpt lat="44.59439" lon="6.85154">
        <ele>1909.8</ele>
        <time>2015-03-24T07:51:26Z</time>
      </trkpt>
      <trkpt lat="44.59438" lon="6.85159">
        <ele>1910.76</ele>
        <time>2015-03-24T07:51:30Z</time>
      </trkpt>
      <trkpt lat="44.59434" lon="6.85184">
        <ele>1910.76</ele>
        <time>2015-03-24T07:51:46Z</time>
      </trkpt>
      <trkpt lat="44.59434" lon="6.8519">
        <ele>1910.76</ele>
        <time>2015-03-24T07:52:01Z</time>
      </trkpt>
      <trkpt lat="44.59432" lon="6.85191">
        <ele>1910.76</ele>
        <time>2015-03-24T07:52:19Z</time>
      </trkpt>
      <trkpt lat="44.59429" lon="6.85187">
        <ele>1910.76</ele>
        <time>2015-03-24T07:52:42Z</time>
      </trkpt>
      <trkpt lat="44.59432" lon="6.85189">
        <ele>1910.76</ele>
        <time>2015-03-24T07:53:01Z</time>
      </trkpt>
      <trkpt lat="44.59433" lon="6.85191">
        <ele>1909.32</ele>
        <time>2015-03-24T07:53:10Z</time>
      </trkpt>
      <trkpt lat="44.59433" lon="6.85189">
        <ele>1910.76</ele>
        <time>2015-03-24T07:53:17Z</time>
      </trkpt>
      <trkpt lat="44.59431" lon="6.85189">
        <ele>1909.8</ele>
        <time>2015-03-24T07:53:45Z</time>
      </trkpt>
      <trkpt lat="44.5943" lon="6.85195">
        <ele>1910.76</ele>
        <time>2015-03-24T07:54:06Z</time>
      </trkpt>
      <trkpt lat="44.5943" lon="6.85199">
        <ele>1911.24</ele>
        <time>2015-03-24T07:54:21Z</time>
      </trkpt>
      <trkpt lat="44.59431" lon="6.85202">
        <ele>1911.24</ele>
        <time>2015-03-24T07:54:38Z</time>
      </trkpt>
      <trkpt lat="44.59429" lon="6.85204">
        <ele>1911.24</ele>
        <time>2015-03-24T07:54:57Z</time>
      </trkpt>
      <trkpt lat="44.59429" lon="6.8521">
        <ele>1911.24</ele>
        <time>2015-03-24T07:55:20Z</time>
      </trkpt>
      <trkpt lat="44.59422" lon="6.85218">
        <ele>1911.72</ele>
        <time>2015-03-24T07:55:33Z</time>
      </trkpt>
      <trkpt lat="44.59419" lon="6.85228">
        <ele>1911.72</ele>
        <time>2015-03-24T07:55:45Z</time>
      </trkpt>
      <trkpt lat="44.59417" lon="6.85235">
        <ele>1912.2</ele>
        <time>2015-03-24T07:55:49Z</time>
      </trkpt>
      <trkpt lat="44.59411" lon="6.85254">
        <ele>1913.16</ele>
        <time>2015-03-24T07:56:03Z</time>
      </trkpt>
      <trkpt lat="44.59411" lon="6.85268">
        <ele>1915.08</ele>
        <time>2015-03-24T07:56:16Z</time>
      </trkpt>
      <trkpt lat="44.59414" lon="6.85287">
        <ele>1917.01</ele>
        <time>2015-03-24T07:56:31Z</time>
      </trkpt>
      <trkpt lat="44.59415" lon="6.85299">
        <ele>1917.97</ele>
        <time>2015-03-24T07:56:44Z</time>
      </trkpt>
      <trkpt lat="44.59414" lon="6.85316">
        <ele>1918.93</ele>
        <time>2015-03-24T07:56:57Z</time>
      </trkpt>
      <trkpt lat="44.59412" lon="6.85332">
        <ele>1919.89</ele>
        <time>2015-03-24T07:57:10Z</time>
      </trkpt>
      <trkpt lat="44.59411" lon="6.85347">
        <ele>1921.33</ele>
        <time>2015-03-24T07:57:24Z</time>
      </trkpt>
      <trkpt lat="44.59408" lon="6.85362">
        <ele>1922.29</ele>
        <time>2015-03-24T07:57:40Z</time>
      </trkpt>
      <trkpt lat="44.59404" lon="6.85379">
        <ele>1923.74</ele>
        <time>2015-03-24T07:57:55Z</time>
      </trkpt>
      <trkpt lat="44.59401" lon="6.85393">
        <ele>1924.7</ele>
        <time>2015-03-24T07:58:08Z</time>
      </trkpt>
      <trkpt lat="44.59396" lon="6.85408">
        <ele>1927.1</ele>
        <time>2015-03-24T07:58:25Z</time>
      </trkpt>
      <trkpt lat="44.5939" lon="6.85426">
        <ele>1928.06</ele>
        <time>2015-03-24T07:58:41Z</time>
      </trkpt>
      <trkpt lat="44.59381" lon="6.85444">
        <ele>1929.5</ele>
        <time>2015-03-24T07:59:01Z</time>
      </trkpt>
      <trkpt lat="44.59374" lon="6.85458">
        <ele>1930.46</ele>
        <time>2015-03-24T07:59:16Z</time>
      </trkpt>
      <trkpt lat="44.59367" lon="6.85468">
        <ele>1931.43</ele>
        <time>2015-03-24T07:59:29Z</time>
      </trkpt>
      <trkpt lat="44.59362" lon="6.85479">
        <ele>1932.87</ele>
        <time>2015-03-24T07:59:46Z</time>
      </trkpt>
      <trkpt lat="44.59355" lon="6.8549">
        <ele>1934.31</ele>
        <time>2015-03-24T08:00:01Z</time>
      </trkpt>
      <trkpt lat="44.59345" lon="6.85504">
        <ele>1935.75</ele>
        <time>2015-03-24T08:00:20Z</time>
      </trkpt>
      <trkpt lat="44.59337" lon="6.85516">
        <ele>1936.71</ele>
        <time>2015-03-24T08:00:36Z</time>
      </trkpt>
      <trkpt lat="44.59326" lon="6.85527">
        <ele>1938.16</ele>
        <time>2015-03-24T08:00:52Z</time>
      </trkpt>
      <trkpt lat="44.59317" lon="6.85538">
        <ele>1939.6</ele>
        <time>2015-03-24T08:01:09Z</time>
      </trkpt>
      <trkpt lat="44.59308" lon="6.85548">
        <ele>1941.04</ele>
        <time>2015-03-24T08:01:25Z</time>
      </trkpt>
      <trkpt lat="44.59302" lon="6.85556">
        <ele>1942.48</ele>
        <time>2015-03-24T08:01:41Z</time>
      </trkpt>
      <trkpt lat="44.59293" lon="6.85564">
        <ele>1942.96</ele>
        <time>2015-03-24T08:01:55Z</time>
      </trkpt>
      <trkpt lat="44.59285" lon="6.8557">
        <ele>1944.88</ele>
        <time>2015-03-24T08:02:09Z</time>
      </trkpt>
      <trkpt lat="44.59274" lon="6.85576">
        <ele>1946.81</ele>
        <time>2015-03-24T08:02:25Z</time>
      </trkpt>
      <trkpt lat="44.59262" lon="6.85583">
        <ele>1948.25</ele>
        <time>2015-03-24T08:02:41Z</time>
      </trkpt>
      <trkpt lat="44.59251" lon="6.85595">
        <ele>1949.69</ele>
        <time>2015-03-24T08:02:57Z</time>
      </trkpt>
      <trkpt lat="44.59241" lon="6.85607">
        <ele>1950.65</ele>
        <time>2015-03-24T08:03:12Z</time>
      </trkpt>
      <trkpt lat="44.59233" lon="6.85612">
        <ele>1952.09</ele>
        <time>2015-03-24T08:03:29Z</time>
      </trkpt>
      <trkpt lat="44.59229" lon="6.85611">
        <ele>1953.06</ele>
        <time>2015-03-24T08:03:47Z</time>
      </trkpt>
      <trkpt lat="44.59227" lon="6.85608">
        <ele>1953.54</ele>
        <time>2015-03-24T08:04:08Z</time>
      </trkpt>
      <trkpt lat="44.59228" lon="6.8561">
        <ele>1953.54</ele>
        <time>2015-03-24T08:04:32Z</time>
      </trkpt>
      <trkpt lat="44.59225" lon="6.85617">
        <ele>1954.02</ele>
        <time>2015-03-24T08:04:47Z</time>
      </trkpt>
      <trkpt lat="44.59226" lon="6.85616">
        <ele>1954.02</ele>
        <time>2015-03-24T08:05:01Z</time>
      </trkpt>
      <trkpt lat="44.59226" lon="6.85619">
        <ele>1954.02</ele>
        <time>2015-03-24T08:05:16Z</time>
      </trkpt>
      <trkpt lat="44.59223" lon="6.85617">
        <ele>1954.5</ele>
        <time>2015-03-24T08:05:38Z</time>
      </trkpt>
      <trkpt lat="44.59222" lon="6.85619">
        <ele>1954.5</ele>
        <time>2015-03-24T08:05:57Z</time>
      </trkpt>
      <trkpt lat="44.59223" lon="6.8562">
        <ele>1954.98</ele>
        <time>2015-03-24T08:06:14Z</time>
      </trkpt>
      <trkpt lat="44.59224" lon="6.85617">
        <ele>1954.98</ele>
        <time>2015-03-24T08:06:42Z</time>
      </trkpt>
      <trkpt lat="44.59226" lon="6.85619">
        <ele>1954.98</ele>
        <time>2015-03-24T08:06:57Z</time>
      </trkpt>
      <trkpt lat="44.59227" lon="6.8562">
        <ele>1955.46</ele>
        <time>2015-03-24T08:07:18Z</time>
      </trkpt>
      <trkpt lat="44.59229" lon="6.8562">
        <ele>1955.46</ele>
        <time>2015-03-24T08:07:48Z</time>
      </trkpt>
      <trkpt lat="44.59227" lon="6.8562">
        <ele>1955.46</ele>
        <time>2015-03-24T08:08:18Z</time>
      </trkpt>
      <trkpt lat="44.59226" lon="6.85619">
        <ele>1955.46</ele>
        <time>2015-03-24T08:08:46Z</time>
      </trkpt>
      <trkpt lat="44.5923" lon="6.85619">
        <ele>1955.94</ele>
        <time>2015-03-24T08:09:13Z</time>
      </trkpt>
      <trkpt lat="44.59233" lon="6.8562">
        <ele>1955.94</ele>
        <time>2015-03-24T08:09:38Z</time>
      </trkpt>
      <trkpt lat="44.59228" lon="6.85618">
        <ele>1955.94</ele>
        <time>2015-03-24T08:10:05Z</time>
      </trkpt>
      <trkpt lat="44.59229" lon="6.85619">
        <ele>1955.94</ele>
        <time>2015-03-24T08:10:29Z</time>
      </trkpt>
      <trkpt lat="44.59226" lon="6.85621">
        <ele>1955.94</ele>
        <time>2015-03-24T08:10:50Z</time>
      </trkpt>
      <trkpt lat="44.59229" lon="6.85617">
        <ele>1956.42</ele>
        <time>2015-03-24T08:11:07Z</time>
      </trkpt>
      <trkpt lat="44.59234" lon="6.85615">
        <ele>1954.98</ele>
        <time>2015-03-24T08:11:22Z</time>
      </trkpt>
      <trkpt lat="44.59234" lon="6.85621">
        <ele>1954.02</ele>
        <time>2015-03-24T08:11:32Z</time>
      </trkpt>
      <trkpt lat="44.59235" lon="6.85633">
        <ele>1953.54</ele>
        <time>2015-03-24T08:11:47Z</time>
      </trkpt>
      <trkpt lat="44.59237" lon="6.85636">
        <ele>1954.98</ele>
        <time>2015-03-24T08:11:59Z</time>
      </trkpt>
      <trkpt lat="44.59239" lon="6.85652">
        <ele>1957.38</ele>
        <time>2015-03-24T08:12:14Z</time>
      </trkpt>
      <trkpt lat="44.59242" lon="6.85661">
        <ele>1959.78</ele>
        <time>2015-03-24T08:12:26Z</time>
      </trkpt>
      <trkpt lat="44.59244" lon="6.85671">
        <ele>1960.75</ele>
        <time>2015-03-24T08:12:39Z</time>
      </trkpt>
      <trkpt lat="44.59248" lon="6.85686">
        <ele>1962.67</ele>
        <time>2015-03-24T08:12:54Z</time>
      </trkpt>
      <trkpt lat="44.59251" lon="6.85699">
        <ele>1964.59</ele>
        <time>2015-03-24T08:13:08Z</time>
      </trkpt>
      <trkpt lat="44.59252" lon="6.85712">
        <ele>1965.55</ele>
        <time>2015-03-24T08:13:22Z</time>
      </trkpt>
      <trkpt lat="44.59252" lon="6.85714">
        <ele>1965.55</ele>
        <time>2015-03-24T08:13:24Z</time>
      </trkpt>
      <trkpt lat="44.59253" lon="6.8573">
        <ele>1966.99</ele>
        <time>2015-03-24T08:13:40Z</time>
      </trkpt>
      <trkpt lat="44.59254" lon="6.85731">
        <ele>1966.99</ele>
        <time>2015-03-24T08:13:59Z</time>
      </trkpt>
      <trkpt lat="44.59256" lon="6.8574">
        <ele>1967.96</ele>
        <time>2015-03-24T08:14:17Z</time>
      </trkpt>
      <trkpt lat="44.59262" lon="6.85746">
        <ele>1968.92</ele>
        <time>2015-03-24T08:14:31Z</time>
      </trkpt>
      <trkpt lat="44.59267" lon="6.85748">
        <ele>1970.84</ele>
        <time>2015-03-24T08:14:44Z</time>
      </trkpt>
      <trkpt lat="44.59271" lon="6.85749">
        <ele>1972.28</ele>
        <time>2015-03-24T08:14:57Z</time>
      </trkpt>
      <trkpt lat="44.59276" lon="6.85754">
        <ele>1973.72</ele>
        <time>2015-03-24T08:15:10Z</time>
      </trkpt>
      <trkpt lat="44.59279" lon="6.85759">
        <ele>1974.69</ele>
        <time>2015-03-24T08:15:18Z</time>
      </trkpt>
      <trkpt lat="44.59281" lon="6.85769">
        <ele>1975.65</ele>
        <time>2015-03-24T08:15:32Z</time>
      </trkpt>
      <trkpt lat="44.59281" lon="6.85778">
        <ele>1977.09</ele>
        <time>2015-03-24T08:15:46Z</time>
      </trkpt>
      <trkpt lat="44.59281" lon="6.85789">
        <ele>1979.01</ele>
        <time>2015-03-24T08:16:03Z</time>
      </trkpt>
      <trkpt lat="44.59273" lon="6.85788">
        <ele>1980.93</ele>
        <time>2015-03-24T08:16:19Z</time>
      </trkpt>
      <trkpt lat="44.59272" lon="6.858">
        <ele>1982.86</ele>
        <time>2015-03-24T08:16:35Z</time>
      </trkpt>
      <trkpt lat="44.5927" lon="6.85812">
        <ele>1985.26</ele>
        <time>2015-03-24T08:16:51Z</time>
      </trkpt>
      <trkpt lat="44.59263" lon="6.85806">
        <ele>1987.66</ele>
        <time>2015-03-24T08:17:08Z</time>
      </trkpt>
      <trkpt lat="44.59257" lon="6.85808">
        <ele>1989.1</ele>
        <time>2015-03-24T08:17:21Z</time>
      </trkpt>
      <trkpt lat="44.59253" lon="6.85815">
        <ele>1990.55</ele>
        <time>2015-03-24T08:17:36Z</time>
      </trkpt>
      <trkpt lat="44.59255" lon="6.85827">
        <ele>1992.95</ele>
        <time>2015-03-24T08:17:54Z</time>
      </trkpt>
      <trkpt lat="44.59252" lon="6.85834">
        <ele>1995.35</ele>
        <time>2015-03-24T08:18:12Z</time>
      </trkpt>
      <trkpt lat="44.59254" lon="6.85845">
        <ele>1996.32</ele>
        <time>2015-03-24T08:18:30Z</time>
      </trkpt>
      <trkpt lat="44.59253" lon="6.85854">
        <ele>1998.72</ele>
        <time>2015-03-24T08:18:45Z</time>
      </trkpt>
      <trkpt lat="44.59244" lon="6.85853">
        <ele>2001.12</ele>
        <time>2015-03-24T08:19:00Z</time>
      </trkpt>
      <trkpt lat="44.59243" lon="6.85863">
        <ele>2002.56</ele>
        <time>2015-03-24T08:19:16Z</time>
      </trkpt>
      <trkpt lat="44.59245" lon="6.8587">
        <ele>2004.01</ele>
        <time>2015-03-24T08:19:29Z</time>
      </trkpt>
      <trkpt lat="44.59246" lon="6.85878">
        <ele>2006.41</ele>
        <time>2015-03-24T08:19:43Z</time>
      </trkpt>
      <trkpt lat="44.59242" lon="6.85884">
        <ele>2008.33</ele>
        <time>2015-03-24T08:19:59Z</time>
      </trkpt>
      <trkpt lat="44.59235" lon="6.85884">
        <ele>2010.25</ele>
        <time>2015-03-24T08:20:11Z</time>
      </trkpt>
      <trkpt lat="44.59232" lon="6.85888">
        <ele>2011.22</ele>
        <time>2015-03-24T08:20:27Z</time>
      </trkpt>
      <trkpt lat="44.59232" lon="6.85896">
        <ele>2013.14</ele>
        <time>2015-03-24T08:20:41Z</time>
      </trkpt>
      <trkpt lat="44.59234" lon="6.85905">
        <ele>2016.02</ele>
        <time>2015-03-24T08:20:57Z</time>
      </trkpt>
      <trkpt lat="44.59233" lon="6.85915">
        <ele>2018.43</ele>
        <time>2015-03-24T08:21:12Z</time>
      </trkpt>
      <trkpt lat="44.59225" lon="6.85921">
        <ele>2021.31</ele>
        <time>2015-03-24T08:21:28Z</time>
      </trkpt>
      <trkpt lat="44.59225" lon="6.85929">
        <ele>2022.75</ele>
        <time>2015-03-24T08:21:42Z</time>
      </trkpt>
      <trkpt lat="44.59226" lon="6.85936">
        <ele>2024.19</ele>
        <time>2015-03-24T08:21:59Z</time>
      </trkpt>
      <trkpt lat="44.59225" lon="6.85942">
        <ele>2025.15</ele>
        <time>2015-03-24T08:22:15Z</time>
      </trkpt>
      <trkpt lat="44.59219" lon="6.85944">
        <ele>2026.6</ele>
        <time>2015-03-24T08:22:30Z</time>
      </trkpt>
      <trkpt lat="44.59219" lon="6.85953">
        <ele>2029</ele>
        <time>2015-03-24T08:22:45Z</time>
      </trkpt>
      <trkpt lat="44.59221" lon="6.85961">
        <ele>2030.92</ele>
        <time>2015-03-24T08:22:59Z</time>
      </trkpt>
      <trkpt lat="44.59222" lon="6.85969">
        <ele>2032.84</ele>
        <time>2015-03-24T08:23:15Z</time>
      </trkpt>
      <trkpt lat="44.59224" lon="6.85975">
        <ele>2034.29</ele>
        <time>2015-03-24T08:23:29Z</time>
      </trkpt>
      <trkpt lat="44.59224" lon="6.85988">
        <ele>2037.17</ele>
        <time>2015-03-24T08:23:49Z</time>
      </trkpt>
      <trkpt lat="44.59223" lon="6.85999">
        <ele>2038.61</ele>
        <time>2015-03-24T08:24:04Z</time>
      </trkpt>
      <trkpt lat="44.59217" lon="6.86005">
        <ele>2041.02</ele>
        <time>2015-03-24T08:24:20Z</time>
      </trkpt>
      <trkpt lat="44.59208" lon="6.86003">
        <ele>2042.94</ele>
        <time>2015-03-24T08:24:36Z</time>
      </trkpt>
      <trkpt lat="44.59201" lon="6.85999">
        <ele>2044.38</ele>
        <time>2015-03-24T08:24:50Z</time>
      </trkpt>
      <trkpt lat="44.59195" lon="6.85998">
        <ele>2046.3</ele>
        <time>2015-03-24T08:25:04Z</time>
      </trkpt>
      <trkpt lat="44.59188" lon="6.86">
        <ele>2048.23</ele>
        <time>2015-03-24T08:25:19Z</time>
      </trkpt>
      <trkpt lat="44.59181" lon="6.86002">
        <ele>2050.63</ele>
        <time>2015-03-24T08:25:35Z</time>
      </trkpt>
      <trkpt lat="44.59174" lon="6.86004">
        <ele>2053.03</ele>
        <time>2015-03-24T08:25:52Z</time>
      </trkpt>
      <trkpt lat="44.59172" lon="6.86012">
        <ele>2055.44</ele>
        <time>2015-03-24T08:26:08Z</time>
      </trkpt>
      <trkpt lat="44.59172" lon="6.8602">
        <ele>2056.88</ele>
        <time>2015-03-24T08:26:23Z</time>
      </trkpt>
      <trkpt lat="44.59167" lon="6.86022">
        <ele>2058.8</ele>
        <time>2015-03-24T08:26:37Z</time>
      </trkpt>
      <trkpt lat="44.59165" lon="6.86031">
        <ele>2061.2</ele>
        <time>2015-03-24T08:26:53Z</time>
      </trkpt>
      <trkpt lat="44.59168" lon="6.86038">
        <ele>2062.65</ele>
        <time>2015-03-24T08:27:09Z</time>
      </trkpt>
      <trkpt lat="44.59163" lon="6.86044">
        <ele>2065.53</ele>
        <time>2015-03-24T08:27:24Z</time>
      </trkpt>
      <trkpt lat="44.59161" lon="6.86049">
        <ele>2066.97</ele>
        <time>2015-03-24T08:27:40Z</time>
      </trkpt>
      <trkpt lat="44.59165" lon="6.86054">
        <ele>2068.89</ele>
        <time>2015-03-24T08:27:56Z</time>
      </trkpt>
      <trkpt lat="44.59164" lon="6.86057">
        <ele>2070.82</ele>
        <time>2015-03-24T08:28:09Z</time>
      </trkpt>
      <trkpt lat="44.5916" lon="6.86062">
        <ele>2072.74</ele>
        <time>2015-03-24T08:28:25Z</time>
      </trkpt>
      <trkpt lat="44.59154" lon="6.86067">
        <ele>2075.14</ele>
        <time>2015-03-24T08:28:43Z</time>
      </trkpt>
      <trkpt lat="44.59157" lon="6.86073">
        <ele>2076.1</ele>
        <time>2015-03-24T08:28:58Z</time>
      </trkpt>
      <trkpt lat="44.59159" lon="6.86078">
        <ele>2078.03</ele>
        <time>2015-03-24T08:29:14Z</time>
      </trkpt>
      <trkpt lat="44.59154" lon="6.86081">
        <ele>2080.43</ele>
        <time>2015-03-24T08:29:28Z</time>
      </trkpt>
      <trkpt lat="44.59159" lon="6.86085">
        <ele>2082.35</ele>
        <time>2015-03-24T08:29:40Z</time>
      </trkpt>
      <trkpt lat="44.59163" lon="6.86087">
        <ele>2083.31</ele>
        <time>2015-03-24T08:29:54Z</time>
      </trkpt>
      <trkpt lat="44.59169" lon="6.86094">
        <ele>2085.24</ele>
        <time>2015-03-24T08:30:09Z</time>
      </trkpt>
      <trkpt lat="44.59178" lon="6.86104">
        <ele>2088.12</ele>
        <time>2015-03-24T08:30:26Z</time>
      </trkpt>
      <trkpt lat="44.59182" lon="6.86113">
        <ele>2090.04</ele>
        <time>2015-03-24T08:30:42Z</time>
      </trkpt>
      <trkpt lat="44.59188" lon="6.86121">
        <ele>2092.45</ele>
        <time>2015-03-24T08:30:56Z</time>
      </trkpt>
      <trkpt lat="44.59188" lon="6.8613">
        <ele>2094.37</ele>
        <time>2015-03-24T08:31:13Z</time>
      </trkpt>
      <trkpt lat="44.5919" lon="6.86142">
        <ele>2095.81</ele>
        <time>2015-03-24T08:31:29Z</time>
      </trkpt>
      <trkpt lat="44.59194" lon="6.86151">
        <ele>2097.73</ele>
        <time>2015-03-24T08:31:46Z</time>
      </trkpt>
      <trkpt lat="44.59198" lon="6.8616">
        <ele>2099.66</ele>
        <time>2015-03-24T08:32:04Z</time>
      </trkpt>
      <trkpt lat="44.59188" lon="6.86161">
        <ele>2102.54</ele>
        <time>2015-03-24T08:32:19Z</time>
      </trkpt>
      <trkpt lat="44.5918" lon="6.86156">
        <ele>2104.94</ele>
        <time>2015-03-24T08:32:36Z</time>
      </trkpt>
      <trkpt lat="44.59173" lon="6.86155">
        <ele>2106.87</ele>
        <time>2015-03-24T08:32:56Z</time>
      </trkpt>
      <trkpt lat="44.59164" lon="6.86161">
        <ele>2109.27</ele>
        <time>2015-03-24T08:33:11Z</time>
      </trkpt>
      <trkpt lat="44.59162" lon="6.86166">
        <ele>2111.67</ele>
        <time>2015-03-24T08:33:26Z</time>
      </trkpt>
      <trkpt lat="44.59166" lon="6.86175">
        <ele>2113.12</ele>
        <time>2015-03-24T08:33:41Z</time>
      </trkpt>
      <trkpt lat="44.59158" lon="6.86174">
        <ele>2116</ele>
        <time>2015-03-24T08:33:58Z</time>
      </trkpt>
      <trkpt lat="44.59152" lon="6.86178">
        <ele>2117.92</ele>
        <time>2015-03-24T08:34:12Z</time>
      </trkpt>
      <trkpt lat="44.59151" lon="6.86182">
        <ele>2120.32</ele>
        <time>2015-03-24T08:34:30Z</time>
      </trkpt>
      <trkpt lat="44.59149" lon="6.86184">
        <ele>2121.29</ele>
        <time>2015-03-24T08:34:47Z</time>
      </trkpt>
      <trkpt lat="44.5916" lon="6.8619">
        <ele>2123.21</ele>
        <time>2015-03-24T08:35:02Z</time>
      </trkpt>
      <trkpt lat="44.59163" lon="6.86196">
        <ele>2124.65</ele>
        <time>2015-03-24T08:35:19Z</time>
      </trkpt>
      <trkpt lat="44.5916" lon="6.86202">
        <ele>2126.57</ele>
        <time>2015-03-24T08:35:33Z</time>
      </trkpt>
      <trkpt lat="44.59165" lon="6.86213">
        <ele>2128.98</ele>
        <time>2015-03-24T08:35:47Z</time>
      </trkpt>
      <trkpt lat="44.59168" lon="6.86221">
        <ele>2130.9</ele>
        <time>2015-03-24T08:36:02Z</time>
      </trkpt>
      <trkpt lat="44.59169" lon="6.86233">
        <ele>2132.82</ele>
        <time>2015-03-24T08:36:17Z</time>
      </trkpt>
      <trkpt lat="44.59169" lon="6.86237">
        <ele>2134.26</ele>
        <time>2015-03-24T08:36:33Z</time>
      </trkpt>
      <trkpt lat="44.59171" lon="6.86241">
        <ele>2135.23</ele>
        <time>2015-03-24T08:36:50Z</time>
      </trkpt>
      <trkpt lat="44.59174" lon="6.86247">
        <ele>2136.67</ele>
        <time>2015-03-24T08:37:03Z</time>
      </trkpt>
      <trkpt lat="44.59175" lon="6.86248">
        <ele>2137.63</ele>
        <time>2015-03-24T08:37:20Z</time>
      </trkpt>
      <trkpt lat="44.59178" lon="6.86253">
        <ele>2138.59</ele>
        <time>2015-03-24T08:37:33Z</time>
      </trkpt>
      <trkpt lat="44.59177" lon="6.86259">
        <ele>2140.51</ele>
        <time>2015-03-24T08:37:45Z</time>
      </trkpt>
      <trkpt lat="44.59179" lon="6.86268">
        <ele>2142.92</ele>
        <time>2015-03-24T08:38:00Z</time>
      </trkpt>
      <trkpt lat="44.59183" lon="6.86277">
        <ele>2144.84</ele>
        <time>2015-03-24T08:38:17Z</time>
      </trkpt>
      <trkpt lat="44.59184" lon="6.8628">
        <ele>2146.76</ele>
        <time>2015-03-24T08:38:29Z</time>
      </trkpt>
      <trkpt lat="44.59188" lon="6.86286">
        <ele>2149.16</ele>
        <time>2015-03-24T08:38:44Z</time>
      </trkpt>
      <trkpt lat="44.59187" lon="6.86284">
        <ele>2150.13</ele>
        <time>2015-03-24T08:39:02Z</time>
      </trkpt>
      <trkpt lat="44.59185" lon="6.86283">
        <ele>2150.13</ele>
        <time>2015-03-24T08:39:24Z</time>
      </trkpt>
      <trkpt lat="44.59187" lon="6.86285">
        <ele>2150.13</ele>
        <time>2015-03-24T08:39:47Z</time>
      </trkpt>
      <trkpt lat="44.59186" lon="6.86284">
        <ele>2150.13</ele>
        <time>2015-03-24T08:40:11Z</time>
      </trkpt>
      <trkpt lat="44.59182" lon="6.86278">
        <ele>2150.61</ele>
        <time>2015-03-24T08:40:37Z</time>
      </trkpt>
      <trkpt lat="44.59184" lon="6.86279">
        <ele>2150.61</ele>
        <time>2015-03-24T08:40:54Z</time>
      </trkpt>
      <trkpt lat="44.59183" lon="6.86281">
        <ele>2150.61</ele>
        <time>2015-03-24T08:41:12Z</time>
      </trkpt>
      <trkpt lat="44.59184" lon="6.86281">
        <ele>2150.61</ele>
        <time>2015-03-24T08:41:31Z</time>
      </trkpt>
      <trkpt lat="44.59184" lon="6.86281">
        <ele>2151.09</ele>
        <time>2015-03-24T08:41:50Z</time>
      </trkpt>
      <trkpt lat="44.59183" lon="6.86276">
        <ele>2151.09</ele>
        <time>2015-03-24T08:42:08Z</time>
      </trkpt>
      <trkpt lat="44.59183" lon="6.86278">
        <ele>2151.09</ele>
        <time>2015-03-24T08:42:27Z</time>
      </trkpt>
      <trkpt lat="44.59185" lon="6.86282">
        <ele>2151.09</ele>
        <time>2015-03-24T08:42:52Z</time>
      </trkpt>
      <trkpt lat="44.59184" lon="6.86281">
        <ele>2151.57</ele>
        <time>2015-03-24T08:43:13Z</time>
      </trkpt>
      <trkpt lat="44.59181" lon="6.86281">
        <ele>2151.57</ele>
        <time>2015-03-24T08:43:35Z</time>
      </trkpt>
      <trkpt lat="44.59178" lon="6.86286">
        <ele>2151.57</ele>
        <time>2015-03-24T08:44:02Z</time>
      </trkpt>
      <trkpt lat="44.59178" lon="6.86288">
        <ele>2152.53</ele>
        <time>2015-03-24T08:44:24Z</time>
      </trkpt>
      <trkpt lat="44.59183" lon="6.86285">
        <ele>2152.53</ele>
        <time>2015-03-24T08:44:44Z</time>
      </trkpt>
      <trkpt lat="44.59184" lon="6.86285">
        <ele>2152.53</ele>
        <time>2015-03-24T08:45:04Z</time>
      </trkpt>
      <trkpt lat="44.59183" lon="6.86284">
        <ele>2152.53</ele>
        <time>2015-03-24T08:45:21Z</time>
      </trkpt>
      <trkpt lat="44.59181" lon="6.86279">
        <ele>2152.53</ele>
        <time>2015-03-24T08:45:41Z</time>
      </trkpt>
      <trkpt lat="44.59187" lon="6.86284">
        <ele>2152.53</ele>
        <time>2015-03-24T08:45:59Z</time>
      </trkpt>
      <trkpt lat="44.59196" lon="6.86298">
        <ele>2154.45</ele>
        <time>2015-03-24T08:46:15Z</time>
      </trkpt>
      <trkpt lat="44.59201" lon="6.86308">
        <ele>2157.34</ele>
        <time>2015-03-24T08:46:32Z</time>
      </trkpt>
      <trkpt lat="44.59204" lon="6.86317">
        <ele>2159.26</ele>
        <time>2015-03-24T08:46:49Z</time>
      </trkpt>
      <trkpt lat="44.59207" lon="6.86322">
        <ele>2161.18</ele>
        <time>2015-03-24T08:47:05Z</time>
      </trkpt>
      <trkpt lat="44.59211" lon="6.8633">
        <ele>2162.62</ele>
        <time>2015-03-24T08:47:20Z</time>
      </trkpt>
      <trkpt lat="44.59213" lon="6.86341">
        <ele>2164.55</ele>
        <time>2015-03-24T08:47:38Z</time>
      </trkpt>
      <trkpt lat="44.59204" lon="6.86339">
        <ele>2165.99</ele>
        <time>2015-03-24T08:47:53Z</time>
      </trkpt>
      <trkpt lat="44.59198" lon="6.86336">
        <ele>2167.43</ele>
        <time>2015-03-24T08:48:04Z</time>
      </trkpt>
      <trkpt lat="44.59193" lon="6.86338">
        <ele>2168.87</ele>
        <time>2015-03-24T08:48:21Z</time>
      </trkpt>
      <trkpt lat="44.59196" lon="6.86349">
        <ele>2171.76</ele>
        <time>2015-03-24T08:48:39Z</time>
      </trkpt>
      <trkpt lat="44.59202" lon="6.86356">
        <ele>2173.2</ele>
        <time>2015-03-24T08:48:57Z</time>
      </trkpt>
      <trkpt lat="44.59209" lon="6.86366">
        <ele>2174.64</ele>
        <time>2015-03-24T08:49:10Z</time>
      </trkpt>
      <trkpt lat="44.59213" lon="6.86378">
        <ele>2177.52</ele>
        <time>2015-03-24T08:49:26Z</time>
      </trkpt>
      <trkpt lat="44.59202" lon="6.86376">
        <ele>2179.93</ele>
        <time>2015-03-24T08:49:43Z</time>
      </trkpt>
      <trkpt lat="44.59195" lon="6.86374">
        <ele>2181.85</ele>
        <time>2015-03-24T08:49:58Z</time>
      </trkpt>
      <trkpt lat="44.59189" lon="6.86379">
        <ele>2184.25</ele>
        <time>2015-03-24T08:50:10Z</time>
      </trkpt>
      <trkpt lat="44.59191" lon="6.86387">
        <ele>2186.18</ele>
        <time>2015-03-24T08:50:23Z</time>
      </trkpt>
      <trkpt lat="44.59195" lon="6.86394">
        <ele>2187.62</ele>
        <time>2015-03-24T08:50:38Z</time>
      </trkpt>
      <trkpt lat="44.592" lon="6.86401">
        <ele>2189.54</ele>
        <time>2015-03-24T08:50:52Z</time>
      </trkpt>
      <trkpt lat="44.59209" lon="6.86408">
        <ele>2192.42</ele>
        <time>2015-03-24T08:51:11Z</time>
      </trkpt>
      <trkpt lat="44.59214" lon="6.86414">
        <ele>2193.87</ele>
        <time>2015-03-24T08:51:27Z</time>
      </trkpt>
      <trkpt lat="44.59217" lon="6.86421">
        <ele>2195.79</ele>
        <time>2015-03-24T08:51:40Z</time>
      </trkpt>
      <trkpt lat="44.59219" lon="6.86427">
        <ele>2197.23</ele>
        <time>2015-03-24T08:52:03Z</time>
      </trkpt>
      <trkpt lat="44.5921" lon="6.8643">
        <ele>2199.63</ele>
        <time>2015-03-24T08:52:22Z</time>
      </trkpt>
      <trkpt lat="44.59211" lon="6.86432">
        <ele>2201.08</ele>
        <time>2015-03-24T08:52:41Z</time>
      </trkpt>
      <trkpt lat="44.59212" lon="6.8644">
        <ele>2203.96</ele>
        <time>2015-03-24T08:52:57Z</time>
      </trkpt>
      <trkpt lat="44.59214" lon="6.86448">
        <ele>2205.88</ele>
        <time>2015-03-24T08:53:15Z</time>
      </trkpt>
      <trkpt lat="44.59216" lon="6.86457">
        <ele>2208.29</ele>
        <time>2015-03-24T08:53:35Z</time>
      </trkpt>
      <trkpt lat="44.59214" lon="6.8646">
        <ele>2209.73</ele>
        <time>2015-03-24T08:53:53Z</time>
      </trkpt>
      <trkpt lat="44.59215" lon="6.86467">
        <ele>2212.13</ele>
        <time>2015-03-24T08:54:10Z</time>
      </trkpt>
      <trkpt lat="44.59218" lon="6.86471">
        <ele>2213.57</ele>
        <time>2015-03-24T08:54:32Z</time>
      </trkpt>
      <trkpt lat="44.5922" lon="6.86479">
        <ele>2216.46</ele>
        <time>2015-03-24T08:54:48Z</time>
      </trkpt>
      <trkpt lat="44.59221" lon="6.86486">
        <ele>2218.38</ele>
        <time>2015-03-24T08:55:12Z</time>
      </trkpt>
      <trkpt lat="44.59222" lon="6.86494">
        <ele>2221.74</ele>
        <time>2015-03-24T08:55:27Z</time>
      </trkpt>
      <trkpt lat="44.59225" lon="6.86503">
        <ele>2223.67</ele>
        <time>2015-03-24T08:55:45Z</time>
      </trkpt>
      <trkpt lat="44.59227" lon="6.86511">
        <ele>2226.07</ele>
        <time>2015-03-24T08:56:03Z</time>
      </trkpt>
      <trkpt lat="44.5923" lon="6.86519">
        <ele>2227.99</ele>
        <time>2015-03-24T08:56:20Z</time>
      </trkpt>
      <trkpt lat="44.59235" lon="6.86525">
        <ele>2229.92</ele>
        <time>2015-03-24T08:56:37Z</time>
      </trkpt>
      <trkpt lat="44.59235" lon="6.86532">
        <ele>2231.36</ele>
        <time>2015-03-24T08:56:56Z</time>
      </trkpt>
      <trkpt lat="44.59236" lon="6.86543">
        <ele>2233.28</ele>
        <time>2015-03-24T08:57:19Z</time>
      </trkpt>
      <trkpt lat="44.59243" lon="6.86554">
        <ele>2236.16</ele>
        <time>2015-03-24T08:57:36Z</time>
      </trkpt>
      <trkpt lat="44.59246" lon="6.86566">
        <ele>2238.57</ele>
        <time>2015-03-24T08:57:53Z</time>
      </trkpt>
      <trkpt lat="44.59248" lon="6.86571">
        <ele>2239.53</ele>
        <time>2015-03-24T08:58:10Z</time>
      </trkpt>
      <trkpt lat="44.59243" lon="6.86577">
        <ele>2241.93</ele>
        <time>2015-03-24T08:58:27Z</time>
      </trkpt>
      <trkpt lat="44.59236" lon="6.86576">
        <ele>2242.89</ele>
        <time>2015-03-24T08:58:43Z</time>
      </trkpt>
      <trkpt lat="44.59235" lon="6.86582">
        <ele>2245.3</ele>
        <time>2015-03-24T08:58:59Z</time>
      </trkpt>
      <trkpt lat="44.59236" lon="6.8659">
        <ele>2245.78</ele>
        <time>2015-03-24T08:59:18Z</time>
      </trkpt>
      <trkpt lat="44.59236" lon="6.86598">
        <ele>2247.7</ele>
        <time>2015-03-24T08:59:37Z</time>
      </trkpt>
      <trkpt lat="44.59236" lon="6.86599">
        <ele>2247.7</ele>
        <time>2015-03-24T09:00:08Z</time>
      </trkpt>
      <trkpt lat="44.59239" lon="6.86601">
        <ele>2247.7</ele>
        <time>2015-03-24T09:00:40Z</time>
      </trkpt>
      <trkpt lat="44.5924" lon="6.86597">
        <ele>2247.7</ele>
        <time>2015-03-24T09:01:17Z</time>
      </trkpt>
      <trkpt lat="44.59236" lon="6.86599">
        <ele>2248.18</ele>
        <time>2015-03-24T09:01:47Z</time>
      </trkpt>
      <trkpt lat="44.59227" lon="6.86596">
        <ele>2250.58</ele>
        <time>2015-03-24T09:02:00Z</time>
      </trkpt>
      <trkpt lat="44.59225" lon="6.86605">
        <ele>2253.47</ele>
        <time>2015-03-24T09:02:15Z</time>
      </trkpt>
      <trkpt lat="44.59227" lon="6.86616">
        <ele>2255.87</ele>
        <time>2015-03-24T09:02:32Z</time>
      </trkpt>
      <trkpt lat="44.59224" lon="6.86624">
        <ele>2257.79</ele>
        <time>2015-03-24T09:02:49Z</time>
      </trkpt>
      <trkpt lat="44.59219" lon="6.86623">
        <ele>2259.72</ele>
        <time>2015-03-24T09:03:03Z</time>
      </trkpt>
      <trkpt lat="44.59216" lon="6.86622">
        <ele>2261.64</ele>
        <time>2015-03-24T09:03:19Z</time>
      </trkpt>
      <trkpt lat="44.59212" lon="6.86627">
        <ele>2263.08</ele>
        <time>2015-03-24T09:03:35Z</time>
      </trkpt>
      <trkpt lat="44.59207" lon="6.86619">
        <ele>2265</ele>
        <time>2015-03-24T09:03:49Z</time>
      </trkpt>
      <trkpt lat="44.59202" lon="6.8661">
        <ele>2266.93</ele>
        <time>2015-03-24T09:04:07Z</time>
      </trkpt>
      <trkpt lat="44.59197" lon="6.86599">
        <ele>2268.37</ele>
        <time>2015-03-24T09:04:24Z</time>
      </trkpt>
      <trkpt lat="44.59193" lon="6.86591">
        <ele>2270.29</ele>
        <time>2015-03-24T09:04:37Z</time>
      </trkpt>
      <trkpt lat="44.59186" lon="6.86583">
        <ele>2271.73</ele>
        <time>2015-03-24T09:04:53Z</time>
      </trkpt>
      <trkpt lat="44.59181" lon="6.86579">
        <ele>2273.17</ele>
        <time>2015-03-24T09:05:07Z</time>
      </trkpt>
      <trkpt lat="44.59176" lon="6.86575">
        <ele>2275.1</ele>
        <time>2015-03-24T09:05:21Z</time>
      </trkpt>
      <trkpt lat="44.59169" lon="6.86569">
        <ele>2277.5</ele>
        <time>2015-03-24T09:05:38Z</time>
      </trkpt>
      <trkpt lat="44.59162" lon="6.86566">
        <ele>2279.42</ele>
        <time>2015-03-24T09:05:51Z</time>
      </trkpt>
      <trkpt lat="44.59155" lon="6.86562">
        <ele>2281.83</ele>
        <time>2015-03-24T09:06:07Z</time>
      </trkpt>
      <trkpt lat="44.59147" lon="6.86557">
        <ele>2284.23</ele>
        <time>2015-03-24T09:06:25Z</time>
      </trkpt>
      <trkpt lat="44.59137" lon="6.86556">
        <ele>2286.15</ele>
        <time>2015-03-24T09:06:42Z</time>
      </trkpt>
      <trkpt lat="44.59129" lon="6.86556">
        <ele>2287.59</ele>
        <time>2015-03-24T09:06:58Z</time>
      </trkpt>
      <trkpt lat="44.59118" lon="6.86556">
        <ele>2289.52</ele>
        <time>2015-03-24T09:07:17Z</time>
      </trkpt>
      <trkpt lat="44.59113" lon="6.86554">
        <ele>2290</ele>
        <time>2015-03-24T09:07:30Z</time>
      </trkpt>
      <trkpt lat="44.59108" lon="6.86554">
        <ele>2290.96</ele>
        <time>2015-03-24T09:07:49Z</time>
      </trkpt>
      <trkpt lat="44.59103" lon="6.86557">
        <ele>2292.4</ele>
        <time>2015-03-24T09:08:11Z</time>
      </trkpt>
      <trkpt lat="44.59099" lon="6.86563">
        <ele>2295.28</ele>
        <time>2015-03-24T09:08:25Z</time>
      </trkpt>
      <trkpt lat="44.59096" lon="6.86567">
        <ele>2296.73</ele>
        <time>2015-03-24T09:08:38Z</time>
      </trkpt>
      <trkpt lat="44.5909" lon="6.86572">
        <ele>2298.65</ele>
        <time>2015-03-24T09:08:55Z</time>
      </trkpt>
      <trkpt lat="44.59087" lon="6.86578">
        <ele>2302.01</ele>
        <time>2015-03-24T09:09:10Z</time>
      </trkpt>
      <trkpt lat="44.59089" lon="6.86586">
        <ele>2304.42</ele>
        <time>2015-03-24T09:09:24Z</time>
      </trkpt>
      <trkpt lat="44.59088" lon="6.86593">
        <ele>2307.3</ele>
        <time>2015-03-24T09:09:38Z</time>
      </trkpt>
      <trkpt lat="44.59089" lon="6.86602">
        <ele>2309.22</ele>
        <time>2015-03-24T09:09:51Z</time>
      </trkpt>
      <trkpt lat="44.5909" lon="6.86608">
        <ele>2312.11</ele>
        <time>2015-03-24T09:10:05Z</time>
      </trkpt>
      <trkpt lat="44.59091" lon="6.86614">
        <ele>2314.03</ele>
        <time>2015-03-24T09:10:19Z</time>
      </trkpt>
      <trkpt lat="44.59091" lon="6.8662">
        <ele>2316.43</ele>
        <time>2015-03-24T09:10:32Z</time>
      </trkpt>
      <trkpt lat="44.59092" lon="6.86627">
        <ele>2318.36</ele>
        <time>2015-03-24T09:10:46Z</time>
      </trkpt>
      <trkpt lat="44.59092" lon="6.86634">
        <ele>2321.24</ele>
        <time>2015-03-24T09:11:01Z</time>
      </trkpt>
      <trkpt lat="44.59091" lon="6.86638">
        <ele>2322.2</ele>
        <time>2015-03-24T09:11:15Z</time>
      </trkpt>
      <trkpt lat="44.59091" lon="6.86639">
        <ele>2322.2</ele>
        <time>2015-03-24T09:11:35Z</time>
      </trkpt>
      <trkpt lat="44.5909" lon="6.86641">
        <ele>2322.2</ele>
        <time>2015-03-24T09:11:53Z</time>
      </trkpt>
      <trkpt lat="44.59089" lon="6.86642">
        <ele>2322.2</ele>
        <time>2015-03-24T09:12:18Z</time>
      </trkpt>
      <trkpt lat="44.59092" lon="6.86639">
        <ele>2323.16</ele>
        <time>2015-03-24T09:12:44Z</time>
      </trkpt>
      <trkpt lat="44.5909" lon="6.8664">
        <ele>2323.16</ele>
        <time>2015-03-24T09:13:13Z</time>
      </trkpt>
      <trkpt lat="44.5909" lon="6.86642">
        <ele>2323.16</ele>
        <time>2015-03-24T09:13:40Z</time>
      </trkpt>
      <trkpt lat="44.59086" lon="6.86654">
        <ele>2326.05</ele>
        <time>2015-03-24T09:13:56Z</time>
      </trkpt>
      <trkpt lat="44.59084" lon="6.86661">
        <ele>2327.97</ele>
        <time>2015-03-24T09:14:09Z</time>
      </trkpt>
      <trkpt lat="44.5908" lon="6.86671">
        <ele>2331.33</ele>
        <time>2015-03-24T09:14:26Z</time>
      </trkpt>
      <trkpt lat="44.59078" lon="6.86678">
        <ele>2332.78</ele>
        <time>2015-03-24T09:14:39Z</time>
      </trkpt>
      <trkpt lat="44.59073" lon="6.86687">
        <ele>2335.66</ele>
        <time>2015-03-24T09:14:53Z</time>
      </trkpt>
      <trkpt lat="44.5907" lon="6.86695">
        <ele>2338.06</ele>
        <time>2015-03-24T09:15:09Z</time>
      </trkpt>
      <trkpt lat="44.59068" lon="6.86702">
        <ele>2339.99</ele>
        <time>2015-03-24T09:15:23Z</time>
      </trkpt>
      <trkpt lat="44.59066" lon="6.86709">
        <ele>2341.91</ele>
        <time>2015-03-24T09:15:37Z</time>
      </trkpt>
      <trkpt lat="44.59064" lon="6.86719">
        <ele>2345.27</ele>
        <time>2015-03-24T09:15:54Z</time>
      </trkpt>
      <trkpt lat="44.59063" lon="6.86727">
        <ele>2347.2</ele>
        <time>2015-03-24T09:16:08Z</time>
      </trkpt>
      <trkpt lat="44.59062" lon="6.86734">
        <ele>2349.12</ele>
        <time>2015-03-24T09:16:19Z</time>
      </trkpt>
      <trkpt lat="44.5906" lon="6.8674">
        <ele>2351.04</ele>
        <time>2015-03-24T09:16:33Z</time>
      </trkpt>
      <trkpt lat="44.59058" lon="6.86747">
        <ele>2352.96</ele>
        <time>2015-03-24T09:16:46Z</time>
      </trkpt>
      <trkpt lat="44.59056" lon="6.86754">
        <ele>2355.37</ele>
        <time>2015-03-24T09:16:59Z</time>
      </trkpt>
      <trkpt lat="44.59056" lon="6.86762">
        <ele>2357.29</ele>
        <time>2015-03-24T09:17:12Z</time>
      </trkpt>
      <trkpt lat="44.59056" lon="6.86769">
        <ele>2359.69</ele>
        <time>2015-03-24T09:17:27Z</time>
      </trkpt>
      <trkpt lat="44.59053" lon="6.86778">
        <ele>2362.1</ele>
        <time>2015-03-24T09:17:43Z</time>
      </trkpt>
      <trkpt lat="44.59052" lon="6.8678">
        <ele>2362.1</ele>
        <time>2015-03-24T09:18:04Z</time>
      </trkpt>
      <trkpt lat="44.5905" lon="6.86787">
        <ele>2364.02</ele>
        <time>2015-03-24T09:18:23Z</time>
      </trkpt>
      <trkpt lat="44.59047" lon="6.86795">
        <ele>2366.42</ele>
        <time>2015-03-24T09:18:37Z</time>
      </trkpt>
      <trkpt lat="44.59045" lon="6.86803">
        <ele>2368.35</ele>
        <time>2015-03-24T09:18:51Z</time>
      </trkpt>
      <trkpt lat="44.59043" lon="6.86812">
        <ele>2370.75</ele>
        <time>2015-03-24T09:19:10Z</time>
      </trkpt>
      <trkpt lat="44.59039" lon="6.86821">
        <ele>2373.15</ele>
        <time>2015-03-24T09:19:28Z</time>
      </trkpt>
      <trkpt lat="44.59034" lon="6.86829">
        <ele>2375.55</ele>
        <time>2015-03-24T09:19:46Z</time>
      </trkpt>
      <trkpt lat="44.59032" lon="6.86837">
        <ele>2377.48</ele>
        <time>2015-03-24T09:20:00Z</time>
      </trkpt>
      <trkpt lat="44.59027" lon="6.86846">
        <ele>2379.88</ele>
        <time>2015-03-24T09:20:13Z</time>
      </trkpt>
      <trkpt lat="44.59023" lon="6.86854">
        <ele>2382.28</ele>
        <time>2015-03-24T09:20:30Z</time>
      </trkpt>
      <trkpt lat="44.5902" lon="6.86863">
        <ele>2384.21</ele>
        <time>2015-03-24T09:20:42Z</time>
      </trkpt>
      <trkpt lat="44.59015" lon="6.86873">
        <ele>2386.13</ele>
        <time>2015-03-24T09:20:58Z</time>
      </trkpt>
      <trkpt lat="44.59012" lon="6.86879">
        <ele>2388.05</ele>
        <time>2015-03-24T09:21:12Z</time>
      </trkpt>
      <trkpt lat="44.59009" lon="6.86885">
        <ele>2389.97</ele>
        <time>2015-03-24T09:21:30Z</time>
      </trkpt>
      <trkpt lat="44.59006" lon="6.86894">
        <ele>2391.42</ele>
        <time>2015-03-24T09:21:46Z</time>
      </trkpt>
      <trkpt lat="44.58999" lon="6.86903">
        <ele>2394.3</ele>
        <time>2015-03-24T09:22:01Z</time>
      </trkpt>
      <trkpt lat="44.58994" lon="6.86914">
        <ele>2396.7</ele>
        <time>2015-03-24T09:22:16Z</time>
      </trkpt>
      <trkpt lat="44.58991" lon="6.86924">
        <ele>2398.63</ele>
        <time>2015-03-24T09:22:32Z</time>
      </trkpt>
      <trkpt lat="44.58988" lon="6.8693">
        <ele>2400.07</ele>
        <time>2015-03-24T09:22:44Z</time>
      </trkpt>
      <trkpt lat="44.58984" lon="6.86938">
        <ele>2402.47</ele>
        <time>2015-03-24T09:23:02Z</time>
      </trkpt>
      <trkpt lat="44.58981" lon="6.86949">
        <ele>2404.39</ele>
        <time>2015-03-24T09:23:17Z</time>
      </trkpt>
      <trkpt lat="44.58979" lon="6.86957">
        <ele>2405.84</ele>
        <time>2015-03-24T09:23:29Z</time>
      </trkpt>
      <trkpt lat="44.58975" lon="6.86968">
        <ele>2407.76</ele>
        <time>2015-03-24T09:23:43Z</time>
      </trkpt>
      <trkpt lat="44.58972" lon="6.86978">
        <ele>2409.2</ele>
        <time>2015-03-24T09:23:56Z</time>
      </trkpt>
      <trkpt lat="44.58967" lon="6.8699">
        <ele>2410.64</ele>
        <time>2015-03-24T09:24:11Z</time>
      </trkpt>
      <trkpt lat="44.58965" lon="6.87">
        <ele>2412.57</ele>
        <time>2015-03-24T09:24:26Z</time>
      </trkpt>
      <trkpt lat="44.58962" lon="6.87014">
        <ele>2414.49</ele>
        <time>2015-03-24T09:24:41Z</time>
      </trkpt>
      <trkpt lat="44.5896" lon="6.87024">
        <ele>2415.93</ele>
        <time>2015-03-24T09:24:55Z</time>
      </trkpt>
      <trkpt lat="44.58958" lon="6.87039">
        <ele>2416.89</ele>
        <time>2015-03-24T09:25:11Z</time>
      </trkpt>
      <trkpt lat="44.58957" lon="6.87053">
        <ele>2417.85</ele>
        <time>2015-03-24T09:25:25Z</time>
      </trkpt>
      <trkpt lat="44.58957" lon="6.87069">
        <ele>2420.26</ele>
        <time>2015-03-24T09:25:42Z</time>
      </trkpt>
      <trkpt lat="44.58957" lon="6.87083">
        <ele>2421.7</ele>
        <time>2015-03-24T09:25:57Z</time>
      </trkpt>
      <trkpt lat="44.58954" lon="6.87095">
        <ele>2423.14</ele>
        <time>2015-03-24T09:26:13Z</time>
      </trkpt>
      <trkpt lat="44.58951" lon="6.87106">
        <ele>2424.58</ele>
        <time>2015-03-24T09:26:27Z</time>
      </trkpt>
      <trkpt lat="44.58949" lon="6.87113">
        <ele>2426.02</ele>
        <time>2015-03-24T09:26:40Z</time>
      </trkpt>
      <trkpt lat="44.58947" lon="6.8712">
        <ele>2427.95</ele>
        <time>2015-03-24T09:26:56Z</time>
      </trkpt>
      <trkpt lat="44.58943" lon="6.87127">
        <ele>2430.83</ele>
        <time>2015-03-24T09:27:09Z</time>
      </trkpt>
      <trkpt lat="44.5894" lon="6.87137">
        <ele>2432.75</ele>
        <time>2015-03-24T09:27:25Z</time>
      </trkpt>
      <trkpt lat="44.58938" lon="6.87144">
        <ele>2434.2</ele>
        <time>2015-03-24T09:27:35Z</time>
      </trkpt>
      <trkpt lat="44.58936" lon="6.87151">
        <ele>2436.12</ele>
        <time>2015-03-24T09:27:46Z</time>
      </trkpt>
      <trkpt lat="44.58931" lon="6.8716">
        <ele>2437.56</ele>
        <time>2015-03-24T09:28:01Z</time>
      </trkpt>
      <trkpt lat="44.58928" lon="6.8717">
        <ele>2439.96</ele>
        <time>2015-03-24T09:28:17Z</time>
      </trkpt>
      <trkpt lat="44.58925" lon="6.87176">
        <ele>2441.89</ele>
        <time>2015-03-24T09:28:28Z</time>
      </trkpt>
      <trkpt lat="44.58923" lon="6.87184">
        <ele>2443.81</ele>
        <time>2015-03-24T09:28:42Z</time>
      </trkpt>
      <trkpt lat="44.5892" lon="6.87193">
        <ele>2446.21</ele>
        <time>2015-03-24T09:28:58Z</time>
      </trkpt>
      <trkpt lat="44.58918" lon="6.87202">
        <ele>2448.62</ele>
        <time>2015-03-24T09:29:14Z</time>
      </trkpt>
      <trkpt lat="44.58917" lon="6.8721">
        <ele>2450.54</ele>
        <time>2015-03-24T09:29:30Z</time>
      </trkpt>
      <trkpt lat="44.58915" lon="6.87219">
        <ele>2452.46</ele>
        <time>2015-03-24T09:29:47Z</time>
      </trkpt>
      <trkpt lat="44.58914" lon="6.87227">
        <ele>2454.38</ele>
        <time>2015-03-24T09:30:03Z</time>
      </trkpt>
      <trkpt lat="44.58911" lon="6.87232">
        <ele>2455.34</ele>
        <time>2015-03-24T09:30:15Z</time>
      </trkpt>
      <trkpt lat="44.58912" lon="6.8724">
        <ele>2457.27</ele>
        <time>2015-03-24T09:30:29Z</time>
      </trkpt>
      <trkpt lat="44.58915" lon="6.87243">
        <ele>2459.19</ele>
        <time>2015-03-24T09:30:42Z</time>
      </trkpt>
      <trkpt lat="44.58916" lon="6.87244">
        <ele>2460.15</ele>
        <time>2015-03-24T09:31:00Z</time>
      </trkpt>
      <trkpt lat="44.58916" lon="6.87242">
        <ele>2460.63</ele>
        <time>2015-03-24T09:31:19Z</time>
      </trkpt>
      <trkpt lat="44.58914" lon="6.87242">
        <ele>2460.63</ele>
        <time>2015-03-24T09:31:46Z</time>
      </trkpt>
      <trkpt lat="44.58915" lon="6.87243">
        <ele>2460.63</ele>
        <time>2015-03-24T09:32:01Z</time>
      </trkpt>
      <trkpt lat="44.58916" lon="6.87244">
        <ele>2460.63</ele>
        <time>2015-03-24T09:32:21Z</time>
      </trkpt>
      <trkpt lat="44.58914" lon="6.87244">
        <ele>2460.63</ele>
        <time>2015-03-24T09:32:43Z</time>
      </trkpt>
      <trkpt lat="44.58913" lon="6.87244">
        <ele>2460.63</ele>
        <time>2015-03-24T09:33:02Z</time>
      </trkpt>
      <trkpt lat="44.58914" lon="6.87245">
        <ele>2460.63</ele>
        <time>2015-03-24T09:33:26Z</time>
      </trkpt>
      <trkpt lat="44.58914" lon="6.87245">
        <ele>2459.67</ele>
        <time>2015-03-24T09:33:44Z</time>
      </trkpt>
      <trkpt lat="44.58915" lon="6.87245">
        <ele>2459.67</ele>
        <time>2015-03-24T09:34:12Z</time>
      </trkpt>
      <trkpt lat="44.58914" lon="6.87246">
        <ele>2459.67</ele>
        <time>2015-03-24T09:34:26Z</time>
      </trkpt>
      <trkpt lat="44.58914" lon="6.87246">
        <ele>2459.19</ele>
        <time>2015-03-24T09:34:48Z</time>
      </trkpt>
      <trkpt lat="44.58916" lon="6.8725">
        <ele>2460.63</ele>
        <time>2015-03-24T09:34:59Z</time>
      </trkpt>
      <trkpt lat="44.58917" lon="6.87259">
        <ele>2463.04</ele>
        <time>2015-03-24T09:35:12Z</time>
      </trkpt>
      <trkpt lat="44.58918" lon="6.8727">
        <ele>2465.44</ele>
        <time>2015-03-24T09:35:25Z</time>
      </trkpt>
      <trkpt lat="44.58917" lon="6.87279">
        <ele>2466.88</ele>
        <time>2015-03-24T09:35:38Z</time>
      </trkpt>
      <trkpt lat="44.5892" lon="6.87289">
        <ele>2470.24</ele>
        <time>2015-03-24T09:35:55Z</time>
      </trkpt>
      <trkpt lat="44.58919" lon="6.873">
        <ele>2471.69</ele>
        <time>2015-03-24T09:36:08Z</time>
      </trkpt>
      <trkpt lat="44.58919" lon="6.8731">
        <ele>2474.09</ele>
        <time>2015-03-24T09:36:23Z</time>
      </trkpt>
      <trkpt lat="44.58919" lon="6.87321">
        <ele>2476.01</ele>
        <time>2015-03-24T09:36:40Z</time>
      </trkpt>
      <trkpt lat="44.58922" lon="6.87331">
        <ele>2478.42</ele>
        <time>2015-03-24T09:36:56Z</time>
      </trkpt>
      <trkpt lat="44.58925" lon="6.8734">
        <ele>2480.82</ele>
        <time>2015-03-24T09:37:15Z</time>
      </trkpt>
      <trkpt lat="44.58929" lon="6.87348">
        <ele>2482.26</ele>
        <time>2015-03-24T09:37:29Z</time>
      </trkpt>
      <trkpt lat="44.58932" lon="6.87357">
        <ele>2484.66</ele>
        <time>2015-03-24T09:37:46Z</time>
      </trkpt>
      <trkpt lat="44.58934" lon="6.87364">
        <ele>2487.07</ele>
        <time>2015-03-24T09:38:00Z</time>
      </trkpt>
      <trkpt lat="44.58934" lon="6.87374">
        <ele>2489.95</ele>
        <time>2015-03-24T09:38:15Z</time>
      </trkpt>
      <trkpt lat="44.58932" lon="6.87385">
        <ele>2491.39</ele>
        <time>2015-03-24T09:38:30Z</time>
      </trkpt>
      <trkpt lat="44.5893" lon="6.87393">
        <ele>2493.8</ele>
        <time>2015-03-24T09:38:46Z</time>
      </trkpt>
      <trkpt lat="44.58928" lon="6.87403">
        <ele>2495.72</ele>
        <time>2015-03-24T09:39:02Z</time>
      </trkpt>
      <trkpt lat="44.58929" lon="6.87411">
        <ele>2497.16</ele>
        <time>2015-03-24T09:39:16Z</time>
      </trkpt>
      <trkpt lat="44.58931" lon="6.87422">
        <ele>2499.57</ele>
        <time>2015-03-24T09:39:34Z</time>
      </trkpt>
      <trkpt lat="44.58931" lon="6.87428">
        <ele>2501.97</ele>
        <time>2015-03-24T09:39:49Z</time>
      </trkpt>
      <trkpt lat="44.58931" lon="6.87436">
        <ele>2503.89</ele>
        <time>2015-03-24T09:40:03Z</time>
      </trkpt>
      <trkpt lat="44.58931" lon="6.87444">
        <ele>2505.81</ele>
        <time>2015-03-24T09:40:19Z</time>
      </trkpt>
      <trkpt lat="44.58933" lon="6.87451">
        <ele>2507.74</ele>
        <time>2015-03-24T09:40:34Z</time>
      </trkpt>
      <trkpt lat="44.58935" lon="6.87456">
        <ele>2510.14</ele>
        <time>2015-03-24T09:40:49Z</time>
      </trkpt>
      <trkpt lat="44.5894" lon="6.87455">
        <ele>2512.06</ele>
        <time>2015-03-24T09:41:06Z</time>
      </trkpt>
      <trkpt lat="44.58945" lon="6.8746">
        <ele>2513.98</ele>
        <time>2015-03-24T09:41:21Z</time>
      </trkpt>
      <trkpt lat="44.58947" lon="6.87467">
        <ele>2515.91</ele>
        <time>2015-03-24T09:41:35Z</time>
      </trkpt>
      <trkpt lat="44.58948" lon="6.87472">
        <ele>2517.35</ele>
        <time>2015-03-24T09:41:49Z</time>
      </trkpt>
      <trkpt lat="44.58948" lon="6.87473">
        <ele>2517.83</ele>
        <time>2015-03-24T09:42:08Z</time>
      </trkpt>
      <trkpt lat="44.58949" lon="6.87477">
        <ele>2519.27</ele>
        <time>2015-03-24T09:42:29Z</time>
      </trkpt>
      <trkpt lat="44.58954" lon="6.87487">
        <ele>2522.16</ele>
        <time>2015-03-24T09:42:45Z</time>
      </trkpt>
      <trkpt lat="44.58956" lon="6.87497">
        <ele>2525.04</ele>
        <time>2015-03-24T09:43:01Z</time>
      </trkpt>
      <trkpt lat="44.58959" lon="6.87504">
        <ele>2527.92</ele>
        <time>2015-03-24T09:43:18Z</time>
      </trkpt>
      <trkpt lat="44.58959" lon="6.87512">
        <ele>2529.85</ele>
        <time>2015-03-24T09:43:33Z</time>
      </trkpt>
      <trkpt lat="44.5896" lon="6.87519">
        <ele>2531.77</ele>
        <time>2015-03-24T09:43:47Z</time>
      </trkpt>
      <trkpt lat="44.58962" lon="6.87526">
        <ele>2533.69</ele>
        <time>2015-03-24T09:44:02Z</time>
      </trkpt>
      <trkpt lat="44.58962" lon="6.87532">
        <ele>2535.61</ele>
        <time>2015-03-24T09:44:17Z</time>
      </trkpt>
      <trkpt lat="44.58965" lon="6.87538">
        <ele>2537.06</ele>
        <time>2015-03-24T09:44:31Z</time>
      </trkpt>
      <trkpt lat="44.58966" lon="6.87544">
        <ele>2538.98</ele>
        <time>2015-03-24T09:44:45Z</time>
      </trkpt>
      <trkpt lat="44.58964" lon="6.87552">
        <ele>2540.9</ele>
        <time>2015-03-24T09:45:02Z</time>
      </trkpt>
      <trkpt lat="44.58966" lon="6.87558">
        <ele>2542.82</ele>
        <time>2015-03-24T09:45:17Z</time>
      </trkpt>
      <trkpt lat="44.58967" lon="6.87564">
        <ele>2545.23</ele>
        <time>2015-03-24T09:45:31Z</time>
      </trkpt>
      <trkpt lat="44.58964" lon="6.87571">
        <ele>2547.15</ele>
        <time>2015-03-24T09:45:47Z</time>
      </trkpt>
      <trkpt lat="44.58962" lon="6.87576">
        <ele>2548.59</ele>
        <time>2015-03-24T09:46:00Z</time>
      </trkpt>
      <trkpt lat="44.58964" lon="6.87581">
        <ele>2550.03</ele>
        <time>2015-03-24T09:46:15Z</time>
      </trkpt>
      <trkpt lat="44.58967" lon="6.87586">
        <ele>2551.96</ele>
        <time>2015-03-24T09:46:28Z</time>
      </trkpt>
      <trkpt lat="44.58969" lon="6.8759">
        <ele>2553.4</ele>
        <time>2015-03-24T09:46:41Z</time>
      </trkpt>
      <trkpt lat="44.58968" lon="6.87597">
        <ele>2555.32</ele>
        <time>2015-03-24T09:46:57Z</time>
      </trkpt>
      <trkpt lat="44.5897" lon="6.87602">
        <ele>2557.73</ele>
        <time>2015-03-24T09:47:12Z</time>
      </trkpt>
      <trkpt lat="44.58976" lon="6.87605">
        <ele>2559.65</ele>
        <time>2015-03-24T09:47:30Z</time>
      </trkpt>
      <trkpt lat="44.58983" lon="6.87606">
        <ele>2561.57</ele>
        <time>2015-03-24T09:47:47Z</time>
      </trkpt>
      <trkpt lat="44.58991" lon="6.8761">
        <ele>2564.45</ele>
        <time>2015-03-24T09:48:04Z</time>
      </trkpt>
      <trkpt lat="44.58997" lon="6.87613">
        <ele>2566.86</ele>
        <time>2015-03-24T09:48:21Z</time>
      </trkpt>
      <trkpt lat="44.58999" lon="6.87619">
        <ele>2568.78</ele>
        <time>2015-03-24T09:48:34Z</time>
      </trkpt>
      <trkpt lat="44.59001" lon="6.87628">
        <ele>2571.18</ele>
        <time>2015-03-24T09:48:48Z</time>
      </trkpt>
      <trkpt lat="44.59003" lon="6.87634">
        <ele>2573.11</ele>
        <time>2015-03-24T09:49:03Z</time>
      </trkpt>
      <trkpt lat="44.59007" lon="6.87635">
        <ele>2575.03</ele>
        <time>2015-03-24T09:49:17Z</time>
      </trkpt>
      <trkpt lat="44.59013" lon="6.87637">
        <ele>2577.91</ele>
        <time>2015-03-24T09:49:36Z</time>
      </trkpt>
      <trkpt lat="44.59014" lon="6.87644">
        <ele>2579.84</ele>
        <time>2015-03-24T09:49:51Z</time>
      </trkpt>
      <trkpt lat="44.59017" lon="6.87646">
        <ele>2581.76</ele>
        <time>2015-03-24T09:50:05Z</time>
      </trkpt>
      <trkpt lat="44.59023" lon="6.87649">
        <ele>2583.68</ele>
        <time>2015-03-24T09:50:22Z</time>
      </trkpt>
      <trkpt lat="44.59024" lon="6.87652">
        <ele>2585.6</ele>
        <time>2015-03-24T09:50:38Z</time>
      </trkpt>
      <trkpt lat="44.59024" lon="6.87656">
        <ele>2588.49</ele>
        <time>2015-03-24T09:50:54Z</time>
      </trkpt>
      <trkpt lat="44.59029" lon="6.87663">
        <ele>2589.93</ele>
        <time>2015-03-24T09:51:10Z</time>
      </trkpt>
      <trkpt lat="44.59027" lon="6.87667">
        <ele>2591.85</ele>
        <time>2015-03-24T09:51:28Z</time>
      </trkpt>
      <trkpt lat="44.59022" lon="6.87673">
        <ele>2593.77</ele>
        <time>2015-03-24T09:51:43Z</time>
      </trkpt>
      <trkpt lat="44.59023" lon="6.87677">
        <ele>2595.7</ele>
        <time>2015-03-24T09:51:58Z</time>
      </trkpt>
      <trkpt lat="44.59022" lon="6.8768">
        <ele>2596.66</ele>
        <time>2015-03-24T09:52:12Z</time>
      </trkpt>
      <trkpt lat="44.59021" lon="6.87686">
        <ele>2599.06</ele>
        <time>2015-03-24T09:52:25Z</time>
      </trkpt>
      <trkpt lat="44.5902" lon="6.87694">
        <ele>2600.98</ele>
        <time>2015-03-24T09:52:41Z</time>
      </trkpt>
      <trkpt lat="44.59019" lon="6.87701">
        <ele>2603.39</ele>
        <time>2015-03-24T09:52:57Z</time>
      </trkpt>
      <trkpt lat="44.59018" lon="6.87707">
        <ele>2604.83</ele>
        <time>2015-03-24T09:53:15Z</time>
      </trkpt>
      <trkpt lat="44.59015" lon="6.87717">
        <ele>2607.71</ele>
        <time>2015-03-24T09:53:34Z</time>
      </trkpt>
      <trkpt lat="44.59013" lon="6.87726">
        <ele>2610.12</ele>
        <time>2015-03-24T09:53:53Z</time>
      </trkpt>
      <trkpt lat="44.59018" lon="6.87731">
        <ele>2613.48</ele>
        <time>2015-03-24T09:54:11Z</time>
      </trkpt>
      <trkpt lat="44.59023" lon="6.87731">
        <ele>2615.4</ele>
        <time>2015-03-24T09:54:26Z</time>
      </trkpt>
      <trkpt lat="44.59029" lon="6.87736">
        <ele>2617.81</ele>
        <time>2015-03-24T09:54:42Z</time>
      </trkpt>
      <trkpt lat="44.59035" lon="6.8774">
        <ele>2620.21</ele>
        <time>2015-03-24T09:54:59Z</time>
      </trkpt>
      <trkpt lat="44.59035" lon="6.87747">
        <ele>2621.65</ele>
        <time>2015-03-24T09:55:13Z</time>
      </trkpt>
      <trkpt lat="44.59035" lon="6.87755">
        <ele>2624.06</ele>
        <time>2015-03-24T09:55:27Z</time>
      </trkpt>
      <trkpt lat="44.59034" lon="6.8776">
        <ele>2625.5</ele>
        <time>2015-03-24T09:55:41Z</time>
      </trkpt>
      <trkpt lat="44.5903" lon="6.87765">
        <ele>2627.9</ele>
        <time>2015-03-24T09:55:57Z</time>
      </trkpt>
      <trkpt lat="44.5903" lon="6.87773">
        <ele>2630.3</ele>
        <time>2015-03-24T09:56:13Z</time>
      </trkpt>
      <trkpt lat="44.59031" lon="6.87779">
        <ele>2632.23</ele>
        <time>2015-03-24T09:56:27Z</time>
      </trkpt>
      <trkpt lat="44.59031" lon="6.87786">
        <ele>2634.63</ele>
        <time>2015-03-24T09:56:40Z</time>
      </trkpt>
      <trkpt lat="44.59032" lon="6.87795">
        <ele>2637.51</ele>
        <time>2015-03-24T09:56:55Z</time>
      </trkpt>
      <trkpt lat="44.59031" lon="6.87797">
        <ele>2637.03</ele>
        <time>2015-03-24T09:57:12Z</time>
      </trkpt>
      <trkpt lat="44.59029" lon="6.87797">
        <ele>2637.03</ele>
        <time>2015-03-24T09:57:33Z</time>
      </trkpt>
      <trkpt lat="44.5903" lon="6.87796">
        <ele>2637.51</ele>
        <time>2015-03-24T09:57:53Z</time>
      </trkpt>
      <trkpt lat="44.59032" lon="6.87797">
        <ele>2637.51</ele>
        <time>2015-03-24T09:58:17Z</time>
      </trkpt>
      <trkpt lat="44.5903" lon="6.87799">
        <ele>2637.51</ele>
        <time>2015-03-24T09:58:40Z</time>
      </trkpt>
      <trkpt lat="44.5903" lon="6.87803">
        <ele>2638.48</ele>
        <time>2015-03-24T09:58:45Z</time>
      </trkpt>
      <trkpt lat="44.59033" lon="6.87809">
        <ele>2640.88</ele>
        <time>2015-03-24T09:58:59Z</time>
      </trkpt>
      <trkpt lat="44.59038" lon="6.87814">
        <ele>2643.28</ele>
        <time>2015-03-24T09:59:15Z</time>
      </trkpt>
      <trkpt lat="44.59036" lon="6.87824">
        <ele>2645.69</ele>
        <time>2015-03-24T09:59:30Z</time>
      </trkpt>
      <trkpt lat="44.59032" lon="6.87832">
        <ele>2648.57</ele>
        <time>2015-03-24T09:59:48Z</time>
      </trkpt>
      <trkpt lat="44.59034" lon="6.87839">
        <ele>2650.97</ele>
        <time>2015-03-24T10:00:03Z</time>
      </trkpt>
      <trkpt lat="44.59039" lon="6.87846">
        <ele>2654.34</ele>
        <time>2015-03-24T10:00:20Z</time>
      </trkpt>
      <trkpt lat="44.59045" lon="6.87852">
        <ele>2656.74</ele>
        <time>2015-03-24T10:00:38Z</time>
      </trkpt>
      <trkpt lat="44.59046" lon="6.87859">
        <ele>2657.7</ele>
        <time>2015-03-24T10:00:53Z</time>
      </trkpt>
      <trkpt lat="44.59046" lon="6.87866">
        <ele>2659.14</ele>
        <time>2015-03-24T10:01:08Z</time>
      </trkpt>
      <trkpt lat="44.59045" lon="6.87874">
        <ele>2661.55</ele>
        <time>2015-03-24T10:01:24Z</time>
      </trkpt>
      <trkpt lat="44.59041" lon="6.87879">
        <ele>2663.47</ele>
        <time>2015-03-24T10:01:40Z</time>
      </trkpt>
      <trkpt lat="44.59039" lon="6.87886">
        <ele>2665.39</ele>
        <time>2015-03-24T10:01:56Z</time>
      </trkpt>
      <trkpt lat="44.59038" lon="6.87894">
        <ele>2667.31</ele>
        <time>2015-03-24T10:02:10Z</time>
      </trkpt>
      <trkpt lat="44.59037" lon="6.879">
        <ele>2668.76</ele>
        <time>2015-03-24T10:02:24Z</time>
      </trkpt>
      <trkpt lat="44.59034" lon="6.8791">
        <ele>2670.2</ele>
        <time>2015-03-24T10:02:41Z</time>
      </trkpt>
      <trkpt lat="44.59036" lon="6.87918">
        <ele>2672.6</ele>
        <time>2015-03-24T10:02:59Z</time>
      </trkpt>
      <trkpt lat="44.59037" lon="6.87927">
        <ele>2675.01</ele>
        <time>2015-03-24T10:03:17Z</time>
      </trkpt>
      <trkpt lat="44.59036" lon="6.87936">
        <ele>2677.89</ele>
        <time>2015-03-24T10:03:33Z</time>
      </trkpt>
      <trkpt lat="44.59037" lon="6.87943">
        <ele>2678.85</ele>
        <time>2015-03-24T10:03:47Z</time>
      </trkpt>
      <trkpt lat="44.59039" lon="6.87946">
        <ele>2680.77</ele>
        <time>2015-03-24T10:04:02Z</time>
      </trkpt>
      <trkpt lat="44.59043" lon="6.87947">
        <ele>2682.7</ele>
        <time>2015-03-24T10:04:18Z</time>
      </trkpt>
      <trkpt lat="44.59041" lon="6.87953">
        <ele>2684.62</ele>
        <time>2015-03-24T10:04:33Z</time>
      </trkpt>
      <trkpt lat="44.59044" lon="6.87958">
        <ele>2687.02</ele>
        <time>2015-03-24T10:04:49Z</time>
      </trkpt>
      <trkpt lat="44.59046" lon="6.87964">
        <ele>2688.94</ele>
        <time>2015-03-24T10:05:04Z</time>
      </trkpt>
      <trkpt lat="44.59046" lon="6.87967">
        <ele>2690.39</ele>
        <time>2015-03-24T10:05:17Z</time>
      </trkpt>
      <trkpt lat="44.59045" lon="6.87976">
        <ele>2692.31</ele>
        <time>2015-03-24T10:05:32Z</time>
      </trkpt>
      <trkpt lat="44.59047" lon="6.87977">
        <ele>2694.23</ele>
        <time>2015-03-24T10:05:39Z</time>
      </trkpt>
      <trkpt lat="44.5905" lon="6.87979">
        <ele>2695.19</ele>
        <time>2015-03-24T10:05:55Z</time>
      </trkpt>
      <trkpt lat="44.59049" lon="6.87986">
        <ele>2696.64</ele>
        <time>2015-03-24T10:06:11Z</time>
      </trkpt>
      <trkpt lat="44.59047" lon="6.87993">
        <ele>2699.04</ele>
        <time>2015-03-24T10:06:28Z</time>
      </trkpt>
      <trkpt lat="44.59052" lon="6.87994">
        <ele>2700.96</ele>
        <time>2015-03-24T10:06:45Z</time>
      </trkpt>
      <trkpt lat="44.59057" lon="6.87996">
        <ele>2703.85</ele>
        <time>2015-03-24T10:07:01Z</time>
      </trkpt>
      <trkpt lat="44.59061" lon="6.87999">
        <ele>2705.29</ele>
        <time>2015-03-24T10:07:16Z</time>
      </trkpt>
      <trkpt lat="44.59063" lon="6.88005">
        <ele>2707.21</ele>
        <time>2015-03-24T10:07:30Z</time>
      </trkpt>
      <trkpt lat="44.59065" lon="6.88011">
        <ele>2708.65</ele>
        <time>2015-03-24T10:07:45Z</time>
      </trkpt>
      <trkpt lat="44.59067" lon="6.88022">
        <ele>2712.02</ele>
        <time>2015-03-24T10:08:04Z</time>
      </trkpt>
      <trkpt lat="44.59067" lon="6.8803">
        <ele>2714.42</ele>
        <time>2015-03-24T10:08:20Z</time>
      </trkpt>
      <trkpt lat="44.59067" lon="6.88039">
        <ele>2716.82</ele>
        <time>2015-03-24T10:08:36Z</time>
      </trkpt>
      <trkpt lat="44.59068" lon="6.88043">
        <ele>2717.78</ele>
        <time>2015-03-24T10:08:53Z</time>
      </trkpt>
      <trkpt lat="44.59068" lon="6.88042">
        <ele>2716.82</ele>
        <time>2015-03-24T10:09:21Z</time>
      </trkpt>
      <trkpt lat="44.59068" lon="6.88043">
        <ele>2716.82</ele>
        <time>2015-03-24T10:09:40Z</time>
      </trkpt>
      <trkpt lat="44.59068" lon="6.88043">
        <ele>2718.27</ele>
        <time>2015-03-24T10:09:46Z</time>
      </trkpt>
      <trkpt lat="44.59068" lon="6.88043">
        <ele>2718.27</ele>
        <time>2015-03-24T10:10:09Z</time>
      </trkpt>
      <trkpt lat="44.59069" lon="6.88042">
        <ele>2717.3</ele>
        <time>2015-03-24T10:10:25Z</time>
      </trkpt>
      <trkpt lat="44.59069" lon="6.88042">
        <ele>2717.78</ele>
        <time>2015-03-24T10:10:46Z</time>
      </trkpt>
      <trkpt lat="44.59068" lon="6.88043">
        <ele>2717.78</ele>
        <time>2015-03-24T10:11:11Z</time>
      </trkpt>
      <trkpt lat="44.5907" lon="6.88043">
        <ele>2716.34</ele>
        <time>2015-03-24T10:11:34Z</time>
      </trkpt>
      <trkpt lat="44.59069" lon="6.88043">
        <ele>2715.86</ele>
        <time>2015-03-24T10:11:54Z</time>
      </trkpt>
      <trkpt lat="44.59069" lon="6.88043">
        <ele>2717.78</ele>
        <time>2015-03-24T10:12:05Z</time>
      </trkpt>
      <trkpt lat="44.59071" lon="6.88043">
        <ele>2716.82</ele>
        <time>2015-03-24T10:12:24Z</time>
      </trkpt>
      <trkpt lat="44.5907" lon="6.8805">
        <ele>2717.78</ele>
        <time>2015-03-24T10:12:43Z</time>
      </trkpt>
      <trkpt lat="44.5907" lon="6.88061">
        <ele>2720.19</ele>
        <time>2015-03-24T10:12:59Z</time>
      </trkpt>
      <trkpt lat="44.59069" lon="6.88074">
        <ele>2723.07</ele>
        <time>2015-03-24T10:13:16Z</time>
      </trkpt>
      <trkpt lat="44.59066" lon="6.88083">
        <ele>2724.99</ele>
        <time>2015-03-24T10:13:29Z</time>
      </trkpt>
      <trkpt lat="44.59063" lon="6.88092">
        <ele>2727.4</ele>
        <time>2015-03-24T10:13:43Z</time>
      </trkpt>
      <trkpt lat="44.59068" lon="6.88098">
        <ele>2728.84</ele>
        <time>2015-03-24T10:14:01Z</time>
      </trkpt>
      <trkpt lat="44.59071" lon="6.88104">
        <ele>2731.24</ele>
        <time>2015-03-24T10:14:20Z</time>
      </trkpt>
      <trkpt lat="44.59074" lon="6.88111">
        <ele>2733.17</ele>
        <time>2015-03-24T10:14:36Z</time>
      </trkpt>
      <trkpt lat="44.59076" lon="6.88115">
        <ele>2735.57</ele>
        <time>2015-03-24T10:14:45Z</time>
      </trkpt>
      <trkpt lat="44.59082" lon="6.88116">
        <ele>2739.41</ele>
        <time>2015-03-24T10:15:03Z</time>
      </trkpt>
      <trkpt lat="44.5909" lon="6.88117">
        <ele>2741.82</ele>
        <time>2015-03-24T10:15:24Z</time>
      </trkpt>
      <trkpt lat="44.59095" lon="6.88119">
        <ele>2742.78</ele>
        <time>2015-03-24T10:15:42Z</time>
      </trkpt>
      <trkpt lat="44.59097" lon="6.88122">
        <ele>2742.78</ele>
        <time>2015-03-24T10:15:54Z</time>
      </trkpt>
      <trkpt lat="44.59098" lon="6.88122">
        <ele>2743.74</ele>
        <time>2015-03-24T10:15:57Z</time>
      </trkpt>
      <trkpt lat="44.59104" lon="6.88123">
        <ele>2746.14</ele>
        <time>2015-03-24T10:16:13Z</time>
      </trkpt>
      <trkpt lat="44.59108" lon="6.88123">
        <ele>2747.1</ele>
        <time>2015-03-24T10:16:23Z</time>
      </trkpt>
      <trkpt lat="44.59115" lon="6.88123">
        <ele>2749.51</ele>
        <time>2015-03-24T10:16:40Z</time>
      </trkpt>
      <trkpt lat="44.59119" lon="6.88128">
        <ele>2749.99</ele>
        <time>2015-03-24T10:16:54Z</time>
      </trkpt>
      <trkpt lat="44.5912" lon="6.88135">
        <ele>2753.35</ele>
        <time>2015-03-24T10:17:07Z</time>
      </trkpt>
      <trkpt lat="44.59118" lon="6.88143">
        <ele>2752.39</ele>
        <time>2015-03-24T10:17:22Z</time>
      </trkpt>
      <trkpt lat="44.59118" lon="6.88146">
        <ele>2753.83</ele>
        <time>2015-03-24T10:17:27Z</time>
      </trkpt>
      <trkpt lat="44.59119" lon="6.88154">
        <ele>2756.24</ele>
        <time>2015-03-24T10:17:44Z</time>
      </trkpt>
      <trkpt lat="44.5912" lon="6.88164">
        <ele>2757.68</ele>
        <time>2015-03-24T10:18:03Z</time>
      </trkpt>
      <trkpt lat="44.59121" lon="6.88172">
        <ele>2761.04</ele>
        <time>2015-03-24T10:18:22Z</time>
      </trkpt>
      <trkpt lat="44.59127" lon="6.88169">
        <ele>2764.41</ele>
        <time>2015-03-24T10:18:39Z</time>
      </trkpt>
      <trkpt lat="44.59128" lon="6.88169">
        <ele>2765.37</ele>
        <time>2015-03-24T10:18:43Z</time>
      </trkpt>
      <trkpt lat="44.59135" lon="6.88169">
        <ele>2767.29</ele>
        <time>2015-03-24T10:19:02Z</time>
      </trkpt>
      <trkpt lat="44.59142" lon="6.88169">
        <ele>2770.18</ele>
        <time>2015-03-24T10:19:20Z</time>
      </trkpt>
      <trkpt lat="44.59149" lon="6.8817">
        <ele>2772.1</ele>
        <time>2015-03-24T10:19:39Z</time>
      </trkpt>
      <trkpt lat="44.59151" lon="6.88177">
        <ele>2771.62</ele>
        <time>2015-03-24T10:19:58Z</time>
      </trkpt>
      <trkpt lat="44.59151" lon="6.88187">
        <ele>2774.02</ele>
        <time>2015-03-24T10:20:14Z</time>
      </trkpt>
      <trkpt lat="44.59148" lon="6.88198">
        <ele>2775.94</ele>
        <time>2015-03-24T10:20:34Z</time>
      </trkpt>
      <trkpt lat="44.59148" lon="6.88206">
        <ele>2777.39</ele>
        <time>2015-03-24T10:20:48Z</time>
      </trkpt>
      <trkpt lat="44.59146" lon="6.88215">
        <ele>2779.79</ele>
        <time>2015-03-24T10:21:05Z</time>
      </trkpt>
      <trkpt lat="44.59147" lon="6.88221">
        <ele>2783.15</ele>
        <time>2015-03-24T10:21:20Z</time>
      </trkpt>
      <trkpt lat="44.59155" lon="6.8822">
        <ele>2784.12</ele>
        <time>2015-03-24T10:21:38Z</time>
      </trkpt>
      <trkpt lat="44.59161" lon="6.8822">
        <ele>2787</ele>
        <time>2015-03-24T10:21:57Z</time>
      </trkpt>
      <trkpt lat="44.59166" lon="6.88219">
        <ele>2790.36</ele>
        <time>2015-03-24T10:22:13Z</time>
      </trkpt>
      <trkpt lat="44.59172" lon="6.88219">
        <ele>2791.33</ele>
        <time>2015-03-24T10:22:28Z</time>
      </trkpt>
      <trkpt lat="44.59175" lon="6.88222">
        <ele>2790.84</ele>
        <time>2015-03-24T10:22:39Z</time>
      </trkpt>
      <trkpt lat="44.59174" lon="6.88228">
        <ele>2792.29</ele>
        <time>2015-03-24T10:22:49Z</time>
      </trkpt>
      <trkpt lat="44.59176" lon="6.88231">
        <ele>2790.84</ele>
        <time>2015-03-24T10:23:06Z</time>
      </trkpt>
      <trkpt lat="44.59175" lon="6.88231">
        <ele>2792.29</ele>
        <time>2015-03-24T10:23:28Z</time>
      </trkpt>
      <trkpt lat="44.59173" lon="6.88236">
        <ele>2792.77</ele>
        <time>2015-03-24T10:23:47Z</time>
      </trkpt>
      <trkpt lat="44.59171" lon="6.88245">
        <ele>2796.13</ele>
        <time>2015-03-24T10:24:02Z</time>
      </trkpt>
      <trkpt lat="44.5917" lon="6.88252">
        <ele>2797.09</ele>
        <time>2015-03-24T10:24:17Z</time>
      </trkpt>
      <trkpt lat="44.59168" lon="6.88259">
        <ele>2800.46</ele>
        <time>2015-03-24T10:24:31Z</time>
      </trkpt>
      <trkpt lat="44.59168" lon="6.88261">
        <ele>2800.94</ele>
        <time>2015-03-24T10:24:36Z</time>
      </trkpt>
      <trkpt lat="44.59166" lon="6.88268">
        <ele>2802.86</ele>
        <time>2015-03-24T10:24:52Z</time>
      </trkpt>
      <trkpt lat="44.59166" lon="6.88274">
        <ele>2803.34</ele>
        <time>2015-03-24T10:25:06Z</time>
      </trkpt>
      <trkpt lat="44.59166" lon="6.88279">
        <ele>2805.26</ele>
        <time>2015-03-24T10:25:23Z</time>
      </trkpt>
      <trkpt lat="44.59169" lon="6.88278">
        <ele>2808.15</ele>
        <time>2015-03-24T10:25:39Z</time>
      </trkpt>
      <trkpt lat="44.59176" lon="6.88275">
        <ele>2809.11</ele>
        <time>2015-03-24T10:25:56Z</time>
      </trkpt>
      <trkpt lat="44.59182" lon="6.88275">
        <ele>2812.47</ele>
        <time>2015-03-24T10:26:13Z</time>
      </trkpt>
      <trkpt lat="44.59184" lon="6.88275">
        <ele>2813.92</ele>
        <time>2015-03-24T10:26:20Z</time>
      </trkpt>
      <trkpt lat="44.59187" lon="6.88277">
        <ele>2813.44</ele>
        <time>2015-03-24T10:26:36Z</time>
      </trkpt>
      <trkpt lat="44.59185" lon="6.88284">
        <ele>2814.4</ele>
        <time>2015-03-24T10:26:50Z</time>
      </trkpt>
      <trkpt lat="44.59185" lon="6.88291">
        <ele>2815.84</ele>
        <time>2015-03-24T10:27:03Z</time>
      </trkpt>
      <trkpt lat="44.59184" lon="6.88299">
        <ele>2818.72</ele>
        <time>2015-03-24T10:27:19Z</time>
      </trkpt>
      <trkpt lat="44.59185" lon="6.88309">
        <ele>2820.16</ele>
        <time>2015-03-24T10:27:40Z</time>
      </trkpt>
      <trkpt lat="44.59186" lon="6.88315">
        <ele>2824.49</ele>
        <time>2015-03-24T10:27:54Z</time>
      </trkpt>
      <trkpt lat="44.59186" lon="6.88315">
        <ele>2824.49</ele>
        <time>2015-03-24T10:27:55Z</time>
      </trkpt>
      <trkpt lat="44.59185" lon="6.88314">
        <ele>2824.97</ele>
        <time>2015-03-24T10:28:03Z</time>
      </trkpt>
      <trkpt lat="44.59191" lon="6.8831">
        <ele>2826.41</ele>
        <time>2015-03-24T10:28:20Z</time>
      </trkpt>
      <trkpt lat="44.59196" lon="6.88308">
        <ele>2829.3</ele>
        <time>2015-03-24T10:28:37Z</time>
      </trkpt>
      <trkpt lat="44.59197" lon="6.88308">
        <ele>2829.3</ele>
        <time>2015-03-24T10:28:38Z</time>
      </trkpt>
      <trkpt lat="44.59202" lon="6.88306">
        <ele>2831.22</ele>
        <time>2015-03-24T10:28:56Z</time>
      </trkpt>
      <trkpt lat="44.59206" lon="6.88305">
        <ele>2832.18</ele>
        <time>2015-03-24T10:29:13Z</time>
      </trkpt>
      <trkpt lat="44.59206" lon="6.88311">
        <ele>2831.22</ele>
        <time>2015-03-24T10:29:29Z</time>
      </trkpt>
      <trkpt lat="44.59205" lon="6.88319">
        <ele>2832.66</ele>
        <time>2015-03-24T10:29:43Z</time>
      </trkpt>
      <trkpt lat="44.59205" lon="6.8832">
        <ele>2834.1</ele>
        <time>2015-03-24T10:29:45Z</time>
      </trkpt>
      <trkpt lat="44.59205" lon="6.88327">
        <ele>2836.03</ele>
        <time>2015-03-24T10:29:57Z</time>
      </trkpt>
      <trkpt lat="44.59204" lon="6.88335">
        <ele>2836.51</ele>
        <time>2015-03-24T10:30:12Z</time>
      </trkpt>
      <trkpt lat="44.59204" lon="6.88343">
        <ele>2837.95</ele>
        <time>2015-03-24T10:30:28Z</time>
      </trkpt>
      <trkpt lat="44.59204" lon="6.88343">
        <ele>2837.95</ele>
        <time>2015-03-24T10:30:29Z</time>
      </trkpt>
      <trkpt lat="44.59203" lon="6.88352">
        <ele>2839.87</ele>
        <time>2015-03-24T10:30:44Z</time>
      </trkpt>
      <trkpt lat="44.59202" lon="6.88358">
        <ele>2841.31</ele>
        <time>2015-03-24T10:30:59Z</time>
      </trkpt>
      <trkpt lat="44.59202" lon="6.88367">
        <ele>2843.24</ele>
        <time>2015-03-24T10:31:15Z</time>
      </trkpt>
      <trkpt lat="44.59202" lon="6.88378">
        <ele>2845.64</ele>
        <time>2015-03-24T10:31:30Z</time>
      </trkpt>
      <trkpt lat="44.59203" lon="6.88381">
        <ele>2845.64</ele>
        <time>2015-03-24T10:31:35Z</time>
      </trkpt>
      <trkpt lat="44.59204" lon="6.88389">
        <ele>2846.6</ele>
        <time>2015-03-24T10:31:53Z</time>
      </trkpt>
      <trkpt lat="44.59206" lon="6.88397">
        <ele>2849</ele>
        <time>2015-03-24T10:32:11Z</time>
      </trkpt>
      <trkpt lat="44.59207" lon="6.88396">
        <ele>2851.41</ele>
        <time>2015-03-24T10:32:28Z</time>
      </trkpt>
      <trkpt lat="44.59212" lon="6.88387">
        <ele>2854.29</ele>
        <time>2015-03-24T10:32:45Z</time>
      </trkpt>
      <trkpt lat="44.59218" lon="6.8838">
        <ele>2857.18</ele>
        <time>2015-03-24T10:33:06Z</time>
      </trkpt>
      <trkpt lat="44.59217" lon="6.88384">
        <ele>2856.21</ele>
        <time>2015-03-24T10:33:17Z</time>
      </trkpt>
      <trkpt lat="44.59218" lon="6.88394">
        <ele>2858.14</ele>
        <time>2015-03-24T10:33:34Z</time>
      </trkpt>
      <trkpt lat="44.59219" lon="6.88405">
        <ele>2860.06</ele>
        <time>2015-03-24T10:33:50Z</time>
      </trkpt>
      <trkpt lat="44.5922" lon="6.88414">
        <ele>2861.02</ele>
        <time>2015-03-24T10:34:05Z</time>
      </trkpt>
      <trkpt lat="44.59221" lon="6.88417">
        <ele>2862.46</ele>
        <time>2015-03-24T10:34:11Z</time>
      </trkpt>
      <trkpt lat="44.59223" lon="6.88417">
        <ele>2864.87</ele>
        <time>2015-03-24T10:34:27Z</time>
      </trkpt>
      <trkpt lat="44.59227" lon="6.88408">
        <ele>2867.27</ele>
        <time>2015-03-24T10:34:42Z</time>
      </trkpt>
      <trkpt lat="44.59228" lon="6.88408">
        <ele>2868.23</ele>
        <time>2015-03-24T10:34:45Z</time>
      </trkpt>
      <trkpt lat="44.59232" lon="6.88404">
        <ele>2870.63</ele>
        <time>2015-03-24T10:34:54Z</time>
      </trkpt>
      <trkpt lat="44.59232" lon="6.88403">
        <ele>2872.08</ele>
        <time>2015-03-24T10:34:56Z</time>
      </trkpt>
      <trkpt lat="44.59238" lon="6.88396">
        <ele>2873.04</ele>
        <time>2015-03-24T10:35:13Z</time>
      </trkpt>
      <trkpt lat="44.59238" lon="6.88395">
        <ele>2873.52</ele>
        <time>2015-03-24T10:35:15Z</time>
      </trkpt>
      <trkpt lat="44.59243" lon="6.88393">
        <ele>2876.88</ele>
        <time>2015-03-24T10:35:28Z</time>
      </trkpt>
      <trkpt lat="44.59252" lon="6.8839">
        <ele>2875.92</ele>
        <time>2015-03-24T10:35:45Z</time>
      </trkpt>
      <trkpt lat="44.5926" lon="6.88387">
        <ele>2874.48</ele>
        <time>2015-03-24T10:35:59Z</time>
      </trkpt>
      <trkpt lat="44.59261" lon="6.88387">
        <ele>2875.92</ele>
        <time>2015-03-24T10:36:01Z</time>
      </trkpt>
      <trkpt lat="44.59263" lon="6.88387">
        <ele>2875.44</ele>
        <time>2015-03-24T10:36:05Z</time>
      </trkpt>
      <trkpt lat="44.5927" lon="6.88385">
        <ele>2877.36</ele>
        <time>2015-03-24T10:36:13Z</time>
      </trkpt>
      <trkpt lat="44.59277" lon="6.88385">
        <ele>2874</ele>
        <time>2015-03-24T10:36:26Z</time>
      </trkpt>
      <trkpt lat="44.59277" lon="6.88385">
        <ele>2877.36</ele>
        <time>2015-03-24T10:36:27Z</time>
      </trkpt>
      <trkpt lat="44.59277" lon="6.88385">
        <ele>2881.69</ele>
        <time>2015-03-24T10:36:28Z</time>
      </trkpt>
      <trkpt lat="44.59277" lon="6.88385">
        <ele>2878.81</ele>
        <time>2015-03-24T10:36:29Z</time>
      </trkpt>
      <trkpt lat="44.59277" lon="6.88386">
        <ele>2875.92</ele>
        <time>2015-03-24T10:36:32Z</time>
      </trkpt>
      <trkpt lat="44.59277" lon="6.88386">
        <ele>2879.77</ele>
        <time>2015-03-24T10:36:33Z</time>
      </trkpt>
      <trkpt lat="44.59277" lon="6.88386">
        <ele>2877.36</ele>
        <time>2015-03-24T10:36:34Z</time>
      </trkpt>
      <trkpt lat="44.59277" lon="6.88386">
        <ele>2873.52</ele>
        <time>2015-03-24T10:36:36Z</time>
      </trkpt>
      <trkpt lat="44.59278" lon="6.88386">
        <ele>2870.63</ele>
        <time>2015-03-24T10:36:39Z</time>
      </trkpt>
      <trkpt lat="44.59278" lon="6.88386">
        <ele>2874.48</ele>
        <time>2015-03-24T10:36:41Z</time>
      </trkpt>
      <trkpt lat="44.59277" lon="6.88386">
        <ele>2882.17</ele>
        <time>2015-03-24T10:36:42Z</time>
      </trkpt>
      <trkpt lat="44.59277" lon="6.88386">
        <ele>2878.32</ele>
        <time>2015-03-24T10:36:43Z</time>
      </trkpt>
      <trkpt lat="44.59277" lon="6.88386">
        <ele>2875.44</ele>
        <time>2015-03-24T10:36:51Z</time>
      </trkpt>
      <trkpt lat="44.59277" lon="6.88386">
        <ele>2874.48</ele>
        <time>2015-03-24T10:36:53Z</time>
      </trkpt>
      <trkpt lat="44.59277" lon="6.88386">
        <ele>2881.69</ele>
        <time>2015-03-24T10:36:55Z</time>
      </trkpt>
      <trkpt lat="44.59276" lon="6.88386">
        <ele>2883.13</ele>
        <time>2015-03-24T10:36:57Z</time>
      </trkpt>
      <trkpt lat="44.59276" lon="6.88386">
        <ele>2879.29</ele>
        <time>2015-03-24T10:37:02Z</time>
      </trkpt>
      <trkpt lat="44.59276" lon="6.88386">
        <ele>2877.84</ele>
        <time>2015-03-24T10:37:04Z</time>
      </trkpt>
      <trkpt lat="44.59275" lon="6.88386">
        <ele>2883.13</ele>
        <time>2015-03-24T10:37:05Z</time>
      </trkpt>
      <trkpt lat="44.59275" lon="6.88387">
        <ele>2885.05</ele>
        <time>2015-03-24T10:37:08Z</time>
      </trkpt>
      <trkpt lat="44.59275" lon="6.88387">
        <ele>2880.25</ele>
        <time>2015-03-24T10:37:10Z</time>
      </trkpt>
      <trkpt lat="44.59275" lon="6.88386">
        <ele>2875.92</ele>
        <time>2015-03-24T10:37:21Z</time>
      </trkpt>
      <trkpt lat="44.59275" lon="6.88386">
        <ele>2877.36</ele>
        <time>2015-03-24T10:37:22Z</time>
      </trkpt>
      <trkpt lat="44.59275" lon="6.88386">
        <ele>2871.6</ele>
        <time>2015-03-24T10:37:23Z</time>
      </trkpt>
      <trkpt lat="44.59275" lon="6.88386">
        <ele>2876.88</ele>
        <time>2015-03-24T10:37:24Z</time>
      </trkpt>
      <trkpt lat="44.59275" lon="6.88386">
        <ele>2880.73</ele>
        <time>2015-03-24T10:37:26Z</time>
      </trkpt>
      <trkpt lat="44.59275" lon="6.88386">
        <ele>2880.73</ele>
        <time>2015-03-24T10:37:27Z</time>
      </trkpt>
      <trkpt lat="44.59274" lon="6.88386">
        <ele>2878.32</ele>
        <time>2015-03-24T10:37:31Z</time>
      </trkpt>
      <trkpt lat="44.59271" lon="6.88385">
        <ele>2876.4</ele>
        <time>2015-03-24T10:37:35Z</time>
      </trkpt>
      <trkpt lat="44.59267" lon="6.88386">
        <ele>2873.52</ele>
        <time>2015-03-24T10:37:41Z</time>
      </trkpt>
      <trkpt lat="44.59264" lon="6.88385">
        <ele>2875.92</ele>
        <time>2015-03-24T10:37:46Z</time>
      </trkpt>
      <trkpt lat="44.59264" lon="6.88385">
        <ele>2874</ele>
        <time>2015-03-24T10:37:48Z</time>
      </trkpt>
      <trkpt lat="44.59263" lon="6.88384">
        <ele>2875.44</ele>
        <time>2015-03-24T10:37:52Z</time>
      </trkpt>
      <trkpt lat="44.59262" lon="6.88383">
        <ele>2874</ele>
        <time>2015-03-24T10:37:58Z</time>
      </trkpt>
      <trkpt lat="44.59261" lon="6.88381">
        <ele>2873.04</ele>
        <time>2015-03-24T10:38:05Z</time>
      </trkpt>
      <trkpt lat="44.59261" lon="6.8838">
        <ele>2872.56</ele>
        <time>2015-03-24T10:38:23Z</time>
      </trkpt>
      <trkpt lat="44.59261" lon="6.88381">
        <ele>2868.23</ele>
        <time>2015-03-24T10:38:31Z</time>
      </trkpt>
      <trkpt lat="44.59261" lon="6.88381">
        <ele>2870.15</ele>
        <time>2015-03-24T10:38:32Z</time>
      </trkpt>
      <trkpt lat="44.59261" lon="6.88381">
        <ele>2873.04</ele>
        <time>2015-03-24T10:38:33Z</time>
      </trkpt>
      <trkpt lat="44.59261" lon="6.88381">
        <ele>2873.04</ele>
        <time>2015-03-24T10:38:34Z</time>
      </trkpt>
      <trkpt lat="44.5926" lon="6.8838">
        <ele>2876.88</ele>
        <time>2015-03-24T10:38:36Z</time>
      </trkpt>
      <trkpt lat="44.59261" lon="6.8838">
        <ele>2873.52</ele>
        <time>2015-03-24T10:38:37Z</time>
      </trkpt>
      <trkpt lat="44.59263" lon="6.88379">
        <ele>2873.52</ele>
        <time>2015-03-24T10:38:51Z</time>
      </trkpt>
      <trkpt lat="44.59263" lon="6.8838">
        <ele>2871.11</ele>
        <time>2015-03-24T10:39:12Z</time>
      </trkpt>
      <trkpt lat="44.59264" lon="6.8838">
        <ele>2871.11</ele>
        <time>2015-03-24T10:39:31Z</time>
      </trkpt>
      <trkpt lat="44.59263" lon="6.8838">
        <ele>2872.56</ele>
        <time>2015-03-24T10:39:36Z</time>
      </trkpt>
      <trkpt lat="44.59264" lon="6.8838">
        <ele>2871.11</ele>
        <time>2015-03-24T10:39:45Z</time>
      </trkpt>
      <trkpt lat="44.59263" lon="6.8838">
        <ele>2872.56</ele>
        <time>2015-03-24T10:39:48Z</time>
      </trkpt>
      <trkpt lat="44.59263" lon="6.8838">
        <ele>2871.11</ele>
        <time>2015-03-24T10:39:51Z</time>
      </trkpt>
      <trkpt lat="44.59264" lon="6.8838">
        <ele>2872.56</ele>
        <time>2015-03-24T10:39:57Z</time>
      </trkpt>
      <trkpt lat="44.59264" lon="6.8838">
        <ele>2870.63</ele>
        <time>2015-03-24T10:40:16Z</time>
      </trkpt>
      <trkpt lat="44.59264" lon="6.8838">
        <ele>2871.6</ele>
        <time>2015-03-24T10:40:32Z</time>
      </trkpt>
      <trkpt lat="44.59264" lon="6.8838">
        <ele>2873.52</ele>
        <time>2015-03-24T10:40:34Z</time>
      </trkpt>
      <trkpt lat="44.59264" lon="6.88378">
        <ele>2871.6</ele>
        <time>2015-03-24T10:40:38Z</time>
      </trkpt>
      <trkpt lat="44.59264" lon="6.88377">
        <ele>2870.63</ele>
        <time>2015-03-24T10:40:52Z</time>
      </trkpt>
      <trkpt lat="44.59264" lon="6.88378">
        <ele>2869.67</ele>
        <time>2015-03-24T10:41:11Z</time>
      </trkpt>
      <trkpt lat="44.59264" lon="6.88379">
        <ele>2871.11</ele>
        <time>2015-03-24T10:41:15Z</time>
      </trkpt>
      <trkpt lat="44.59264" lon="6.8838">
        <ele>2870.63</ele>
        <time>2015-03-24T10:41:31Z</time>
      </trkpt>
      <trkpt lat="44.59266" lon="6.8838">
        <ele>2872.08</ele>
        <time>2015-03-24T10:41:43Z</time>
      </trkpt>
      <trkpt lat="44.59265" lon="6.8838">
        <ele>2870.63</ele>
        <time>2015-03-24T10:41:50Z</time>
      </trkpt>
      <trkpt lat="44.59265" lon="6.8838">
        <ele>2873.04</ele>
        <time>2015-03-24T10:41:58Z</time>
      </trkpt>
      <trkpt lat="44.59265" lon="6.8838">
        <ele>2871.6</ele>
        <time>2015-03-24T10:42:06Z</time>
      </trkpt>
      <trkpt lat="44.59264" lon="6.88381">
        <ele>2871.6</ele>
        <time>2015-03-24T10:42:25Z</time>
      </trkpt>
      <trkpt lat="44.59264" lon="6.8838">
        <ele>2870.15</ele>
        <time>2015-03-24T10:42:46Z</time>
      </trkpt>
      <trkpt lat="44.59264" lon="6.8838">
        <ele>2871.11</ele>
        <time>2015-03-24T10:43:10Z</time>
      </trkpt>
      <trkpt lat="44.59265" lon="6.8838">
        <ele>2869.67</ele>
        <time>2015-03-24T10:43:22Z</time>
      </trkpt>
      <trkpt lat="44.59265" lon="6.8838">
        <ele>2871.6</ele>
        <time>2015-03-24T10:43:24Z</time>
      </trkpt>
      <trkpt lat="44.59264" lon="6.8838">
        <ele>2870.15</ele>
        <time>2015-03-24T10:43:29Z</time>
      </trkpt>
      <trkpt lat="44.59263" lon="6.8838">
        <ele>2865.35</ele>
        <time>2015-03-24T10:43:46Z</time>
      </trkpt>
      <trkpt lat="44.59263" lon="6.8838">
        <ele>2871.11</ele>
        <time>2015-03-24T10:43:47Z</time>
      </trkpt>
      <trkpt lat="44.59263" lon="6.8838">
        <ele>2871.11</ele>
        <time>2015-03-24T10:43:48Z</time>
      </trkpt>
      <trkpt lat="44.59263" lon="6.8838">
        <ele>2874.96</ele>
        <time>2015-03-24T10:43:49Z</time>
      </trkpt>
      <trkpt lat="44.59263" lon="6.88379">
        <ele>2871.11</ele>
        <time>2015-03-24T10:43:50Z</time>
      </trkpt>
      <trkpt lat="44.59265" lon="6.88379">
        <ele>2871.11</ele>
        <time>2015-03-24T10:44:14Z</time>
      </trkpt>
      <trkpt lat="44.59264" lon="6.8838">
        <ele>2871.6</ele>
        <time>2015-03-24T10:44:32Z</time>
      </trkpt>
      <trkpt lat="44.59263" lon="6.88381">
        <ele>2870.15</ele>
        <time>2015-03-24T10:44:55Z</time>
      </trkpt>
      <trkpt lat="44.59264" lon="6.88381">
        <ele>2873.04</ele>
        <time>2015-03-24T10:44:59Z</time>
      </trkpt>
      <trkpt lat="44.59264" lon="6.88382">
        <ele>2873.52</ele>
        <time>2015-03-24T10:45:20Z</time>
      </trkpt>
      <trkpt lat="44.59264" lon="6.88381">
        <ele>2871.6</ele>
        <time>2015-03-24T10:45:37Z</time>
      </trkpt>
      <trkpt lat="44.59264" lon="6.88381">
        <ele>2870.63</ele>
        <time>2015-03-24T10:45:41Z</time>
      </trkpt>
      <trkpt lat="44.59265" lon="6.8838">
        <ele>2872.08</ele>
        <time>2015-03-24T10:45:56Z</time>
      </trkpt>
      <trkpt lat="44.59265" lon="6.88381">
        <ele>2870.63</ele>
        <time>2015-03-24T10:45:58Z</time>
      </trkpt>
      <trkpt lat="44.59265" lon="6.88381">
        <ele>2873.04</ele>
        <time>2015-03-24T10:46:08Z</time>
      </trkpt>
      <trkpt lat="44.59263" lon="6.8838">
        <ele>2872.56</ele>
        <time>2015-03-24T10:46:27Z</time>
      </trkpt>
      <trkpt lat="44.59263" lon="6.8838">
        <ele>2872.56</ele>
        <time>2015-03-24T10:46:28Z</time>
      </trkpt>
      <trkpt lat="44.59263" lon="6.8838">
        <ele>2871.11</ele>
        <time>2015-03-24T10:46:45Z</time>
      </trkpt>
      <trkpt lat="44.59263" lon="6.88381">
        <ele>2872.08</ele>
        <time>2015-03-24T10:47:03Z</time>
      </trkpt>
      <trkpt lat="44.59264" lon="6.8838">
        <ele>2872.56</ele>
        <time>2015-03-24T10:47:10Z</time>
      </trkpt>
      <trkpt lat="44.59264" lon="6.8838">
        <ele>2873.52</ele>
        <time>2015-03-24T10:47:21Z</time>
      </trkpt>
      <trkpt lat="44.59264" lon="6.88381">
        <ele>2871.11</ele>
        <time>2015-03-24T10:47:40Z</time>
      </trkpt>
      <trkpt lat="44.59264" lon="6.88381">
        <ele>2871.11</ele>
        <time>2015-03-24T10:47:41Z</time>
      </trkpt>
      <trkpt lat="44.59264" lon="6.88381">
        <ele>2872.08</ele>
        <time>2015-03-24T10:47:54Z</time>
      </trkpt>
      <trkpt lat="44.59264" lon="6.88381">
        <ele>2873.52</ele>
        <time>2015-03-24T10:48:12Z</time>
      </trkpt>
      <trkpt lat="44.59264" lon="6.88381">
        <ele>2871.6</ele>
        <time>2015-03-24T10:48:22Z</time>
      </trkpt>
      <trkpt lat="44.59263" lon="6.88381">
        <ele>2874</ele>
        <time>2015-03-24T10:48:28Z</time>
      </trkpt>
      <trkpt lat="44.59264" lon="6.88381">
        <ele>2872.56</ele>
        <time>2015-03-24T10:48:35Z</time>
      </trkpt>
      <trkpt lat="44.59266" lon="6.88385">
        <ele>2869.67</ele>
        <time>2015-03-24T10:48:43Z</time>
      </trkpt>
      <trkpt lat="44.5927" lon="6.88386">
        <ele>2872.08</ele>
        <time>2015-03-24T10:48:46Z</time>
      </trkpt>
      <trkpt lat="44.59279" lon="6.88387">
        <ele>2874</ele>
        <time>2015-03-24T10:48:52Z</time>
      </trkpt>
      <trkpt lat="44.59287" lon="6.88388">
        <ele>2871.6</ele>
        <time>2015-03-24T10:48:59Z</time>
      </trkpt>
      <trkpt lat="44.59294" lon="6.88392">
        <ele>2871.11</ele>
        <time>2015-03-24T10:49:16Z</time>
      </trkpt>
      <trkpt lat="44.59296" lon="6.88393">
        <ele>2873.52</ele>
        <time>2015-03-24T10:49:21Z</time>
      </trkpt>
      <trkpt lat="44.59306" lon="6.88398">
        <ele>2872.56</ele>
        <time>2015-03-24T10:49:37Z</time>
      </trkpt>
      <trkpt lat="44.5931" lon="6.884">
        <ele>2872.08</ele>
        <time>2015-03-24T10:49:41Z</time>
      </trkpt>
      <trkpt lat="44.59316" lon="6.88403">
        <ele>2872.08</ele>
        <time>2015-03-24T10:49:57Z</time>
      </trkpt>
      <trkpt lat="44.5932" lon="6.88405">
        <ele>2872.56</ele>
        <time>2015-03-24T10:50:14Z</time>
      </trkpt>
      <trkpt lat="44.5932" lon="6.88405">
        <ele>2874</ele>
        <time>2015-03-24T10:50:21Z</time>
      </trkpt>
      <trkpt lat="44.5932" lon="6.88405">
        <ele>2874</ele>
        <time>2015-03-24T10:50:51Z</time>
      </trkpt>
      <trkpt lat="44.59314" lon="6.88402">
        <ele>2874</ele>
        <time>2015-03-24T10:51:05Z</time>
      </trkpt>
      <trkpt lat="44.59305" lon="6.88396">
        <ele>2874.48</ele>
        <time>2015-03-24T10:51:17Z</time>
      </trkpt>
      <trkpt lat="44.59301" lon="6.88394">
        <ele>2873.04</ele>
        <time>2015-03-24T10:51:23Z</time>
      </trkpt>
      <trkpt lat="44.59284" lon="6.88387">
        <ele>2871.11</ele>
        <time>2015-03-24T10:51:35Z</time>
      </trkpt>
      <trkpt lat="44.59276" lon="6.88385">
        <ele>2872.08</ele>
        <time>2015-03-24T10:51:38Z</time>
      </trkpt>
      <trkpt lat="44.59267" lon="6.8838">
        <ele>2870.63</ele>
        <time>2015-03-24T10:51:47Z</time>
      </trkpt>
      <trkpt lat="44.59267" lon="6.88381">
        <ele>2870.15</ele>
        <time>2015-03-24T10:52:10Z</time>
      </trkpt>
      <trkpt lat="44.59267" lon="6.88381">
        <ele>2869.19</ele>
        <time>2015-03-24T10:52:29Z</time>
      </trkpt>
      <trkpt lat="44.59266" lon="6.88381">
        <ele>2869.19</ele>
        <time>2015-03-24T10:52:45Z</time>
      </trkpt>
      <trkpt lat="44.59267" lon="6.88381">
        <ele>2870.63</ele>
        <time>2015-03-24T10:52:53Z</time>
      </trkpt>
      <trkpt lat="44.59267" lon="6.88381">
        <ele>2869.19</ele>
        <time>2015-03-24T10:53:02Z</time>
      </trkpt>
      <trkpt lat="44.59267" lon="6.88381">
        <ele>2869.19</ele>
        <time>2015-03-24T10:53:24Z</time>
      </trkpt>
      <trkpt lat="44.59267" lon="6.8838">
        <ele>2870.63</ele>
        <time>2015-03-24T10:53:41Z</time>
      </trkpt>
      <trkpt lat="44.59267" lon="6.8838">
        <ele>2869.19</ele>
        <time>2015-03-24T10:53:50Z</time>
      </trkpt>
      <trkpt lat="44.59266" lon="6.8838">
        <ele>2870.15</ele>
        <time>2015-03-24T10:54:14Z</time>
      </trkpt>
      <trkpt lat="44.59265" lon="6.8838">
        <ele>2871.11</ele>
        <time>2015-03-24T10:54:30Z</time>
      </trkpt>
      <trkpt lat="44.59266" lon="6.8838">
        <ele>2871.11</ele>
        <time>2015-03-24T10:54:43Z</time>
      </trkpt>
      <trkpt lat="44.59265" lon="6.88381">
        <ele>2869.19</ele>
        <time>2015-03-24T10:55:05Z</time>
      </trkpt>
      <trkpt lat="44.59265" lon="6.8838">
        <ele>2870.63</ele>
        <time>2015-03-24T10:55:10Z</time>
      </trkpt>
      <trkpt lat="44.59265" lon="6.8838">
        <ele>2869.19</ele>
        <time>2015-03-24T10:55:13Z</time>
      </trkpt>
      <trkpt lat="44.59263" lon="6.88379">
        <ele>2869.19</ele>
        <time>2015-03-24T10:55:18Z</time>
      </trkpt>
      <trkpt lat="44.59256" lon="6.88371">
        <ele>2866.31</ele>
        <time>2015-03-24T10:55:24Z</time>
      </trkpt>
      <trkpt lat="44.59258" lon="6.8837">
        <ele>2864.87</ele>
        <time>2015-03-24T10:55:26Z</time>
      </trkpt>
      <trkpt lat="44.59262" lon="6.88367">
        <ele>2864.39</ele>
        <time>2015-03-24T10:55:42Z</time>
      </trkpt>
      <trkpt lat="44.59263" lon="6.88366">
        <ele>2864.39</ele>
        <time>2015-03-24T10:55:54Z</time>
      </trkpt>
      <trkpt lat="44.59261" lon="6.88364">
        <ele>2863.9</ele>
        <time>2015-03-24T10:56:16Z</time>
      </trkpt>
      <trkpt lat="44.59262" lon="6.88363">
        <ele>2863.9</ele>
        <time>2015-03-24T10:56:40Z</time>
      </trkpt>
      <trkpt lat="44.59262" lon="6.88364">
        <ele>2865.83</ele>
        <time>2015-03-24T10:56:59Z</time>
      </trkpt>
      <trkpt lat="44.59262" lon="6.88364">
        <ele>2864.39</ele>
        <time>2015-03-24T10:57:00Z</time>
      </trkpt>
      <trkpt lat="44.59261" lon="6.88366">
        <ele>2865.35</ele>
        <time>2015-03-24T10:57:10Z</time>
      </trkpt>
      <trkpt lat="44.59262" lon="6.88367">
        <ele>2865.35</ele>
        <time>2015-03-24T10:57:32Z</time>
      </trkpt>
      <trkpt lat="44.59263" lon="6.88368">
        <ele>2865.35</ele>
        <time>2015-03-24T10:57:55Z</time>
      </trkpt>
      <trkpt lat="44.59262" lon="6.88369">
        <ele>2865.35</ele>
        <time>2015-03-24T10:58:17Z</time>
      </trkpt>
      <trkpt lat="44.59263" lon="6.88369">
        <ele>2865.83</ele>
        <time>2015-03-24T10:58:42Z</time>
      </trkpt>
      <trkpt lat="44.59262" lon="6.88368">
        <ele>2865.83</ele>
        <time>2015-03-24T10:59:06Z</time>
      </trkpt>
      <trkpt lat="44.59262" lon="6.88369">
        <ele>2863.9</ele>
        <time>2015-03-24T10:59:26Z</time>
      </trkpt>
      <trkpt lat="44.59267" lon="6.88362">
        <ele>2862.94</ele>
        <time>2015-03-24T10:59:49Z</time>
      </trkpt>
      <trkpt lat="44.59269" lon="6.88359">
        <ele>2861.98</ele>
        <time>2015-03-24T10:59:50Z</time>
      </trkpt>
      <trkpt lat="44.5927" lon="6.88346">
        <ele>2858.14</ele>
        <time>2015-03-24T10:59:53Z</time>
      </trkpt>
      <trkpt lat="44.59271" lon="6.88338">
        <ele>2855.25</ele>
        <time>2015-03-24T10:59:56Z</time>
      </trkpt>
      <trkpt lat="44.59271" lon="6.88339">
        <ele>2856.69</ele>
        <time>2015-03-24T11:00:11Z</time>
      </trkpt>
      <trkpt lat="44.59272" lon="6.88339">
        <ele>2855.73</ele>
        <time>2015-03-24T11:00:17Z</time>
      </trkpt>
      <trkpt lat="44.59267" lon="6.88333">
        <ele>2853.81</ele>
        <time>2015-03-24T11:00:21Z</time>
      </trkpt>
      <trkpt lat="44.5925" lon="6.88328">
        <ele>2851.89</ele>
        <time>2015-03-24T11:00:36Z</time>
      </trkpt>
      <trkpt lat="44.59249" lon="6.88327">
        <ele>2851.41</ele>
        <time>2015-03-24T11:00:48Z</time>
      </trkpt>
      <trkpt lat="44.59251" lon="6.88315">
        <ele>2847.56</ele>
        <time>2015-03-24T11:00:53Z</time>
      </trkpt>
      <trkpt lat="44.59256" lon="6.8831">
        <ele>2847.08</ele>
        <time>2015-03-24T11:00:55Z</time>
      </trkpt>
      <trkpt lat="44.59253" lon="6.88301">
        <ele>2842.28</ele>
        <time>2015-03-24T11:00:58Z</time>
      </trkpt>
      <trkpt lat="44.59243" lon="6.88302">
        <ele>2839.39</ele>
        <time>2015-03-24T11:01:03Z</time>
      </trkpt>
      <trkpt lat="44.59239" lon="6.88303">
        <ele>2840.35</ele>
        <time>2015-03-24T11:01:12Z</time>
      </trkpt>
      <trkpt lat="44.59238" lon="6.88292">
        <ele>2837.47</ele>
        <time>2015-03-24T11:01:16Z</time>
      </trkpt>
      <trkpt lat="44.59238" lon="6.88285">
        <ele>2833.62</ele>
        <time>2015-03-24T11:01:18Z</time>
      </trkpt>
      <trkpt lat="44.59235" lon="6.88283">
        <ele>2830.74</ele>
        <time>2015-03-24T11:01:19Z</time>
      </trkpt>
      <trkpt lat="44.59231" lon="6.8827">
        <ele>2825.93</ele>
        <time>2015-03-24T11:01:23Z</time>
      </trkpt>
      <trkpt lat="44.59236" lon="6.88262">
        <ele>2824.01</ele>
        <time>2015-03-24T11:01:25Z</time>
      </trkpt>
      <trkpt lat="44.59249" lon="6.88244">
        <ele>2820.65</ele>
        <time>2015-03-24T11:01:32Z</time>
      </trkpt>
      <trkpt lat="44.59251" lon="6.88242">
        <ele>2820.16</ele>
        <time>2015-03-24T11:01:33Z</time>
      </trkpt>
      <trkpt lat="44.59246" lon="6.88235">
        <ele>2817.28</ele>
        <time>2015-03-24T11:01:36Z</time>
      </trkpt>
      <trkpt lat="44.59247" lon="6.88224">
        <ele>2812.47</ele>
        <time>2015-03-24T11:01:38Z</time>
      </trkpt>
      <trkpt lat="44.59251" lon="6.88219">
        <ele>2810.55</ele>
        <time>2015-03-24T11:01:40Z</time>
      </trkpt>
      <trkpt lat="44.59254" lon="6.88215">
        <ele>2810.55</ele>
        <time>2015-03-24T11:01:42Z</time>
      </trkpt>
      <trkpt lat="44.59246" lon="6.88212">
        <ele>2805.26</ele>
        <time>2015-03-24T11:01:46Z</time>
      </trkpt>
      <trkpt lat="44.59237" lon="6.88215">
        <ele>2803.82</ele>
        <time>2015-03-24T11:01:49Z</time>
      </trkpt>
      <trkpt lat="44.59216" lon="6.88226">
        <ele>2800.94</ele>
        <time>2015-03-24T11:01:56Z</time>
      </trkpt>
      <trkpt lat="44.59213" lon="6.88218">
        <ele>2796.61</ele>
        <time>2015-03-24T11:01:59Z</time>
      </trkpt>
      <trkpt lat="44.59207" lon="6.88211">
        <ele>2792.29</ele>
        <time>2015-03-24T11:02:02Z</time>
      </trkpt>
      <trkpt lat="44.59201" lon="6.882">
        <ele>2787.48</ele>
        <time>2015-03-24T11:02:05Z</time>
      </trkpt>
      <trkpt lat="44.59202" lon="6.88195">
        <ele>2786.52</ele>
        <time>2015-03-24T11:02:06Z</time>
      </trkpt>
      <trkpt lat="44.59194" lon="6.88182">
        <ele>2779.79</ele>
        <time>2015-03-24T11:02:10Z</time>
      </trkpt>
      <trkpt lat="44.59188" lon="6.88186">
        <ele>2779.31</ele>
        <time>2015-03-24T11:02:17Z</time>
      </trkpt>
      <trkpt lat="44.59188" lon="6.88186">
        <ele>2780.27</ele>
        <time>2015-03-24T11:02:30Z</time>
      </trkpt>
      <trkpt lat="44.59183" lon="6.88175">
        <ele>2774.98</ele>
        <time>2015-03-24T11:02:33Z</time>
      </trkpt>
      <trkpt lat="44.59182" lon="6.88165">
        <ele>2772.1</ele>
        <time>2015-03-24T11:02:35Z</time>
      </trkpt>
      <trkpt lat="44.59183" lon="6.88161">
        <ele>2772.1</ele>
        <time>2015-03-24T11:02:36Z</time>
      </trkpt>
      <trkpt lat="44.59177" lon="6.88158">
        <ele>2767.77</ele>
        <time>2015-03-24T11:02:38Z</time>
      </trkpt>
      <trkpt lat="44.59168" lon="6.88161">
        <ele>2765.85</ele>
        <time>2015-03-24T11:02:41Z</time>
      </trkpt>
      <trkpt lat="44.59157" lon="6.88154">
        <ele>2762.49</ele>
        <time>2015-03-24T11:02:46Z</time>
      </trkpt>
      <trkpt lat="44.59151" lon="6.88141">
        <ele>2758.16</ele>
        <time>2015-03-24T11:02:49Z</time>
      </trkpt>
      <trkpt lat="44.59145" lon="6.88144">
        <ele>2756.24</ele>
        <time>2015-03-24T11:02:51Z</time>
      </trkpt>
      <trkpt lat="44.5913" lon="6.88155">
        <ele>2753.83</ele>
        <time>2015-03-24T11:03:00Z</time>
      </trkpt>
      <trkpt lat="44.59125" lon="6.88161">
        <ele>2752.87</ele>
        <time>2015-03-24T11:03:02Z</time>
      </trkpt>
      <trkpt lat="44.59122" lon="6.88163">
        <ele>2752.87</ele>
        <time>2015-03-24T11:03:03Z</time>
      </trkpt>
      <trkpt lat="44.59114" lon="6.88155">
        <ele>2749.51</ele>
        <time>2015-03-24T11:03:06Z</time>
      </trkpt>
      <trkpt lat="44.59114" lon="6.8815">
        <ele>2748.07</ele>
        <time>2015-03-24T11:03:07Z</time>
      </trkpt>
      <trkpt lat="44.59107" lon="6.88141">
        <ele>2742.3</ele>
        <time>2015-03-24T11:03:11Z</time>
      </trkpt>
      <trkpt lat="44.59104" lon="6.88144">
        <ele>2742.3</ele>
        <time>2015-03-24T11:03:12Z</time>
      </trkpt>
      <trkpt lat="44.59098" lon="6.8815">
        <ele>2741.82</ele>
        <time>2015-03-24T11:03:15Z</time>
      </trkpt>
      <trkpt lat="44.59093" lon="6.88154">
        <ele>2740.86</ele>
        <time>2015-03-24T11:03:17Z</time>
      </trkpt>
      <trkpt lat="44.59086" lon="6.88141">
        <ele>2737.01</ele>
        <time>2015-03-24T11:03:20Z</time>
      </trkpt>
      <trkpt lat="44.59087" lon="6.88131">
        <ele>2734.61</ele>
        <time>2015-03-24T11:03:22Z</time>
      </trkpt>
      <trkpt lat="44.59084" lon="6.88123">
        <ele>2730.76</ele>
        <time>2015-03-24T11:03:25Z</time>
      </trkpt>
      <trkpt lat="44.59076" lon="6.88121">
        <ele>2727.88</ele>
        <time>2015-03-24T11:03:27Z</time>
      </trkpt>
      <trkpt lat="44.59071" lon="6.881">
        <ele>2724.51</ele>
        <time>2015-03-24T11:03:30Z</time>
      </trkpt>
      <trkpt lat="44.59073" lon="6.88093">
        <ele>2723.07</ele>
        <time>2015-03-24T11:03:32Z</time>
      </trkpt>
      <trkpt lat="44.59074" lon="6.88093">
        <ele>2723.55</ele>
        <time>2015-03-24T11:03:42Z</time>
      </trkpt>
      <trkpt lat="44.59064" lon="6.88085">
        <ele>2719.23</ele>
        <time>2015-03-24T11:03:46Z</time>
      </trkpt>
      <trkpt lat="44.59061" lon="6.88086">
        <ele>2719.23</ele>
        <time>2015-03-24T11:03:47Z</time>
      </trkpt>
      <trkpt lat="44.59051" lon="6.88068">
        <ele>2714.42</ele>
        <time>2015-03-24T11:03:51Z</time>
      </trkpt>
      <trkpt lat="44.59052" lon="6.88063">
        <ele>2714.42</ele>
        <time>2015-03-24T11:03:52Z</time>
      </trkpt>
      <trkpt lat="44.59059" lon="6.88057">
        <ele>2713.94</ele>
        <time>2015-03-24T11:03:56Z</time>
      </trkpt>
      <trkpt lat="44.59063" lon="6.88053">
        <ele>2712.02</ele>
        <time>2015-03-24T11:04:07Z</time>
      </trkpt>
      <trkpt lat="44.59063" lon="6.88053">
        <ele>2715.38</ele>
        <time>2015-03-24T11:04:11Z</time>
      </trkpt>
      <trkpt lat="44.59063" lon="6.88053">
        <ele>2713.46</ele>
        <time>2015-03-24T11:04:35Z</time>
      </trkpt>
      <trkpt lat="44.59063" lon="6.88053">
        <ele>2714.42</ele>
        <time>2015-03-24T11:04:48Z</time>
      </trkpt>
      <trkpt lat="44.59064" lon="6.88052">
        <ele>2714.42</ele>
        <time>2015-03-24T11:05:10Z</time>
      </trkpt>
      <trkpt lat="44.59063" lon="6.88053">
        <ele>2714.42</ele>
        <time>2015-03-24T11:05:36Z</time>
      </trkpt>
      <trkpt lat="44.59063" lon="6.88052">
        <ele>2714.42</ele>
        <time>2015-03-24T11:06:04Z</time>
      </trkpt>
      <trkpt lat="44.59063" lon="6.8805">
        <ele>2713.94</ele>
        <time>2015-03-24T11:06:31Z</time>
      </trkpt>
      <trkpt lat="44.59064" lon="6.88049">
        <ele>2713.46</ele>
        <time>2015-03-24T11:06:48Z</time>
      </trkpt>
      <trkpt lat="44.59064" lon="6.8805">
        <ele>2713.46</ele>
        <time>2015-03-24T11:07:20Z</time>
      </trkpt>
      <trkpt lat="44.59064" lon="6.8805">
        <ele>2713.46</ele>
        <time>2015-03-24T11:07:50Z</time>
      </trkpt>
      <trkpt lat="44.59065" lon="6.8805">
        <ele>2714.42</ele>
        <time>2015-03-24T11:08:12Z</time>
      </trkpt>
      <trkpt lat="44.59064" lon="6.8805">
        <ele>2713.46</ele>
        <time>2015-03-24T11:08:37Z</time>
      </trkpt>
      <trkpt lat="44.59064" lon="6.88049">
        <ele>2714.9</ele>
        <time>2015-03-24T11:08:58Z</time>
      </trkpt>
      <trkpt lat="44.59063" lon="6.88049">
        <ele>2713.46</ele>
        <time>2015-03-24T11:09:02Z</time>
      </trkpt>
      <trkpt lat="44.59063" lon="6.8805">
        <ele>2714.9</ele>
        <time>2015-03-24T11:09:19Z</time>
      </trkpt>
      <trkpt lat="44.59064" lon="6.88049">
        <ele>2713.46</ele>
        <time>2015-03-24T11:09:40Z</time>
      </trkpt>
      <trkpt lat="44.59064" lon="6.88049">
        <ele>2712.98</ele>
        <time>2015-03-24T11:10:03Z</time>
      </trkpt>
      <trkpt lat="44.59064" lon="6.88047">
        <ele>2712.98</ele>
        <time>2015-03-24T11:10:23Z</time>
      </trkpt>
      <trkpt lat="44.59064" lon="6.88047">
        <ele>2712.02</ele>
        <time>2015-03-24T11:10:47Z</time>
      </trkpt>
      <trkpt lat="44.59062" lon="6.88048">
        <ele>2713.46</ele>
        <time>2015-03-24T11:11:05Z</time>
      </trkpt>
      <trkpt lat="44.59057" lon="6.88048">
        <ele>2713.46</ele>
        <time>2015-03-24T11:11:21Z</time>
      </trkpt>
      <trkpt lat="44.59055" lon="6.88048">
        <ele>2713.46</ele>
        <time>2015-03-24T11:11:23Z</time>
      </trkpt>
      <trkpt lat="44.59046" lon="6.88052">
        <ele>2713.46</ele>
        <time>2015-03-24T11:11:40Z</time>
      </trkpt>
      <trkpt lat="44.59047" lon="6.88052">
        <ele>2713.46</ele>
        <time>2015-03-24T11:11:57Z</time>
      </trkpt>
      <trkpt lat="44.59047" lon="6.88051">
        <ele>2713.46</ele>
        <time>2015-03-24T11:12:05Z</time>
      </trkpt>
      <trkpt lat="44.59051" lon="6.88042">
        <ele>2712.5</ele>
        <time>2015-03-24T11:12:09Z</time>
      </trkpt>
      <trkpt lat="44.59056" lon="6.88031">
        <ele>2710.57</ele>
        <time>2015-03-24T11:12:13Z</time>
      </trkpt>
      <trkpt lat="44.59054" lon="6.88029">
        <ele>2708.65</ele>
        <time>2015-03-24T11:12:16Z</time>
      </trkpt>
      <trkpt lat="44.59051" lon="6.8803">
        <ele>2708.65</ele>
        <time>2015-03-24T11:12:36Z</time>
      </trkpt>
      <trkpt lat="44.59049" lon="6.8803">
        <ele>2707.69</ele>
        <time>2015-03-24T11:12:55Z</time>
      </trkpt>
      <trkpt lat="44.59045" lon="6.88031">
        <ele>2707.21</ele>
        <time>2015-03-24T11:13:11Z</time>
      </trkpt>
      <trkpt lat="44.59039" lon="6.88031">
        <ele>2706.25</ele>
        <time>2015-03-24T11:13:33Z</time>
      </trkpt>
      <trkpt lat="44.59039" lon="6.88019">
        <ele>2702.4</ele>
        <time>2015-03-24T11:13:36Z</time>
      </trkpt>
      <trkpt lat="44.59035" lon="6.88012">
        <ele>2698.56</ele>
        <time>2015-03-24T11:13:39Z</time>
      </trkpt>
      <trkpt lat="44.5903" lon="6.88014">
        <ele>2696.15</ele>
        <time>2015-03-24T11:13:42Z</time>
      </trkpt>
      <trkpt lat="44.59031" lon="6.88011">
        <ele>2696.15</ele>
        <time>2015-03-24T11:13:45Z</time>
      </trkpt>
      <trkpt lat="44.59032" lon="6.87995">
        <ele>2691.35</ele>
        <time>2015-03-24T11:13:49Z</time>
      </trkpt>
      <trkpt lat="44.59037" lon="6.87985">
        <ele>2687.98</ele>
        <time>2015-03-24T11:13:52Z</time>
      </trkpt>
      <trkpt lat="44.59032" lon="6.87975">
        <ele>2684.62</ele>
        <time>2015-03-24T11:13:55Z</time>
      </trkpt>
      <trkpt lat="44.5903" lon="6.87966">
        <ele>2680.77</ele>
        <time>2015-03-24T11:13:57Z</time>
      </trkpt>
      <trkpt lat="44.59024" lon="6.87962">
        <ele>2675.97</ele>
        <time>2015-03-24T11:13:59Z</time>
      </trkpt>
      <trkpt lat="44.59015" lon="6.87968">
        <ele>2674.04</ele>
        <time>2015-03-24T11:14:02Z</time>
      </trkpt>
      <trkpt lat="44.59012" lon="6.8797">
        <ele>2672.6</ele>
        <time>2015-03-24T11:14:03Z</time>
      </trkpt>
      <trkpt lat="44.59008" lon="6.87975">
        <ele>2672.12</ele>
        <time>2015-03-24T11:14:05Z</time>
      </trkpt>
      <trkpt lat="44.59003" lon="6.8798">
        <ele>2671.64</ele>
        <time>2015-03-24T11:14:07Z</time>
      </trkpt>
      <trkpt lat="44.58998" lon="6.87968">
        <ele>2665.87</ele>
        <time>2015-03-24T11:14:10Z</time>
      </trkpt>
      <trkpt lat="44.59" lon="6.87958">
        <ele>2664.43</ele>
        <time>2015-03-24T11:14:12Z</time>
      </trkpt>
      <trkpt lat="44.59002" lon="6.87951">
        <ele>2662.99</ele>
        <time>2015-03-24T11:14:14Z</time>
      </trkpt>
      <trkpt lat="44.58998" lon="6.87942">
        <ele>2659.14</ele>
        <time>2015-03-24T11:14:16Z</time>
      </trkpt>
      <trkpt lat="44.58996" lon="6.8793">
        <ele>2654.34</ele>
        <time>2015-03-24T11:14:18Z</time>
      </trkpt>
      <trkpt lat="44.59" lon="6.87925">
        <ele>2653.38</ele>
        <time>2015-03-24T11:14:20Z</time>
      </trkpt>
      <trkpt lat="44.59001" lon="6.87926">
        <ele>2653.86</ele>
        <time>2015-03-24T11:14:26Z</time>
      </trkpt>
      <trkpt lat="44.59003" lon="6.87918">
        <ele>2652.42</ele>
        <time>2015-03-24T11:14:29Z</time>
      </trkpt>
      <trkpt lat="44.59003" lon="6.87912">
        <ele>2650.97</ele>
        <time>2015-03-24T11:14:31Z</time>
      </trkpt>
      <trkpt lat="44.58995" lon="6.87909">
        <ele>2648.57</ele>
        <time>2015-03-24T11:14:34Z</time>
      </trkpt>
      <trkpt lat="44.5899" lon="6.87904">
        <ele>2646.65</ele>
        <time>2015-03-24T11:14:36Z</time>
      </trkpt>
      <trkpt lat="44.5899" lon="6.87896">
        <ele>2644.72</ele>
        <time>2015-03-24T11:14:38Z</time>
      </trkpt>
      <trkpt lat="44.58991" lon="6.8789">
        <ele>2644.24</ele>
        <time>2015-03-24T11:14:40Z</time>
      </trkpt>
      <trkpt lat="44.58984" lon="6.87883">
        <ele>2641.36</ele>
        <time>2015-03-24T11:14:44Z</time>
      </trkpt>
      <trkpt lat="44.58986" lon="6.87883">
        <ele>2642.8</ele>
        <time>2015-03-24T11:14:51Z</time>
      </trkpt>
      <trkpt lat="44.58985" lon="6.87884">
        <ele>2642.8</ele>
        <time>2015-03-24T11:15:12Z</time>
      </trkpt>
      <trkpt lat="44.58984" lon="6.87885">
        <ele>2641.84</ele>
        <time>2015-03-24T11:15:33Z</time>
      </trkpt>
      <trkpt lat="44.58983" lon="6.87886">
        <ele>2641.84</ele>
        <time>2015-03-24T11:15:49Z</time>
      </trkpt>
      <trkpt lat="44.58985" lon="6.87886">
        <ele>2641.84</ele>
        <time>2015-03-24T11:16:12Z</time>
      </trkpt>
      <trkpt lat="44.58981" lon="6.87888">
        <ele>2641.84</ele>
        <time>2015-03-24T11:16:28Z</time>
      </trkpt>
      <trkpt lat="44.58979" lon="6.8789">
        <ele>2641.84</ele>
        <time>2015-03-24T11:16:47Z</time>
      </trkpt>
      <trkpt lat="44.58969" lon="6.87905">
        <ele>2640.4</ele>
        <time>2015-03-24T11:17:02Z</time>
      </trkpt>
      <trkpt lat="44.58966" lon="6.8791">
        <ele>2639.92</ele>
        <time>2015-03-24T11:17:14Z</time>
      </trkpt>
      <trkpt lat="44.58964" lon="6.87914">
        <ele>2640.4</ele>
        <time>2015-03-24T11:17:29Z</time>
      </trkpt>
      <trkpt lat="44.58951" lon="6.87942">
        <ele>2637.51</ele>
        <time>2015-03-24T11:17:46Z</time>
      </trkpt>
      <trkpt lat="44.58938" lon="6.8796">
        <ele>2635.11</ele>
        <time>2015-03-24T11:17:53Z</time>
      </trkpt>
      <trkpt lat="44.58918" lon="6.87994">
        <ele>2633.19</ele>
        <time>2015-03-24T11:18:03Z</time>
      </trkpt>
      <trkpt lat="44.58905" lon="6.88013">
        <ele>2632.71</ele>
        <time>2015-03-24T11:18:14Z</time>
      </trkpt>
      <trkpt lat="44.58905" lon="6.88015">
        <ele>2633.19</ele>
        <time>2015-03-24T11:18:38Z</time>
      </trkpt>
      <trkpt lat="44.58904" lon="6.88018">
        <ele>2633.19</ele>
        <time>2015-03-24T11:19:03Z</time>
      </trkpt>
      <trkpt lat="44.58905" lon="6.88015">
        <ele>2633.19</ele>
        <time>2015-03-24T11:19:34Z</time>
      </trkpt>
      <trkpt lat="44.58904" lon="6.88015">
        <ele>2633.19</ele>
        <time>2015-03-24T11:19:52Z</time>
      </trkpt>
      <trkpt lat="44.58899" lon="6.88003">
        <ele>2629.34</ele>
        <time>2015-03-24T11:19:56Z</time>
      </trkpt>
      <trkpt lat="44.58893" lon="6.87996">
        <ele>2625.5</ele>
        <time>2015-03-24T11:19:58Z</time>
      </trkpt>
      <trkpt lat="44.58892" lon="6.8799">
        <ele>2625.02</ele>
        <time>2015-03-24T11:19:59Z</time>
      </trkpt>
      <trkpt lat="44.5889" lon="6.87986">
        <ele>2622.13</ele>
        <time>2015-03-24T11:20:00Z</time>
      </trkpt>
      <trkpt lat="44.58883" lon="6.87979">
        <ele>2618.29</ele>
        <time>2015-03-24T11:20:02Z</time>
      </trkpt>
      <trkpt lat="44.58883" lon="6.87967">
        <ele>2615.4</ele>
        <time>2015-03-24T11:20:04Z</time>
      </trkpt>
      <trkpt lat="44.58881" lon="6.87959">
        <ele>2613.96</ele>
        <time>2015-03-24T11:20:06Z</time>
      </trkpt>
      <trkpt lat="44.5887" lon="6.87945">
        <ele>2610.12</ele>
        <time>2015-03-24T11:20:09Z</time>
      </trkpt>
      <trkpt lat="44.58866" lon="6.8794">
        <ele>2608.19</ele>
        <time>2015-03-24T11:20:10Z</time>
      </trkpt>
      <trkpt lat="44.58856" lon="6.87926">
        <ele>2602.43</ele>
        <time>2015-03-24T11:20:13Z</time>
      </trkpt>
      <trkpt lat="44.58849" lon="6.87915">
        <ele>2597.62</ele>
        <time>2015-03-24T11:20:16Z</time>
      </trkpt>
      <trkpt lat="44.58848" lon="6.87916">
        <ele>2597.62</ele>
        <time>2015-03-24T11:20:17Z</time>
      </trkpt>
      <trkpt lat="44.58848" lon="6.87921">
        <ele>2597.62</ele>
        <time>2015-03-24T11:20:33Z</time>
      </trkpt>
      <trkpt lat="44.58848" lon="6.8792">
        <ele>2599.54</ele>
        <time>2015-03-24T11:20:36Z</time>
      </trkpt>
      <trkpt lat="44.58848" lon="6.8792">
        <ele>2599.54</ele>
        <time>2015-03-24T11:20:57Z</time>
      </trkpt>
      <trkpt lat="44.58849" lon="6.87921">
        <ele>2599.54</ele>
        <time>2015-03-24T11:21:18Z</time>
      </trkpt>
      <trkpt lat="44.58848" lon="6.87922">
        <ele>2599.54</ele>
        <time>2015-03-24T11:21:44Z</time>
      </trkpt>
      <trkpt lat="44.58848" lon="6.87922">
        <ele>2599.54</ele>
        <time>2015-03-24T11:22:07Z</time>
      </trkpt>
      <trkpt lat="44.58848" lon="6.87921">
        <ele>2599.54</ele>
        <time>2015-03-24T11:22:22Z</time>
      </trkpt>
      <trkpt lat="44.58848" lon="6.87921">
        <ele>2598.58</ele>
        <time>2015-03-24T11:22:49Z</time>
      </trkpt>
      <trkpt lat="44.58847" lon="6.87923">
        <ele>2598.58</ele>
        <time>2015-03-24T11:23:08Z</time>
      </trkpt>
      <trkpt lat="44.58846" lon="6.87921">
        <ele>2598.58</ele>
        <time>2015-03-24T11:23:35Z</time>
      </trkpt>
      <trkpt lat="44.58845" lon="6.87916">
        <ele>2598.1</ele>
        <time>2015-03-24T11:23:44Z</time>
      </trkpt>
      <trkpt lat="44.58838" lon="6.87888">
        <ele>2594.74</ele>
        <time>2015-03-24T11:23:51Z</time>
      </trkpt>
      <trkpt lat="44.58833" lon="6.87876">
        <ele>2592.81</ele>
        <time>2015-03-24T11:23:53Z</time>
      </trkpt>
      <trkpt lat="44.5883" lon="6.87863">
        <ele>2591.85</ele>
        <time>2015-03-24T11:23:55Z</time>
      </trkpt>
      <trkpt lat="44.58826" lon="6.87851">
        <ele>2589.93</ele>
        <time>2015-03-24T11:23:57Z</time>
      </trkpt>
      <trkpt lat="44.5882" lon="6.87836">
        <ele>2589.93</ele>
        <time>2015-03-24T11:24:00Z</time>
      </trkpt>
      <trkpt lat="44.58807" lon="6.87829">
        <ele>2588.01</ele>
        <time>2015-03-24T11:24:03Z</time>
      </trkpt>
      <trkpt lat="44.58803" lon="6.87821">
        <ele>2587.04</ele>
        <time>2015-03-24T11:24:09Z</time>
      </trkpt>
      <trkpt lat="44.58804" lon="6.8782">
        <ele>2586.56</ele>
        <time>2015-03-24T11:24:30Z</time>
      </trkpt>
      <trkpt lat="44.58804" lon="6.8782">
        <ele>2587.04</ele>
        <time>2015-03-24T11:24:52Z</time>
      </trkpt>
      <trkpt lat="44.58804" lon="6.8782">
        <ele>2587.04</ele>
        <time>2015-03-24T11:25:12Z</time>
      </trkpt>
      <trkpt lat="44.58804" lon="6.8782">
        <ele>2587.04</ele>
        <time>2015-03-24T11:25:33Z</time>
      </trkpt>
      <trkpt lat="44.58803" lon="6.87819">
        <ele>2587.04</ele>
        <time>2015-03-24T11:25:58Z</time>
      </trkpt>
      <trkpt lat="44.58803" lon="6.87822">
        <ele>2587.04</ele>
        <time>2015-03-24T11:26:27Z</time>
      </trkpt>
      <trkpt lat="44.58803" lon="6.87819">
        <ele>2587.04</ele>
        <time>2015-03-24T11:26:37Z</time>
      </trkpt>
      <trkpt lat="44.58793" lon="6.87811">
        <ele>2584.16</ele>
        <time>2015-03-24T11:26:42Z</time>
      </trkpt>
      <trkpt lat="44.58785" lon="6.87819">
        <ele>2580.32</ele>
        <time>2015-03-24T11:26:46Z</time>
      </trkpt>
      <trkpt lat="44.58784" lon="6.87821">
        <ele>2580.32</ele>
        <time>2015-03-24T11:26:47Z</time>
      </trkpt>
      <trkpt lat="44.58782" lon="6.87824">
        <ele>2580.32</ele>
        <time>2015-03-24T11:26:57Z</time>
      </trkpt>
      <trkpt lat="44.5878" lon="6.87824">
        <ele>2580.32</ele>
        <time>2015-03-24T11:27:17Z</time>
      </trkpt>
      <trkpt lat="44.58779" lon="6.87822">
        <ele>2580.32</ele>
        <time>2015-03-24T11:27:35Z</time>
      </trkpt>
      <trkpt lat="44.58779" lon="6.87821">
        <ele>2580.32</ele>
        <time>2015-03-24T11:27:58Z</time>
      </trkpt>
      <trkpt lat="44.5878" lon="6.87821">
        <ele>2580.32</ele>
        <time>2015-03-24T11:28:18Z</time>
      </trkpt>
      <trkpt lat="44.58778" lon="6.87807">
        <ele>2578.87</ele>
        <time>2015-03-24T11:28:22Z</time>
      </trkpt>
      <trkpt lat="44.58773" lon="6.87794">
        <ele>2576.95</ele>
        <time>2015-03-24T11:28:24Z</time>
      </trkpt>
      <trkpt lat="44.58761" lon="6.87759">
        <ele>2571.66</ele>
        <time>2015-03-24T11:28:29Z</time>
      </trkpt>
      <trkpt lat="44.58756" lon="6.87745">
        <ele>2568.78</ele>
        <time>2015-03-24T11:28:31Z</time>
      </trkpt>
      <trkpt lat="44.58753" lon="6.87738">
        <ele>2568.78</ele>
        <time>2015-03-24T11:28:32Z</time>
      </trkpt>
      <trkpt lat="44.58749" lon="6.87718">
        <ele>2565.9</ele>
        <time>2015-03-24T11:28:35Z</time>
      </trkpt>
      <trkpt lat="44.58747" lon="6.87702">
        <ele>2562.53</ele>
        <time>2015-03-24T11:28:37Z</time>
      </trkpt>
      <trkpt lat="44.58739" lon="6.87656">
        <ele>2556.76</ele>
        <time>2015-03-24T11:28:42Z</time>
      </trkpt>
      <trkpt lat="44.58735" lon="6.8762">
        <ele>2551.48</ele>
        <time>2015-03-24T11:28:46Z</time>
      </trkpt>
      <trkpt lat="44.58724" lon="6.87593">
        <ele>2547.63</ele>
        <time>2015-03-24T11:28:50Z</time>
      </trkpt>
      <trkpt lat="44.58721" lon="6.87591">
        <ele>2548.59</ele>
        <time>2015-03-24T11:28:51Z</time>
      </trkpt>
      <trkpt lat="44.58719" lon="6.87593">
        <ele>2550.03</ele>
        <time>2015-03-24T11:29:01Z</time>
      </trkpt>
      <trkpt lat="44.58718" lon="6.87595">
        <ele>2550.51</ele>
        <time>2015-03-24T11:29:19Z</time>
      </trkpt>
      <trkpt lat="44.58718" lon="6.87593">
        <ele>2550.51</ele>
        <time>2015-03-24T11:29:42Z</time>
      </trkpt>
      <trkpt lat="44.58717" lon="6.87593">
        <ele>2550.51</ele>
        <time>2015-03-24T11:30:07Z</time>
      </trkpt>
      <trkpt lat="44.58721" lon="6.87598">
        <ele>2549.55</ele>
        <time>2015-03-24T11:30:26Z</time>
      </trkpt>
      <trkpt lat="44.58721" lon="6.87599">
        <ele>2549.55</ele>
        <time>2015-03-24T11:30:47Z</time>
      </trkpt>
      <trkpt lat="44.58721" lon="6.87597">
        <ele>2549.55</ele>
        <time>2015-03-24T11:31:06Z</time>
      </trkpt>
      <trkpt lat="44.58723" lon="6.87597">
        <ele>2549.55</ele>
        <time>2015-03-24T11:31:25Z</time>
      </trkpt>
      <trkpt lat="44.58723" lon="6.87599">
        <ele>2550.51</ele>
        <time>2015-03-24T11:31:48Z</time>
      </trkpt>
      <trkpt lat="44.58723" lon="6.87598">
        <ele>2549.55</ele>
        <time>2015-03-24T11:32:15Z</time>
      </trkpt>
      <trkpt lat="44.58724" lon="6.87599">
        <ele>2549.55</ele>
        <time>2015-03-24T11:32:33Z</time>
      </trkpt>
      <trkpt lat="44.58722" lon="6.87598">
        <ele>2549.55</ele>
        <time>2015-03-24T11:32:50Z</time>
      </trkpt>
      <trkpt lat="44.5872" lon="6.87597">
        <ele>2549.55</ele>
        <time>2015-03-24T11:33:06Z</time>
      </trkpt>
      <trkpt lat="44.5872" lon="6.87596">
        <ele>2550.03</ele>
        <time>2015-03-24T11:33:08Z</time>
      </trkpt>
      <trkpt lat="44.58733" lon="6.87586">
        <ele>2546.67</ele>
        <time>2015-03-24T11:33:13Z</time>
      </trkpt>
      <trkpt lat="44.5874" lon="6.87581">
        <ele>2542.82</ele>
        <time>2015-03-24T11:33:15Z</time>
      </trkpt>
      <trkpt lat="44.58748" lon="6.87574">
        <ele>2540.42</ele>
        <time>2015-03-24T11:33:18Z</time>
      </trkpt>
      <trkpt lat="44.58744" lon="6.8755">
        <ele>2536.58</ele>
        <time>2015-03-24T11:33:23Z</time>
      </trkpt>
      <trkpt lat="44.58736" lon="6.87539">
        <ele>2535.61</ele>
        <time>2015-03-24T11:33:28Z</time>
      </trkpt>
      <trkpt lat="44.58738" lon="6.87531">
        <ele>2532.25</ele>
        <time>2015-03-24T11:33:32Z</time>
      </trkpt>
      <trkpt lat="44.58739" lon="6.8753">
        <ele>2532.73</ele>
        <time>2015-03-24T11:33:38Z</time>
      </trkpt>
      <trkpt lat="44.58734" lon="6.87518">
        <ele>2529.85</ele>
        <time>2015-03-24T11:33:43Z</time>
      </trkpt>
      <trkpt lat="44.58732" lon="6.87515">
        <ele>2529.37</ele>
        <time>2015-03-24T11:33:44Z</time>
      </trkpt>
      <trkpt lat="44.58731" lon="6.87513">
        <ele>2529.85</ele>
        <time>2015-03-24T11:33:45Z</time>
      </trkpt>
      <trkpt lat="44.58729" lon="6.87506">
        <ele>2528.4</ele>
        <time>2015-03-24T11:33:47Z</time>
      </trkpt>
      <trkpt lat="44.58729" lon="6.87497">
        <ele>2526.48</ele>
        <time>2015-03-24T11:33:50Z</time>
      </trkpt>
      <trkpt lat="44.58731" lon="6.87482">
        <ele>2522.16</ele>
        <time>2015-03-24T11:33:53Z</time>
      </trkpt>
      <trkpt lat="44.58732" lon="6.87472">
        <ele>2521.68</ele>
        <time>2015-03-24T11:34:07Z</time>
      </trkpt>
      <trkpt lat="44.58734" lon="6.87459">
        <ele>2520.23</ele>
        <time>2015-03-24T11:34:22Z</time>
      </trkpt>
      <trkpt lat="44.58735" lon="6.87451">
        <ele>2518.31</ele>
        <time>2015-03-24T11:34:29Z</time>
      </trkpt>
      <trkpt lat="44.58728" lon="6.87439">
        <ele>2513.98</ele>
        <time>2015-03-24T11:34:35Z</time>
      </trkpt>
      <trkpt lat="44.58727" lon="6.87432">
        <ele>2512.54</ele>
        <time>2015-03-24T11:34:37Z</time>
      </trkpt>
      <trkpt lat="44.5873" lon="6.87434">
        <ele>2511.58</ele>
        <time>2015-03-24T11:34:46Z</time>
      </trkpt>
      <trkpt lat="44.5873" lon="6.87434">
        <ele>2513.02</ele>
        <time>2015-03-24T11:34:59Z</time>
      </trkpt>
      <trkpt lat="44.58728" lon="6.87428">
        <ele>2511.58</ele>
        <time>2015-03-24T11:35:07Z</time>
      </trkpt>
      <trkpt lat="44.58723" lon="6.8741">
        <ele>2508.22</ele>
        <time>2015-03-24T11:35:11Z</time>
      </trkpt>
      <trkpt lat="44.58713" lon="6.87394">
        <ele>2505.81</ele>
        <time>2015-03-24T11:35:19Z</time>
      </trkpt>
      <trkpt lat="44.58706" lon="6.87387">
        <ele>2502.45</ele>
        <time>2015-03-24T11:35:21Z</time>
      </trkpt>
      <trkpt lat="44.58699" lon="6.87377">
        <ele>2501.49</ele>
        <time>2015-03-24T11:35:23Z</time>
      </trkpt>
      <trkpt lat="44.58696" lon="6.8737">
        <ele>2501.49</ele>
        <time>2015-03-24T11:35:25Z</time>
      </trkpt>
      <trkpt lat="44.58693" lon="6.87342">
        <ele>2499.08</ele>
        <time>2015-03-24T11:35:35Z</time>
      </trkpt>
      <trkpt lat="44.58693" lon="6.87338">
        <ele>2497.16</ele>
        <time>2015-03-24T11:35:36Z</time>
      </trkpt>
      <trkpt lat="44.5871" lon="6.87324">
        <ele>2488.99</ele>
        <time>2015-03-24T11:35:40Z</time>
      </trkpt>
      <trkpt lat="44.58723" lon="6.87318">
        <ele>2490.91</ele>
        <time>2015-03-24T11:35:43Z</time>
      </trkpt>
      <trkpt lat="44.58725" lon="6.87317">
        <ele>2490.91</ele>
        <time>2015-03-24T11:35:44Z</time>
      </trkpt>
      <trkpt lat="44.58737" lon="6.87298">
        <ele>2489.47</ele>
        <time>2015-03-24T11:35:53Z</time>
      </trkpt>
      <trkpt lat="44.58739" lon="6.8729">
        <ele>2488.51</ele>
        <time>2015-03-24T11:35:55Z</time>
      </trkpt>
      <trkpt lat="44.58748" lon="6.87268">
        <ele>2484.66</ele>
        <time>2015-03-24T11:35:59Z</time>
      </trkpt>
      <trkpt lat="44.58751" lon="6.87263">
        <ele>2484.66</ele>
        <time>2015-03-24T11:36:00Z</time>
      </trkpt>
      <trkpt lat="44.58763" lon="6.87215">
        <ele>2480.82</ele>
        <time>2015-03-24T11:36:08Z</time>
      </trkpt>
      <trkpt lat="44.58778" lon="6.87167">
        <ele>2477.45</ele>
        <time>2015-03-24T11:36:17Z</time>
      </trkpt>
      <trkpt lat="44.58786" lon="6.8715">
        <ele>2476.49</ele>
        <time>2015-03-24T11:36:27Z</time>
      </trkpt>
      <trkpt lat="44.58791" lon="6.87141">
        <ele>2475.53</ele>
        <time>2015-03-24T11:36:41Z</time>
      </trkpt>
      <trkpt lat="44.58799" lon="6.87129">
        <ele>2473.13</ele>
        <time>2015-03-24T11:36:46Z</time>
      </trkpt>
      <trkpt lat="44.58801" lon="6.87128">
        <ele>2472.17</ele>
        <time>2015-03-24T11:36:48Z</time>
      </trkpt>
      <trkpt lat="44.5881" lon="6.87127">
        <ele>2470.73</ele>
        <time>2015-03-24T11:36:54Z</time>
      </trkpt>
      <trkpt lat="44.5881" lon="6.87127">
        <ele>2470.73</ele>
        <time>2015-03-24T11:37:10Z</time>
      </trkpt>
      <trkpt lat="44.58822" lon="6.87119">
        <ele>2464.48</ele>
        <time>2015-03-24T11:37:14Z</time>
      </trkpt>
      <trkpt lat="44.58834" lon="6.87117">
        <ele>2460.63</ele>
        <time>2015-03-24T11:37:16Z</time>
      </trkpt>
      <trkpt lat="44.58849" lon="6.87114">
        <ele>2458.71</ele>
        <time>2015-03-24T11:37:18Z</time>
      </trkpt>
      <trkpt lat="44.58861" lon="6.8711">
        <ele>2457.27</ele>
        <time>2015-03-24T11:37:20Z</time>
      </trkpt>
      <trkpt lat="44.5888" lon="6.87086">
        <ele>2453.9</ele>
        <time>2015-03-24T11:37:26Z</time>
      </trkpt>
      <trkpt lat="44.58887" lon="6.87073">
        <ele>2451.02</ele>
        <time>2015-03-24T11:37:28Z</time>
      </trkpt>
      <trkpt lat="44.58888" lon="6.87068">
        <ele>2449.58</ele>
        <time>2015-03-24T11:37:29Z</time>
      </trkpt>
      <trkpt lat="44.58891" lon="6.8706">
        <ele>2448.62</ele>
        <time>2015-03-24T11:37:30Z</time>
      </trkpt>
      <trkpt lat="44.58894" lon="6.87053">
        <ele>2447.17</ele>
        <time>2015-03-24T11:37:31Z</time>
      </trkpt>
      <trkpt lat="44.58896" lon="6.87045">
        <ele>2445.25</ele>
        <time>2015-03-24T11:37:32Z</time>
      </trkpt>
      <trkpt lat="44.58897" lon="6.87037">
        <ele>2445.73</ele>
        <time>2015-03-24T11:37:33Z</time>
      </trkpt>
      <trkpt lat="44.589" lon="6.87021">
        <ele>2443.81</ele>
        <time>2015-03-24T11:37:35Z</time>
      </trkpt>
      <trkpt lat="44.58902" lon="6.87015">
        <ele>2443.81</ele>
        <time>2015-03-24T11:37:36Z</time>
      </trkpt>
      <trkpt lat="44.58903" lon="6.87008">
        <ele>2442.37</ele>
        <time>2015-03-24T11:37:37Z</time>
      </trkpt>
      <trkpt lat="44.58905" lon="6.87001">
        <ele>2440.92</ele>
        <time>2015-03-24T11:37:38Z</time>
      </trkpt>
      <trkpt lat="44.58906" lon="6.86994">
        <ele>2440.44</ele>
        <time>2015-03-24T11:37:39Z</time>
      </trkpt>
      <trkpt lat="44.58908" lon="6.86987">
        <ele>2439</ele>
        <time>2015-03-24T11:37:40Z</time>
      </trkpt>
      <trkpt lat="44.58909" lon="6.8698">
        <ele>2439</ele>
        <time>2015-03-24T11:37:41Z</time>
      </trkpt>
      <trkpt lat="44.58909" lon="6.86975">
        <ele>2438.04</ele>
        <time>2015-03-24T11:37:42Z</time>
      </trkpt>
      <trkpt lat="44.58908" lon="6.8697">
        <ele>2438.04</ele>
        <time>2015-03-24T11:37:43Z</time>
      </trkpt>
      <trkpt lat="44.58908" lon="6.86969">
        <ele>2437.56</ele>
        <time>2015-03-24T11:37:51Z</time>
      </trkpt>
      <trkpt lat="44.58909" lon="6.86968">
        <ele>2437.56</ele>
        <time>2015-03-24T11:38:10Z</time>
      </trkpt>
      <trkpt lat="44.58909" lon="6.86968">
        <ele>2437.56</ele>
        <time>2015-03-24T11:38:36Z</time>
      </trkpt>
      <trkpt lat="44.5891" lon="6.86968">
        <ele>2437.56</ele>
        <time>2015-03-24T11:39:05Z</time>
      </trkpt>
      <trkpt lat="44.58909" lon="6.86966">
        <ele>2438.04</ele>
        <time>2015-03-24T11:39:29Z</time>
      </trkpt>
      <trkpt lat="44.5891" lon="6.86967">
        <ele>2438.04</ele>
        <time>2015-03-24T11:39:50Z</time>
      </trkpt>
      <trkpt lat="44.58911" lon="6.86967">
        <ele>2437.56</ele>
        <time>2015-03-24T11:39:51Z</time>
      </trkpt>
      <trkpt lat="44.58916" lon="6.86972">
        <ele>2435.64</ele>
        <time>2015-03-24T11:39:54Z</time>
      </trkpt>
      <trkpt lat="44.58924" lon="6.86981">
        <ele>2433.71</ele>
        <time>2015-03-24T11:39:57Z</time>
      </trkpt>
      <trkpt lat="44.58931" lon="6.86989">
        <ele>2430.83</ele>
        <time>2015-03-24T11:40:00Z</time>
      </trkpt>
      <trkpt lat="44.5895" lon="6.86995">
        <ele>2423.14</ele>
        <time>2015-03-24T11:40:04Z</time>
      </trkpt>
      <trkpt lat="44.58956" lon="6.86993">
        <ele>2419.78</ele>
        <time>2015-03-24T11:40:05Z</time>
      </trkpt>
      <trkpt lat="44.58963" lon="6.86982">
        <ele>2415.45</ele>
        <time>2015-03-24T11:40:07Z</time>
      </trkpt>
      <trkpt lat="44.58976" lon="6.86963">
        <ele>2409.2</ele>
        <time>2015-03-24T11:40:11Z</time>
      </trkpt>
      <trkpt lat="44.58984" lon="6.86954">
        <ele>2405.84</ele>
        <time>2015-03-24T11:40:13Z</time>
      </trkpt>
      <trkpt lat="44.58995" lon="6.86934">
        <ele>2400.55</ele>
        <time>2015-03-24T11:40:16Z</time>
      </trkpt>
      <trkpt lat="44.59002" lon="6.86919">
        <ele>2394.78</ele>
        <time>2015-03-24T11:40:18Z</time>
      </trkpt>
      <trkpt lat="44.59005" lon="6.86904">
        <ele>2393.82</ele>
        <time>2015-03-24T11:40:20Z</time>
      </trkpt>
      <trkpt lat="44.59006" lon="6.86897">
        <ele>2392.86</ele>
        <time>2015-03-24T11:40:21Z</time>
      </trkpt>
      <trkpt lat="44.59007" lon="6.86892">
        <ele>2391.42</ele>
        <time>2015-03-24T11:40:22Z</time>
      </trkpt>
      <trkpt lat="44.59011" lon="6.86886">
        <ele>2389.01</ele>
        <time>2015-03-24T11:40:23Z</time>
      </trkpt>
      <trkpt lat="44.59015" lon="6.86881">
        <ele>2387.57</ele>
        <time>2015-03-24T11:40:24Z</time>
      </trkpt>
      <trkpt lat="44.59019" lon="6.86874">
        <ele>2385.65</ele>
        <time>2015-03-24T11:40:25Z</time>
      </trkpt>
      <trkpt lat="44.59023" lon="6.86866">
        <ele>2383.73</ele>
        <time>2015-03-24T11:40:26Z</time>
      </trkpt>
      <trkpt lat="44.59027" lon="6.86859">
        <ele>2380.84</ele>
        <time>2015-03-24T11:40:27Z</time>
      </trkpt>
      <trkpt lat="44.5903" lon="6.86851">
        <ele>2379.88</ele>
        <time>2015-03-24T11:40:28Z</time>
      </trkpt>
      <trkpt lat="44.59033" lon="6.86845">
        <ele>2378.44</ele>
        <time>2015-03-24T11:40:29Z</time>
      </trkpt>
      <trkpt lat="44.5904" lon="6.86831">
        <ele>2375.07</ele>
        <time>2015-03-24T11:40:31Z</time>
      </trkpt>
      <trkpt lat="44.59043" lon="6.86824">
        <ele>2372.67</ele>
        <time>2015-03-24T11:40:32Z</time>
      </trkpt>
      <trkpt lat="44.59046" lon="6.86819">
        <ele>2371.71</ele>
        <time>2015-03-24T11:40:33Z</time>
      </trkpt>
      <trkpt lat="44.5905" lon="6.86814">
        <ele>2371.23</ele>
        <time>2015-03-24T11:40:34Z</time>
      </trkpt>
      <trkpt lat="44.59053" lon="6.86807">
        <ele>2368.35</ele>
        <time>2015-03-24T11:40:35Z</time>
      </trkpt>
      <trkpt lat="44.59056" lon="6.86801">
        <ele>2366.9</ele>
        <time>2015-03-24T11:40:36Z</time>
      </trkpt>
      <trkpt lat="44.59061" lon="6.8679">
        <ele>2363.54</ele>
        <time>2015-03-24T11:40:38Z</time>
      </trkpt>
      <trkpt lat="44.5906" lon="6.86788">
        <ele>2363.06</ele>
        <time>2015-03-24T11:40:39Z</time>
      </trkpt>
      <trkpt lat="44.59058" lon="6.86792">
        <ele>2363.54</ele>
        <time>2015-03-24T11:40:54Z</time>
      </trkpt>
      <trkpt lat="44.59058" lon="6.86793">
        <ele>2363.54</ele>
        <time>2015-03-24T11:41:14Z</time>
      </trkpt>
      <trkpt lat="44.59059" lon="6.86794">
        <ele>2363.54</ele>
        <time>2015-03-24T11:41:37Z</time>
      </trkpt>
      <trkpt lat="44.59058" lon="6.86793">
        <ele>2363.54</ele>
        <time>2015-03-24T11:41:59Z</time>
      </trkpt>
      <trkpt lat="44.59058" lon="6.86793">
        <ele>2364.98</ele>
        <time>2015-03-24T11:42:15Z</time>
      </trkpt>
      <trkpt lat="44.59058" lon="6.86793">
        <ele>2364.02</ele>
        <time>2015-03-24T11:42:34Z</time>
      </trkpt>
      <trkpt lat="44.59058" lon="6.86793">
        <ele>2363.54</ele>
        <time>2015-03-24T11:42:52Z</time>
      </trkpt>
      <trkpt lat="44.59058" lon="6.86794">
        <ele>2363.54</ele>
        <time>2015-03-24T11:43:10Z</time>
      </trkpt>
      <trkpt lat="44.59058" lon="6.86792">
        <ele>2363.06</ele>
        <time>2015-03-24T11:43:30Z</time>
      </trkpt>
      <trkpt lat="44.59059" lon="6.86793">
        <ele>2363.06</ele>
        <time>2015-03-24T11:43:51Z</time>
      </trkpt>
      <trkpt lat="44.59059" lon="6.86793">
        <ele>2363.06</ele>
        <time>2015-03-24T11:44:12Z</time>
      </trkpt>
      <trkpt lat="44.59059" lon="6.86793">
        <ele>2363.06</ele>
        <time>2015-03-24T11:44:28Z</time>
      </trkpt>
      <trkpt lat="44.5906" lon="6.86793">
        <ele>2363.54</ele>
        <time>2015-03-24T11:44:55Z</time>
      </trkpt>
      <trkpt lat="44.5906" lon="6.86794">
        <ele>2363.54</ele>
        <time>2015-03-24T11:45:18Z</time>
      </trkpt>
      <trkpt lat="44.59059" lon="6.86793">
        <ele>2363.54</ele>
        <time>2015-03-24T11:45:39Z</time>
      </trkpt>
      <trkpt lat="44.5906" lon="6.86794">
        <ele>2363.54</ele>
        <time>2015-03-24T11:46:04Z</time>
      </trkpt>
      <trkpt lat="44.5906" lon="6.86794">
        <ele>2363.54</ele>
        <time>2015-03-24T11:46:29Z</time>
      </trkpt>
      <trkpt lat="44.5906" lon="6.86794">
        <ele>2363.54</ele>
        <time>2015-03-24T11:46:59Z</time>
      </trkpt>
      <trkpt lat="44.5906" lon="6.86794">
        <ele>2363.54</ele>
        <time>2015-03-24T11:47:21Z</time>
      </trkpt>
      <trkpt lat="44.5906" lon="6.86794">
        <ele>2363.54</ele>
        <time>2015-03-24T11:47:49Z</time>
      </trkpt>
      <trkpt lat="44.5906" lon="6.86794">
        <ele>2363.54</ele>
        <time>2015-03-24T11:48:15Z</time>
      </trkpt>
      <trkpt lat="44.5906" lon="6.86795">
        <ele>2363.54</ele>
        <time>2015-03-24T11:48:43Z</time>
      </trkpt>
      <trkpt lat="44.5906" lon="6.86794">
        <ele>2363.54</ele>
        <time>2015-03-24T11:49:08Z</time>
      </trkpt>
      <trkpt lat="44.5906" lon="6.86796">
        <ele>2364.02</ele>
        <time>2015-03-24T11:49:39Z</time>
      </trkpt>
      <trkpt lat="44.5906" lon="6.86795">
        <ele>2364.02</ele>
        <time>2015-03-24T11:50:01Z</time>
      </trkpt>
      <trkpt lat="44.5906" lon="6.86794">
        <ele>2364.02</ele>
        <time>2015-03-24T11:50:26Z</time>
      </trkpt>
      <trkpt lat="44.59059" lon="6.86794">
        <ele>2364.02</ele>
        <time>2015-03-24T11:50:43Z</time>
      </trkpt>
      <trkpt lat="44.59059" lon="6.86794">
        <ele>2364.02</ele>
        <time>2015-03-24T11:51:06Z</time>
      </trkpt>
      <trkpt lat="44.59059" lon="6.86794">
        <ele>2364.02</ele>
        <time>2015-03-24T11:51:28Z</time>
      </trkpt>
      <trkpt lat="44.59059" lon="6.86793">
        <ele>2364.02</ele>
        <time>2015-03-24T11:51:46Z</time>
      </trkpt>
      <trkpt lat="44.59059" lon="6.86793">
        <ele>2364.02</ele>
        <time>2015-03-24T11:52:07Z</time>
      </trkpt>
      <trkpt lat="44.5906" lon="6.86795">
        <ele>2364.02</ele>
        <time>2015-03-24T11:52:35Z</time>
      </trkpt>
      <trkpt lat="44.59059" lon="6.86795">
        <ele>2364.02</ele>
        <time>2015-03-24T11:53:00Z</time>
      </trkpt>
      <trkpt lat="44.5906" lon="6.86793">
        <ele>2364.02</ele>
        <time>2015-03-24T11:53:24Z</time>
      </trkpt>
      <trkpt lat="44.59059" lon="6.86793">
        <ele>2364.5</ele>
        <time>2015-03-24T11:53:49Z</time>
      </trkpt>
      <trkpt lat="44.59059" lon="6.86793">
        <ele>2365.46</ele>
        <time>2015-03-24T11:53:52Z</time>
      </trkpt>
      <trkpt lat="44.5906" lon="6.86794">
        <ele>2365.46</ele>
        <time>2015-03-24T11:54:19Z</time>
      </trkpt>
      <trkpt lat="44.59059" lon="6.86794">
        <ele>2365.46</ele>
        <time>2015-03-24T11:54:41Z</time>
      </trkpt>
      <trkpt lat="44.59059" lon="6.86793">
        <ele>2364.5</ele>
        <time>2015-03-24T11:55:10Z</time>
      </trkpt>
      <trkpt lat="44.59059" lon="6.86793">
        <ele>2366.42</ele>
        <time>2015-03-24T11:55:36Z</time>
      </trkpt>
      <trkpt lat="44.59059" lon="6.86794">
        <ele>2365.46</ele>
        <time>2015-03-24T11:55:44Z</time>
      </trkpt>
      <trkpt lat="44.59059" lon="6.86794">
        <ele>2365.46</ele>
        <time>2015-03-24T11:56:06Z</time>
      </trkpt>
      <trkpt lat="44.59059" lon="6.86794">
        <ele>2365.46</ele>
        <time>2015-03-24T11:56:31Z</time>
      </trkpt>
      <trkpt lat="44.59059" lon="6.86794">
        <ele>2365.46</ele>
        <time>2015-03-24T11:56:55Z</time>
      </trkpt>
      <trkpt lat="44.59059" lon="6.86794">
        <ele>2365.46</ele>
        <time>2015-03-24T11:57:19Z</time>
      </trkpt>
      <trkpt lat="44.59059" lon="6.86792">
        <ele>2366.9</ele>
        <time>2015-03-24T11:57:46Z</time>
      </trkpt>
      <trkpt lat="44.59058" lon="6.86793">
        <ele>2366.9</ele>
        <time>2015-03-24T11:58:11Z</time>
      </trkpt>
      <trkpt lat="44.59059" lon="6.86793">
        <ele>2367.38</ele>
        <time>2015-03-24T11:58:35Z</time>
      </trkpt>
      <trkpt lat="44.59059" lon="6.86795">
        <ele>2367.38</ele>
        <time>2015-03-24T11:59:02Z</time>
      </trkpt>
      <trkpt lat="44.59059" lon="6.86795">
        <ele>2367.38</ele>
        <time>2015-03-24T11:59:19Z</time>
      </trkpt>
      <trkpt lat="44.5906" lon="6.86796">
        <ele>2366.42</ele>
        <time>2015-03-24T11:59:42Z</time>
      </trkpt>
      <trkpt lat="44.5906" lon="6.86794">
        <ele>2368.35</ele>
        <time>2015-03-24T12:00:03Z</time>
      </trkpt>
      <trkpt lat="44.5906" lon="6.86794">
        <ele>2366.9</ele>
        <time>2015-03-24T12:00:05Z</time>
      </trkpt>
      <trkpt lat="44.59059" lon="6.86793">
        <ele>2366.9</ele>
        <time>2015-03-24T12:00:30Z</time>
      </trkpt>
      <trkpt lat="44.5906" lon="6.86793">
        <ele>2365.94</ele>
        <time>2015-03-24T12:00:56Z</time>
      </trkpt>
      <trkpt lat="44.59059" lon="6.86792">
        <ele>2365.94</ele>
        <time>2015-03-24T12:01:23Z</time>
      </trkpt>
      <trkpt lat="44.59059" lon="6.86793">
        <ele>2367.38</ele>
        <time>2015-03-24T12:01:45Z</time>
      </trkpt>
      <trkpt lat="44.59059" lon="6.86795">
        <ele>2368.35</ele>
        <time>2015-03-24T12:02:12Z</time>
      </trkpt>
      <trkpt lat="44.59059" lon="6.86795">
        <ele>2366.9</ele>
        <time>2015-03-24T12:02:15Z</time>
      </trkpt>
      <trkpt lat="44.59059" lon="6.86794">
        <ele>2366.42</ele>
        <time>2015-03-24T12:02:36Z</time>
      </trkpt>
      <trkpt lat="44.59058" lon="6.86793">
        <ele>2367.86</ele>
        <time>2015-03-24T12:02:53Z</time>
      </trkpt>
      <trkpt lat="44.59057" lon="6.86792">
        <ele>2367.86</ele>
        <time>2015-03-24T12:03:15Z</time>
      </trkpt>
      <trkpt lat="44.59056" lon="6.86792">
        <ele>2367.86</ele>
        <time>2015-03-24T12:03:33Z</time>
      </trkpt>
      <trkpt lat="44.59055" lon="6.86791">
        <ele>2368.35</ele>
        <time>2015-03-24T12:03:37Z</time>
      </trkpt>
      <trkpt lat="44.59055" lon="6.8679">
        <ele>2368.35</ele>
        <time>2015-03-24T12:03:38Z</time>
      </trkpt>
      <trkpt lat="44.59053" lon="6.86788">
        <ele>2366.9</ele>
        <time>2015-03-24T12:03:40Z</time>
      </trkpt>
      <trkpt lat="44.59051" lon="6.86787">
        <ele>2367.86</ele>
        <time>2015-03-24T12:03:57Z</time>
      </trkpt>
      <trkpt lat="44.59048" lon="6.86783">
        <ele>2367.86</ele>
        <time>2015-03-24T12:04:16Z</time>
      </trkpt>
      <trkpt lat="44.59048" lon="6.86782">
        <ele>2366.9</ele>
        <time>2015-03-24T12:04:32Z</time>
      </trkpt>
      <trkpt lat="44.59048" lon="6.86782">
        <ele>2367.38</ele>
        <time>2015-03-24T12:04:51Z</time>
      </trkpt>
      <trkpt lat="44.59047" lon="6.86782">
        <ele>2367.38</ele>
        <time>2015-03-24T12:04:52Z</time>
      </trkpt>
      <trkpt lat="44.59047" lon="6.86782">
        <ele>2367.86</ele>
        <time>2015-03-24T12:04:58Z</time>
      </trkpt>
      <trkpt lat="44.59047" lon="6.86782">
        <ele>2367.86</ele>
        <time>2015-03-24T12:05:26Z</time>
      </trkpt>
      <trkpt lat="44.59048" lon="6.86783">
        <ele>2367.86</ele>
        <time>2015-03-24T12:05:28Z</time>
      </trkpt>
      <trkpt lat="44.59052" lon="6.86784">
        <ele>2366.42</ele>
        <time>2015-03-24T12:05:43Z</time>
      </trkpt>
      <trkpt lat="44.59052" lon="6.86784">
        <ele>2366.42</ele>
        <time>2015-03-24T12:06:03Z</time>
      </trkpt>
      <trkpt lat="44.59052" lon="6.86784">
        <ele>2366.42</ele>
        <time>2015-03-24T12:06:31Z</time>
      </trkpt>
      <trkpt lat="44.59051" lon="6.86783">
        <ele>2366.42</ele>
        <time>2015-03-24T12:07:03Z</time>
      </trkpt>
      <trkpt lat="44.59052" lon="6.86783">
        <ele>2366.42</ele>
        <time>2015-03-24T12:07:20Z</time>
      </trkpt>
      <trkpt lat="44.59051" lon="6.86761">
        <ele>2362.58</ele>
        <time>2015-03-24T12:07:26Z</time>
      </trkpt>
      <trkpt lat="44.59052" lon="6.86747">
        <ele>2359.21</ele>
        <time>2015-03-24T12:07:28Z</time>
      </trkpt>
      <trkpt lat="44.59056" lon="6.86712">
        <ele>2351.04</ele>
        <time>2015-03-24T12:07:32Z</time>
      </trkpt>
      <trkpt lat="44.59057" lon="6.86695">
        <ele>2347.2</ele>
        <time>2015-03-24T12:07:34Z</time>
      </trkpt>
      <trkpt lat="44.59058" lon="6.86685">
        <ele>2342.87</ele>
        <time>2015-03-24T12:07:35Z</time>
      </trkpt>
      <trkpt lat="44.5906" lon="6.86677">
        <ele>2342.87</ele>
        <time>2015-03-24T12:07:36Z</time>
      </trkpt>
      <trkpt lat="44.59063" lon="6.86669">
        <ele>2339.02</ele>
        <time>2015-03-24T12:07:37Z</time>
      </trkpt>
      <trkpt lat="44.5907" lon="6.86654">
        <ele>2335.18</ele>
        <time>2015-03-24T12:07:39Z</time>
      </trkpt>
      <trkpt lat="44.59074" lon="6.86645">
        <ele>2331.81</ele>
        <time>2015-03-24T12:07:40Z</time>
      </trkpt>
      <trkpt lat="44.59083" lon="6.86638">
        <ele>2327.97</ele>
        <time>2015-03-24T12:07:42Z</time>
      </trkpt>
      <trkpt lat="44.59087" lon="6.86639">
        <ele>2327.49</ele>
        <time>2015-03-24T12:07:44Z</time>
      </trkpt>
      <trkpt lat="44.59088" lon="6.8664">
        <ele>2328.45</ele>
        <time>2015-03-24T12:07:47Z</time>
      </trkpt>
      <trkpt lat="44.59086" lon="6.86642">
        <ele>2328.45</ele>
        <time>2015-03-24T12:08:05Z</time>
      </trkpt>
      <trkpt lat="44.59086" lon="6.86641">
        <ele>2328.45</ele>
        <time>2015-03-24T12:08:10Z</time>
      </trkpt>
      <trkpt lat="44.59089" lon="6.86626">
        <ele>2325.57</ele>
        <time>2015-03-24T12:08:14Z</time>
      </trkpt>
      <trkpt lat="44.59096" lon="6.86608">
        <ele>2318.36</ele>
        <time>2015-03-24T12:08:17Z</time>
      </trkpt>
      <trkpt lat="44.59099" lon="6.86605">
        <ele>2318.36</ele>
        <time>2015-03-24T12:08:18Z</time>
      </trkpt>
      <trkpt lat="44.59099" lon="6.866">
        <ele>2315.95</ele>
        <time>2015-03-24T12:08:19Z</time>
      </trkpt>
      <trkpt lat="44.59099" lon="6.86595">
        <ele>2314.99</ele>
        <time>2015-03-24T12:08:20Z</time>
      </trkpt>
      <trkpt lat="44.59097" lon="6.86589">
        <ele>2311.15</ele>
        <time>2015-03-24T12:08:21Z</time>
      </trkpt>
      <trkpt lat="44.59094" lon="6.86585">
        <ele>2309.7</ele>
        <time>2015-03-24T12:08:22Z</time>
      </trkpt>
      <trkpt lat="44.59091" lon="6.86582">
        <ele>2308.26</ele>
        <time>2015-03-24T12:08:23Z</time>
      </trkpt>
      <trkpt lat="44.59089" lon="6.86581">
        <ele>2308.26</ele>
        <time>2015-03-24T12:08:24Z</time>
      </trkpt>
      <trkpt lat="44.59086" lon="6.86579">
        <ele>2308.26</ele>
        <time>2015-03-24T12:08:25Z</time>
      </trkpt>
      <trkpt lat="44.59082" lon="6.86576">
        <ele>2307.78</ele>
        <time>2015-03-24T12:08:26Z</time>
      </trkpt>
      <trkpt lat="44.59079" lon="6.86573">
        <ele>2307.3</ele>
        <time>2015-03-24T12:08:27Z</time>
      </trkpt>
      <trkpt lat="44.59082" lon="6.86565">
        <ele>2303.46</ele>
        <time>2015-03-24T12:08:29Z</time>
      </trkpt>
      <trkpt lat="44.59086" lon="6.86563">
        <ele>2302.49</ele>
        <time>2015-03-24T12:08:30Z</time>
      </trkpt>
      <trkpt lat="44.59088" lon="6.86561">
        <ele>2301.53</ele>
        <time>2015-03-24T12:08:31Z</time>
      </trkpt>
      <trkpt lat="44.59091" lon="6.86557">
        <ele>2300.57</ele>
        <time>2015-03-24T12:08:32Z</time>
      </trkpt>
      <trkpt lat="44.59095" lon="6.86553">
        <ele>2298.17</ele>
        <time>2015-03-24T12:08:33Z</time>
      </trkpt>
      <trkpt lat="44.59097" lon="6.86553">
        <ele>2297.21</ele>
        <time>2015-03-24T12:08:34Z</time>
      </trkpt>
      <trkpt lat="44.59097" lon="6.86552">
        <ele>2299.13</ele>
        <time>2015-03-24T12:08:38Z</time>
      </trkpt>
      <trkpt lat="44.59098" lon="6.8655">
        <ele>2298.17</ele>
        <time>2015-03-24T12:08:46Z</time>
      </trkpt>
      <trkpt lat="44.59099" lon="6.86547">
        <ele>2296.73</ele>
        <time>2015-03-24T12:08:59Z</time>
      </trkpt>
      <trkpt lat="44.59101" lon="6.86545">
        <ele>2296.25</ele>
        <time>2015-03-24T12:09:01Z</time>
      </trkpt>
      <trkpt lat="44.59102" lon="6.86545">
        <ele>2295.77</ele>
        <time>2015-03-24T12:09:02Z</time>
      </trkpt>
      <trkpt lat="44.59112" lon="6.86546">
        <ele>2293.36</ele>
        <time>2015-03-24T12:09:16Z</time>
      </trkpt>
      <trkpt lat="44.59123" lon="6.86549">
        <ele>2291.92</ele>
        <time>2015-03-24T12:09:35Z</time>
      </trkpt>
      <trkpt lat="44.59135" lon="6.86554">
        <ele>2290.96</ele>
        <time>2015-03-24T12:09:47Z</time>
      </trkpt>
      <trkpt lat="44.59147" lon="6.86559">
        <ele>2287.59</ele>
        <time>2015-03-24T12:09:58Z</time>
      </trkpt>
      <trkpt lat="44.59163" lon="6.86568">
        <ele>2283.27</ele>
        <time>2015-03-24T12:10:05Z</time>
      </trkpt>
      <trkpt lat="44.59171" lon="6.86574">
        <ele>2280.87</ele>
        <time>2015-03-24T12:10:08Z</time>
      </trkpt>
      <trkpt lat="44.59174" lon="6.86575">
        <ele>2279.42</ele>
        <time>2015-03-24T12:10:10Z</time>
      </trkpt>
      <trkpt lat="44.59179" lon="6.8658">
        <ele>2277.5</ele>
        <time>2015-03-24T12:10:13Z</time>
      </trkpt>
      <trkpt lat="44.59185" lon="6.86586">
        <ele>2276.06</ele>
        <time>2015-03-24T12:10:15Z</time>
      </trkpt>
      <trkpt lat="44.59189" lon="6.86592">
        <ele>2274.62</ele>
        <time>2015-03-24T12:10:18Z</time>
      </trkpt>
      <trkpt lat="44.59197" lon="6.86603">
        <ele>2271.73</ele>
        <time>2015-03-24T12:10:22Z</time>
      </trkpt>
      <trkpt lat="44.59198" lon="6.86605">
        <ele>2271.73</ele>
        <time>2015-03-24T12:10:23Z</time>
      </trkpt>
      <trkpt lat="44.59201" lon="6.86615">
        <ele>2270.29</ele>
        <time>2015-03-24T12:10:38Z</time>
      </trkpt>
      <trkpt lat="44.59201" lon="6.86617">
        <ele>2270.29</ele>
        <time>2015-03-24T12:10:40Z</time>
      </trkpt>
      <trkpt lat="44.59206" lon="6.86627">
        <ele>2267.41</ele>
        <time>2015-03-24T12:10:49Z</time>
      </trkpt>
      <trkpt lat="44.59208" lon="6.86631">
        <ele>2265</ele>
        <time>2015-03-24T12:10:53Z</time>
      </trkpt>
      <trkpt lat="44.59214" lon="6.86631">
        <ele>2262.12</ele>
        <time>2015-03-24T12:10:57Z</time>
      </trkpt>
      <trkpt lat="44.59216" lon="6.86629">
        <ele>2261.16</ele>
        <time>2015-03-24T12:10:58Z</time>
      </trkpt>
      <trkpt lat="44.59217" lon="6.86628">
        <ele>2261.16</ele>
        <time>2015-03-24T12:10:59Z</time>
      </trkpt>
      <trkpt lat="44.59218" lon="6.86626">
        <ele>2259.72</ele>
        <time>2015-03-24T12:11:00Z</time>
      </trkpt>
      <trkpt lat="44.59219" lon="6.86614">
        <ele>2257.79</ele>
        <time>2015-03-24T12:11:10Z</time>
      </trkpt>
      <trkpt lat="44.59219" lon="6.86601">
        <ele>2255.87</ele>
        <time>2015-03-24T12:11:18Z</time>
      </trkpt>
      <trkpt lat="44.59223" lon="6.86597">
        <ele>2254.43</ele>
        <time>2015-03-24T12:11:34Z</time>
      </trkpt>
      <trkpt lat="44.59227" lon="6.86602">
        <ele>2253.47</ele>
        <time>2015-03-24T12:11:56Z</time>
      </trkpt>
      <trkpt lat="44.59228" lon="6.86602">
        <ele>2253.47</ele>
        <time>2015-03-24T12:11:57Z</time>
      </trkpt>
      <trkpt lat="44.59228" lon="6.866">
        <ele>2250.58</ele>
        <time>2015-03-24T12:12:00Z</time>
      </trkpt>
      <trkpt lat="44.59229" lon="6.86597">
        <ele>2249.14</ele>
        <time>2015-03-24T12:12:03Z</time>
      </trkpt>
      <trkpt lat="44.5923" lon="6.86587">
        <ele>2245.78</ele>
        <time>2015-03-24T12:12:06Z</time>
      </trkpt>
      <trkpt lat="44.59231" lon="6.86588">
        <ele>2245.78</ele>
        <time>2015-03-24T12:12:07Z</time>
      </trkpt>
      <trkpt lat="44.59233" lon="6.86583">
        <ele>2246.26</ele>
        <time>2015-03-24T12:12:10Z</time>
      </trkpt>
      <trkpt lat="44.59235" lon="6.86579">
        <ele>2243.85</ele>
        <time>2015-03-24T12:12:13Z</time>
      </trkpt>
      <trkpt lat="44.59234" lon="6.86572">
        <ele>2238.09</ele>
        <time>2015-03-24T12:12:20Z</time>
      </trkpt>
      <trkpt lat="44.59228" lon="6.86567">
        <ele>2236.64</ele>
        <time>2015-03-24T12:12:25Z</time>
      </trkpt>
      <trkpt lat="44.59222" lon="6.86553">
        <ele>2233.76</ele>
        <time>2015-03-24T12:12:36Z</time>
      </trkpt>
      <trkpt lat="44.59221" lon="6.86547">
        <ele>2231.84</ele>
        <time>2015-03-24T12:12:39Z</time>
      </trkpt>
      <trkpt lat="44.59217" lon="6.8653">
        <ele>2228.95</ele>
        <time>2015-03-24T12:12:48Z</time>
      </trkpt>
      <trkpt lat="44.59216" lon="6.8653">
        <ele>2228.95</ele>
        <time>2015-03-24T12:12:49Z</time>
      </trkpt>
      <trkpt lat="44.59211" lon="6.86516">
        <ele>2226.55</ele>
        <time>2015-03-24T12:12:57Z</time>
      </trkpt>
      <trkpt lat="44.59209" lon="6.86507">
        <ele>2224.63</ele>
        <time>2015-03-24T12:13:01Z</time>
      </trkpt>
      <trkpt lat="44.59207" lon="6.86495">
        <ele>2221.74</ele>
        <time>2015-03-24T12:13:10Z</time>
      </trkpt>
      <trkpt lat="44.5921" lon="6.86492">
        <ele>2220.78</ele>
        <time>2015-03-24T12:13:12Z</time>
      </trkpt>
      <trkpt lat="44.5921" lon="6.86489">
        <ele>2218.38</ele>
        <time>2015-03-24T12:13:14Z</time>
      </trkpt>
      <trkpt lat="44.59213" lon="6.86485">
        <ele>2216.46</ele>
        <time>2015-03-24T12:13:27Z</time>
      </trkpt>
      <trkpt lat="44.59218" lon="6.86484">
        <ele>2214.53</ele>
        <time>2015-03-24T12:13:32Z</time>
      </trkpt>
      <trkpt lat="44.59221" lon="6.86483">
        <ele>2214.05</ele>
        <time>2015-03-24T12:13:45Z</time>
      </trkpt>
      <trkpt lat="44.59225" lon="6.8648">
        <ele>2213.57</ele>
        <time>2015-03-24T12:13:54Z</time>
      </trkpt>
      <trkpt lat="44.59228" lon="6.86481">
        <ele>2211.65</ele>
        <time>2015-03-24T12:13:57Z</time>
      </trkpt>
      <trkpt lat="44.59236" lon="6.86482">
        <ele>2210.21</ele>
        <time>2015-03-24T12:14:05Z</time>
      </trkpt>
      <trkpt lat="44.59235" lon="6.86477">
        <ele>2207.32</ele>
        <time>2015-03-24T12:14:09Z</time>
      </trkpt>
      <trkpt lat="44.59234" lon="6.86474">
        <ele>2205.88</ele>
        <time>2015-03-24T12:14:18Z</time>
      </trkpt>
      <trkpt lat="44.59233" lon="6.86472">
        <ele>2204.44</ele>
        <time>2015-03-24T12:14:20Z</time>
      </trkpt>
      <trkpt lat="44.59229" lon="6.86465">
        <ele>2201.08</ele>
        <time>2015-03-24T12:14:25Z</time>
      </trkpt>
      <trkpt lat="44.59227" lon="6.86461">
        <ele>2201.56</ele>
        <time>2015-03-24T12:14:35Z</time>
      </trkpt>
      <trkpt lat="44.59231" lon="6.8646">
        <ele>2198.19</ele>
        <time>2015-03-24T12:14:38Z</time>
      </trkpt>
      <trkpt lat="44.59235" lon="6.86455">
        <ele>2198.19</ele>
        <time>2015-03-24T12:14:57Z</time>
      </trkpt>
      <trkpt lat="44.59235" lon="6.8645">
        <ele>2195.79</ele>
        <time>2015-03-24T12:15:00Z</time>
      </trkpt>
      <trkpt lat="44.59239" lon="6.86447">
        <ele>2193.39</ele>
        <time>2015-03-24T12:15:05Z</time>
      </trkpt>
      <trkpt lat="44.59239" lon="6.86444">
        <ele>2190.5</ele>
        <time>2015-03-24T12:15:08Z</time>
      </trkpt>
      <trkpt lat="44.59237" lon="6.86436">
        <ele>2187.14</ele>
        <time>2015-03-24T12:15:22Z</time>
      </trkpt>
      <trkpt lat="44.59237" lon="6.86435">
        <ele>2187.14</ele>
        <time>2015-03-24T12:15:23Z</time>
      </trkpt>
      <trkpt lat="44.59234" lon="6.86426">
        <ele>2185.69</ele>
        <time>2015-03-24T12:15:28Z</time>
      </trkpt>
      <trkpt lat="44.59232" lon="6.86421">
        <ele>2183.77</ele>
        <time>2015-03-24T12:15:30Z</time>
      </trkpt>
      <trkpt lat="44.59232" lon="6.86416">
        <ele>2180.41</ele>
        <time>2015-03-24T12:15:32Z</time>
      </trkpt>
      <trkpt lat="44.59231" lon="6.86413">
        <ele>2180.89</ele>
        <time>2015-03-24T12:15:33Z</time>
      </trkpt>
      <trkpt lat="44.59231" lon="6.8641">
        <ele>2179.45</ele>
        <time>2015-03-24T12:15:34Z</time>
      </trkpt>
      <trkpt lat="44.59228" lon="6.86399">
        <ele>2178.48</ele>
        <time>2015-03-24T12:15:40Z</time>
      </trkpt>
      <trkpt lat="44.59227" lon="6.86391">
        <ele>2176.08</ele>
        <time>2015-03-24T12:15:43Z</time>
      </trkpt>
      <trkpt lat="44.59222" lon="6.86377">
        <ele>2174.16</ele>
        <time>2015-03-24T12:15:57Z</time>
      </trkpt>
      <trkpt lat="44.59222" lon="6.86373">
        <ele>2171.27</ele>
        <time>2015-03-24T12:16:09Z</time>
      </trkpt>
      <trkpt lat="44.59225" lon="6.86363">
        <ele>2167.91</ele>
        <time>2015-03-24T12:16:19Z</time>
      </trkpt>
      <trkpt lat="44.59224" lon="6.86363">
        <ele>2167.91</ele>
        <time>2015-03-24T12:16:20Z</time>
      </trkpt>
      <trkpt lat="44.59219" lon="6.8635">
        <ele>2166.47</ele>
        <time>2015-03-24T12:16:28Z</time>
      </trkpt>
      <trkpt lat="44.59216" lon="6.8634">
        <ele>2162.14</ele>
        <time>2015-03-24T12:16:37Z</time>
      </trkpt>
      <trkpt lat="44.59216" lon="6.8634">
        <ele>2162.14</ele>
        <time>2015-03-24T12:16:38Z</time>
      </trkpt>
      <trkpt lat="44.59221" lon="6.86339">
        <ele>2161.18</ele>
        <time>2015-03-24T12:16:57Z</time>
      </trkpt>
      <trkpt lat="44.59224" lon="6.86337">
        <ele>2158.78</ele>
        <time>2015-03-24T12:17:09Z</time>
      </trkpt>
      <trkpt lat="44.59223" lon="6.86333">
        <ele>2156.86</ele>
        <time>2015-03-24T12:17:15Z</time>
      </trkpt>
      <trkpt lat="44.5922" lon="6.86324">
        <ele>2154.45</ele>
        <time>2015-03-24T12:17:20Z</time>
      </trkpt>
      <trkpt lat="44.5922" lon="6.86323">
        <ele>2154.45</ele>
        <time>2015-03-24T12:17:21Z</time>
      </trkpt>
      <trkpt lat="44.59209" lon="6.86302">
        <ele>2151.57</ele>
        <time>2015-03-24T12:17:30Z</time>
      </trkpt>
      <trkpt lat="44.59207" lon="6.863">
        <ele>2151.57</ele>
        <time>2015-03-24T12:17:31Z</time>
      </trkpt>
      <trkpt lat="44.59205" lon="6.86287">
        <ele>2146.76</ele>
        <time>2015-03-24T12:17:42Z</time>
      </trkpt>
      <trkpt lat="44.59205" lon="6.86284">
        <ele>2146.76</ele>
        <time>2015-03-24T12:17:43Z</time>
      </trkpt>
      <trkpt lat="44.59203" lon="6.86275">
        <ele>2143.4</ele>
        <time>2015-03-24T12:17:46Z</time>
      </trkpt>
      <trkpt lat="44.59199" lon="6.86264">
        <ele>2141.95</ele>
        <time>2015-03-24T12:17:56Z</time>
      </trkpt>
      <trkpt lat="44.59196" lon="6.86255">
        <ele>2138.11</ele>
        <time>2015-03-24T12:17:59Z</time>
      </trkpt>
      <trkpt lat="44.59195" lon="6.86251">
        <ele>2135.23</ele>
        <time>2015-03-24T12:18:04Z</time>
      </trkpt>
      <trkpt lat="44.59195" lon="6.86249">
        <ele>2131.86</ele>
        <time>2015-03-24T12:18:06Z</time>
      </trkpt>
      <trkpt lat="44.59196" lon="6.86248">
        <ele>2132.34</ele>
        <time>2015-03-24T12:18:07Z</time>
      </trkpt>
      <trkpt lat="44.59194" lon="6.86237">
        <ele>2129.94</ele>
        <time>2015-03-24T12:18:15Z</time>
      </trkpt>
      <trkpt lat="44.59188" lon="6.86223">
        <ele>2128.02</ele>
        <time>2015-03-24T12:18:24Z</time>
      </trkpt>
      <trkpt lat="44.59188" lon="6.86212">
        <ele>2126.57</ele>
        <time>2015-03-24T12:18:27Z</time>
      </trkpt>
      <trkpt lat="44.59185" lon="6.86205">
        <ele>2124.17</ele>
        <time>2015-03-24T12:18:30Z</time>
      </trkpt>
      <trkpt lat="44.59182" lon="6.86199">
        <ele>2124.17</ele>
        <time>2015-03-24T12:18:36Z</time>
      </trkpt>
      <trkpt lat="44.59185" lon="6.86193">
        <ele>2121.29</ele>
        <time>2015-03-24T12:18:40Z</time>
      </trkpt>
      <trkpt lat="44.59186" lon="6.86194">
        <ele>2121.29</ele>
        <time>2015-03-24T12:18:41Z</time>
      </trkpt>
      <trkpt lat="44.5919" lon="6.86194">
        <ele>2116.48</ele>
        <time>2015-03-24T12:18:51Z</time>
      </trkpt>
      <trkpt lat="44.59191" lon="6.86185">
        <ele>2113.6</ele>
        <time>2015-03-24T12:18:55Z</time>
      </trkpt>
      <trkpt lat="44.59185" lon="6.86168">
        <ele>2110.23</ele>
        <time>2015-03-24T12:19:00Z</time>
      </trkpt>
      <trkpt lat="44.59184" lon="6.86165">
        <ele>2110.23</ele>
        <time>2015-03-24T12:19:01Z</time>
      </trkpt>
      <trkpt lat="44.59184" lon="6.86161">
        <ele>2105.91</ele>
        <time>2015-03-24T12:19:04Z</time>
      </trkpt>
      <trkpt lat="44.59183" lon="6.86146">
        <ele>2103.02</ele>
        <time>2015-03-24T12:19:08Z</time>
      </trkpt>
      <trkpt lat="44.59178" lon="6.8613">
        <ele>2100.62</ele>
        <time>2015-03-24T12:19:15Z</time>
      </trkpt>
      <trkpt lat="44.59177" lon="6.86124">
        <ele>2099.18</ele>
        <time>2015-03-24T12:19:18Z</time>
      </trkpt>
      <trkpt lat="44.59176" lon="6.86117">
        <ele>2097.25</ele>
        <time>2015-03-24T12:19:21Z</time>
      </trkpt>
      <trkpt lat="44.59167" lon="6.86099">
        <ele>2094.37</ele>
        <time>2015-03-24T12:19:32Z</time>
      </trkpt>
      <trkpt lat="44.59161" lon="6.86091">
        <ele>2091.49</ele>
        <time>2015-03-24T12:19:37Z</time>
      </trkpt>
      <trkpt lat="44.59158" lon="6.86087">
        <ele>2089.56</ele>
        <time>2015-03-24T12:19:49Z</time>
      </trkpt>
      <trkpt lat="44.59158" lon="6.86086">
        <ele>2089.56</ele>
        <time>2015-03-24T12:19:50Z</time>
      </trkpt>
      <trkpt lat="44.59157" lon="6.86078">
        <ele>2086.2</ele>
        <time>2015-03-24T12:20:02Z</time>
      </trkpt>
      <trkpt lat="44.59157" lon="6.86077">
        <ele>2085.72</ele>
        <time>2015-03-24T12:20:03Z</time>
      </trkpt>
      <trkpt lat="44.59154" lon="6.86068">
        <ele>2083.79</ele>
        <time>2015-03-24T12:20:20Z</time>
      </trkpt>
      <trkpt lat="44.59156" lon="6.8606">
        <ele>2082.83</ele>
        <time>2015-03-24T12:20:35Z</time>
      </trkpt>
      <trkpt lat="44.59157" lon="6.86059">
        <ele>2082.35</ele>
        <time>2015-03-24T12:20:38Z</time>
      </trkpt>
      <trkpt lat="44.5916" lon="6.86059">
        <ele>2080.91</ele>
        <time>2015-03-24T12:20:41Z</time>
      </trkpt>
      <trkpt lat="44.59166" lon="6.86055">
        <ele>2080.43</ele>
        <time>2015-03-24T12:20:50Z</time>
      </trkpt>
      <trkpt lat="44.59166" lon="6.86052">
        <ele>2078.51</ele>
        <time>2015-03-24T12:20:53Z</time>
      </trkpt>
      <trkpt lat="44.59162" lon="6.86045">
        <ele>2075.62</ele>
        <time>2015-03-24T12:21:05Z</time>
      </trkpt>
      <trkpt lat="44.59161" lon="6.86045">
        <ele>2075.62</ele>
        <time>2015-03-24T12:21:06Z</time>
      </trkpt>
      <trkpt lat="44.59162" lon="6.86041">
        <ele>2073.7</ele>
        <time>2015-03-24T12:21:18Z</time>
      </trkpt>
      <trkpt lat="44.59163" lon="6.86041">
        <ele>2073.22</ele>
        <time>2015-03-24T12:21:19Z</time>
      </trkpt>
      <trkpt lat="44.59168" lon="6.86038">
        <ele>2072.74</ele>
        <time>2015-03-24T12:21:34Z</time>
      </trkpt>
      <trkpt lat="44.59168" lon="6.86034">
        <ele>2070.34</ele>
        <time>2015-03-24T12:21:46Z</time>
      </trkpt>
      <trkpt lat="44.59167" lon="6.86028">
        <ele>2067.93</ele>
        <time>2015-03-24T12:21:54Z</time>
      </trkpt>
      <trkpt lat="44.59168" lon="6.86026">
        <ele>2066.49</ele>
        <time>2015-03-24T12:21:56Z</time>
      </trkpt>
      <trkpt lat="44.59166" lon="6.86015">
        <ele>2065.05</ele>
        <time>2015-03-24T12:22:11Z</time>
      </trkpt>
      <trkpt lat="44.59167" lon="6.86014">
        <ele>2064.57</ele>
        <time>2015-03-24T12:22:12Z</time>
      </trkpt>
      <trkpt lat="44.59174" lon="6.86011">
        <ele>2061.2</ele>
        <time>2015-03-24T12:22:25Z</time>
      </trkpt>
      <trkpt lat="44.59179" lon="6.86015">
        <ele>2059.76</ele>
        <time>2015-03-24T12:22:33Z</time>
      </trkpt>
      <trkpt lat="44.59188" lon="6.8602">
        <ele>2057.36</ele>
        <time>2015-03-24T12:22:38Z</time>
      </trkpt>
      <trkpt lat="44.59195" lon="6.86021">
        <ele>2056.4</ele>
        <time>2015-03-24T12:22:40Z</time>
      </trkpt>
      <trkpt lat="44.59203" lon="6.86022">
        <ele>2054.96</ele>
        <time>2015-03-24T12:22:44Z</time>
      </trkpt>
      <trkpt lat="44.59208" lon="6.86021">
        <ele>2053.51</ele>
        <time>2015-03-24T12:22:47Z</time>
      </trkpt>
      <trkpt lat="44.59215" lon="6.86021">
        <ele>2053.03</ele>
        <time>2015-03-24T12:22:51Z</time>
      </trkpt>
      <trkpt lat="44.59213" lon="6.86009">
        <ele>2048.23</ele>
        <time>2015-03-24T12:22:56Z</time>
      </trkpt>
      <trkpt lat="44.59211" lon="6.85999">
        <ele>2047.75</ele>
        <time>2015-03-24T12:23:03Z</time>
      </trkpt>
      <trkpt lat="44.59214" lon="6.85993">
        <ele>2045.34</ele>
        <time>2015-03-24T12:23:09Z</time>
      </trkpt>
      <trkpt lat="44.59215" lon="6.85985">
        <ele>2043.42</ele>
        <time>2015-03-24T12:23:15Z</time>
      </trkpt>
      <trkpt lat="44.59213" lon="6.85978">
        <ele>2041.02</ele>
        <time>2015-03-24T12:23:18Z</time>
      </trkpt>
      <trkpt lat="44.59215" lon="6.85972">
        <ele>2037.65</ele>
        <time>2015-03-24T12:23:24Z</time>
      </trkpt>
      <trkpt lat="44.59219" lon="6.85968">
        <ele>2036.21</ele>
        <time>2015-03-24T12:23:35Z</time>
      </trkpt>
      <trkpt lat="44.59221" lon="6.85965">
        <ele>2034.77</ele>
        <time>2015-03-24T12:23:38Z</time>
      </trkpt>
      <trkpt lat="44.5922" lon="6.85962">
        <ele>2033.33</ele>
        <time>2015-03-24T12:23:40Z</time>
      </trkpt>
      <trkpt lat="44.59225" lon="6.85959">
        <ele>2030.92</ele>
        <time>2015-03-24T12:23:50Z</time>
      </trkpt>
      <trkpt lat="44.59229" lon="6.8596">
        <ele>2029.48</ele>
        <time>2015-03-24T12:23:53Z</time>
      </trkpt>
      <trkpt lat="44.59248" lon="6.85962">
        <ele>2028.52</ele>
        <time>2015-03-24T12:24:08Z</time>
      </trkpt>
      <trkpt lat="44.59257" lon="6.85969">
        <ele>2026.6</ele>
        <time>2015-03-24T12:24:22Z</time>
      </trkpt>
      <trkpt lat="44.59267" lon="6.85977">
        <ele>2025.64</ele>
        <time>2015-03-24T12:24:29Z</time>
      </trkpt>
      <trkpt lat="44.59273" lon="6.85975">
        <ele>2023.71</ele>
        <time>2015-03-24T12:24:32Z</time>
      </trkpt>
      <trkpt lat="44.59278" lon="6.85972">
        <ele>2022.27</ele>
        <time>2015-03-24T12:24:35Z</time>
      </trkpt>
      <trkpt lat="44.5928" lon="6.85973">
        <ele>2022.27</ele>
        <time>2015-03-24T12:24:37Z</time>
      </trkpt>
      <trkpt lat="44.59284" lon="6.85978">
        <ele>2020.83</ele>
        <time>2015-03-24T12:24:39Z</time>
      </trkpt>
      <trkpt lat="44.59286" lon="6.8598">
        <ele>2020.83</ele>
        <time>2015-03-24T12:24:40Z</time>
      </trkpt>
      <trkpt lat="44.5929" lon="6.85984">
        <ele>2019.39</ele>
        <time>2015-03-24T12:24:42Z</time>
      </trkpt>
      <trkpt lat="44.59294" lon="6.85989">
        <ele>2017.94</ele>
        <time>2015-03-24T12:24:45Z</time>
      </trkpt>
      <trkpt lat="44.59299" lon="6.85991">
        <ele>2016.5</ele>
        <time>2015-03-24T12:24:48Z</time>
      </trkpt>
      <trkpt lat="44.59303" lon="6.85989">
        <ele>2014.1</ele>
        <time>2015-03-24T12:24:50Z</time>
      </trkpt>
      <trkpt lat="44.59305" lon="6.85988">
        <ele>2014.1</ele>
        <time>2015-03-24T12:24:51Z</time>
      </trkpt>
      <trkpt lat="44.59307" lon="6.85988">
        <ele>2013.14</ele>
        <time>2015-03-24T12:24:52Z</time>
      </trkpt>
      <trkpt lat="44.59309" lon="6.85988">
        <ele>2013.14</ele>
        <time>2015-03-24T12:24:53Z</time>
      </trkpt>
      <trkpt lat="44.59309" lon="6.85985">
        <ele>2011.7</ele>
        <time>2015-03-24T12:24:54Z</time>
      </trkpt>
      <trkpt lat="44.5931" lon="6.85983">
        <ele>2011.7</ele>
        <time>2015-03-24T12:24:55Z</time>
      </trkpt>
      <trkpt lat="44.59313" lon="6.85983">
        <ele>2010.25</ele>
        <time>2015-03-24T12:24:56Z</time>
      </trkpt>
      <trkpt lat="44.59315" lon="6.85983">
        <ele>2010.25</ele>
        <time>2015-03-24T12:24:57Z</time>
      </trkpt>
      <trkpt lat="44.59318" lon="6.85983">
        <ele>2008.33</ele>
        <time>2015-03-24T12:24:58Z</time>
      </trkpt>
      <trkpt lat="44.59321" lon="6.85981">
        <ele>2008.33</ele>
        <time>2015-03-24T12:24:59Z</time>
      </trkpt>
      <trkpt lat="44.59323" lon="6.8598">
        <ele>2006.89</ele>
        <time>2015-03-24T12:25:00Z</time>
      </trkpt>
      <trkpt lat="44.59324" lon="6.85978">
        <ele>2005.45</ele>
        <time>2015-03-24T12:25:01Z</time>
      </trkpt>
      <trkpt lat="44.59332" lon="6.85974">
        <ele>2002.56</ele>
        <time>2015-03-24T12:25:04Z</time>
      </trkpt>
      <trkpt lat="44.59335" lon="6.85972">
        <ele>2002.56</ele>
        <time>2015-03-24T12:25:05Z</time>
      </trkpt>
      <trkpt lat="44.59338" lon="6.8597">
        <ele>2000.64</ele>
        <time>2015-03-24T12:25:06Z</time>
      </trkpt>
      <trkpt lat="44.59344" lon="6.8596">
        <ele>1996.8</ele>
        <time>2015-03-24T12:25:09Z</time>
      </trkpt>
      <trkpt lat="44.59349" lon="6.85942">
        <ele>1992.47</ele>
        <time>2015-03-24T12:25:12Z</time>
      </trkpt>
      <trkpt lat="44.59355" lon="6.85933">
        <ele>1990.07</ele>
        <time>2015-03-24T12:25:14Z</time>
      </trkpt>
      <trkpt lat="44.59358" lon="6.85918">
        <ele>1986.22</ele>
        <time>2015-03-24T12:25:17Z</time>
      </trkpt>
      <trkpt lat="44.59356" lon="6.85908">
        <ele>1982.86</ele>
        <time>2015-03-24T12:25:18Z</time>
      </trkpt>
      <trkpt lat="44.59355" lon="6.85899">
        <ele>1982.86</ele>
        <time>2015-03-24T12:25:19Z</time>
      </trkpt>
      <trkpt lat="44.5935" lon="6.85877">
        <ele>1981.9</ele>
        <time>2015-03-24T12:25:24Z</time>
      </trkpt>
      <trkpt lat="44.59346" lon="6.85874">
        <ele>1982.86</ele>
        <time>2015-03-24T12:25:39Z</time>
      </trkpt>
      <trkpt lat="44.59346" lon="6.85873">
        <ele>1981.9</ele>
        <time>2015-03-24T12:26:04Z</time>
      </trkpt>
      <trkpt lat="44.59344" lon="6.85868">
        <ele>1980.93</ele>
        <time>2015-03-24T12:26:14Z</time>
      </trkpt>
      <trkpt lat="44.59347" lon="6.85865">
        <ele>1982.38</ele>
        <time>2015-03-24T12:26:26Z</time>
      </trkpt>
      <trkpt lat="44.59348" lon="6.85866">
        <ele>1982.86</ele>
        <time>2015-03-24T12:26:44Z</time>
      </trkpt>
      <trkpt lat="44.59349" lon="6.85865">
        <ele>1980.93</ele>
        <time>2015-03-24T12:26:46Z</time>
      </trkpt>
      <trkpt lat="44.59351" lon="6.85864">
        <ele>1981.9</ele>
        <time>2015-03-24T12:27:01Z</time>
      </trkpt>
      <trkpt lat="44.5935" lon="6.85863">
        <ele>1982.86</ele>
        <time>2015-03-24T12:27:21Z</time>
      </trkpt>
      <trkpt lat="44.59349" lon="6.85862">
        <ele>1981.41</ele>
        <time>2015-03-24T12:27:34Z</time>
      </trkpt>
      <trkpt lat="44.59347" lon="6.85864">
        <ele>1980.93</ele>
        <time>2015-03-24T12:28:01Z</time>
      </trkpt>
      <trkpt lat="44.59347" lon="6.85865">
        <ele>1982.38</ele>
        <time>2015-03-24T12:28:04Z</time>
      </trkpt>
      <trkpt lat="44.59342" lon="6.85863">
        <ele>1981.41</ele>
        <time>2015-03-24T12:28:24Z</time>
      </trkpt>
      <trkpt lat="44.59342" lon="6.85863">
        <ele>1982.38</ele>
        <time>2015-03-24T12:28:39Z</time>
      </trkpt>
      <trkpt lat="44.59345" lon="6.85863">
        <ele>1980.93</ele>
        <time>2015-03-24T12:28:58Z</time>
      </trkpt>
      <trkpt lat="44.59345" lon="6.85862">
        <ele>1980.93</ele>
        <time>2015-03-24T12:29:21Z</time>
      </trkpt>
      <trkpt lat="44.59348" lon="6.85863">
        <ele>1980.93</ele>
        <time>2015-03-24T12:29:46Z</time>
      </trkpt>
      <trkpt lat="44.59348" lon="6.85864">
        <ele>1982.38</ele>
        <time>2015-03-24T12:29:50Z</time>
      </trkpt>
      <trkpt lat="44.59344" lon="6.85864">
        <ele>1980.45</ele>
        <time>2015-03-24T12:30:14Z</time>
      </trkpt>
      <trkpt lat="44.59344" lon="6.85865">
        <ele>1980.45</ele>
        <time>2015-03-24T12:30:35Z</time>
      </trkpt>
      <trkpt lat="44.59346" lon="6.85867">
        <ele>1981.9</ele>
        <time>2015-03-24T12:30:55Z</time>
      </trkpt>
      <trkpt lat="44.59348" lon="6.85867">
        <ele>1981.9</ele>
        <time>2015-03-24T12:31:17Z</time>
      </trkpt>
      <trkpt lat="44.59345" lon="6.85867">
        <ele>1981.9</ele>
        <time>2015-03-24T12:31:37Z</time>
      </trkpt>
      <trkpt lat="44.59344" lon="6.85867">
        <ele>1980.93</ele>
        <time>2015-03-24T12:31:42Z</time>
      </trkpt>
      <trkpt lat="44.59344" lon="6.85865">
        <ele>1980.93</ele>
        <time>2015-03-24T12:32:10Z</time>
      </trkpt>
      <trkpt lat="44.59345" lon="6.85863">
        <ele>1982.38</ele>
        <time>2015-03-24T12:32:39Z</time>
      </trkpt>
      <trkpt lat="44.59348" lon="6.85862">
        <ele>1982.38</ele>
        <time>2015-03-24T12:33:06Z</time>
      </trkpt>
      <trkpt lat="44.59351" lon="6.85861">
        <ele>1982.86</ele>
        <time>2015-03-24T12:33:25Z</time>
      </trkpt>
      <trkpt lat="44.59351" lon="6.85847">
        <ele>1979.01</ele>
        <time>2015-03-24T12:33:29Z</time>
      </trkpt>
      <trkpt lat="44.59353" lon="6.85836">
        <ele>1977.57</ele>
        <time>2015-03-24T12:33:31Z</time>
      </trkpt>
      <trkpt lat="44.59354" lon="6.85824">
        <ele>1976.13</ele>
        <time>2015-03-24T12:33:33Z</time>
      </trkpt>
      <trkpt lat="44.59355" lon="6.85812">
        <ele>1972.76</ele>
        <time>2015-03-24T12:33:35Z</time>
      </trkpt>
      <trkpt lat="44.59352" lon="6.85803">
        <ele>1971.32</ele>
        <time>2015-03-24T12:33:37Z</time>
      </trkpt>
      <trkpt lat="44.59354" lon="6.85793">
        <ele>1969.4</ele>
        <time>2015-03-24T12:33:39Z</time>
      </trkpt>
      <trkpt lat="44.59356" lon="6.85787">
        <ele>1966.03</ele>
        <time>2015-03-24T12:33:40Z</time>
      </trkpt>
      <trkpt lat="44.59361" lon="6.85778">
        <ele>1965.07</ele>
        <time>2015-03-24T12:33:42Z</time>
      </trkpt>
      <trkpt lat="44.59358" lon="6.85769">
        <ele>1962.19</ele>
        <time>2015-03-24T12:33:44Z</time>
      </trkpt>
      <trkpt lat="44.5935" lon="6.85764">
        <ele>1960.75</ele>
        <time>2015-03-24T12:33:46Z</time>
      </trkpt>
      <trkpt lat="44.5934" lon="6.85759">
        <ele>1962.19</ele>
        <time>2015-03-24T12:33:49Z</time>
      </trkpt>
      <trkpt lat="44.59331" lon="6.85747">
        <ele>1962.19</ele>
        <time>2015-03-24T12:33:59Z</time>
      </trkpt>
      <trkpt lat="44.5932" lon="6.85735">
        <ele>1960.27</ele>
        <time>2015-03-24T12:34:08Z</time>
      </trkpt>
      <trkpt lat="44.59315" lon="6.85729">
        <ele>1959.78</ele>
        <time>2015-03-24T12:34:13Z</time>
      </trkpt>
      <trkpt lat="44.59323" lon="6.85713">
        <ele>1956.42</ele>
        <time>2015-03-24T12:34:17Z</time>
      </trkpt>
      <trkpt lat="44.59332" lon="6.85707">
        <ele>1954.98</ele>
        <time>2015-03-24T12:34:19Z</time>
      </trkpt>
      <trkpt lat="44.59337" lon="6.85704">
        <ele>1952.57</ele>
        <time>2015-03-24T12:34:20Z</time>
      </trkpt>
      <trkpt lat="44.59348" lon="6.85699">
        <ele>1951.61</ele>
        <time>2015-03-24T12:34:22Z</time>
      </trkpt>
      <trkpt lat="44.5936" lon="6.85696">
        <ele>1950.17</ele>
        <time>2015-03-24T12:34:24Z</time>
      </trkpt>
      <trkpt lat="44.59388" lon="6.85661">
        <ele>1946.81</ele>
        <time>2015-03-24T12:34:32Z</time>
      </trkpt>
      <trkpt lat="44.5939" lon="6.85653">
        <ele>1946.81</ele>
        <time>2015-03-24T12:34:34Z</time>
      </trkpt>
      <trkpt lat="44.59382" lon="6.85611">
        <ele>1945.85</ele>
        <time>2015-03-24T12:34:44Z</time>
      </trkpt>
      <trkpt lat="44.59377" lon="6.85583">
        <ele>1942.48</ele>
        <time>2015-03-24T12:34:50Z</time>
      </trkpt>
      <trkpt lat="44.59377" lon="6.85578">
        <ele>1942.48</ele>
        <time>2015-03-24T12:34:51Z</time>
      </trkpt>
      <trkpt lat="44.59377" lon="6.85558">
        <ele>1940.56</ele>
        <time>2015-03-24T12:34:54Z</time>
      </trkpt>
      <trkpt lat="44.59378" lon="6.85537">
        <ele>1939.6</ele>
        <time>2015-03-24T12:34:57Z</time>
      </trkpt>
      <trkpt lat="44.59379" lon="6.85517">
        <ele>1938.64</ele>
        <time>2015-03-24T12:35:00Z</time>
      </trkpt>
      <trkpt lat="44.59382" lon="6.85484">
        <ele>1938.16</ele>
        <time>2015-03-24T12:35:06Z</time>
      </trkpt>
      <trkpt lat="44.59383" lon="6.85466">
        <ele>1936.71</ele>
        <time>2015-03-24T12:35:09Z</time>
      </trkpt>
      <trkpt lat="44.59383" lon="6.85455">
        <ele>1936.71</ele>
        <time>2015-03-24T12:35:11Z</time>
      </trkpt>
      <trkpt lat="44.5938" lon="6.85435">
        <ele>1935.75</ele>
        <time>2015-03-24T12:35:19Z</time>
      </trkpt>
      <trkpt lat="44.59388" lon="6.85404">
        <ele>1933.83</ele>
        <time>2015-03-24T12:35:26Z</time>
      </trkpt>
      <trkpt lat="44.5939" lon="6.85398">
        <ele>1932.39</ele>
        <time>2015-03-24T12:35:27Z</time>
      </trkpt>
      <trkpt lat="44.59398" lon="6.85371">
        <ele>1929.5</ele>
        <time>2015-03-24T12:35:31Z</time>
      </trkpt>
      <trkpt lat="44.59405" lon="6.85339">
        <ele>1926.14</ele>
        <time>2015-03-24T12:35:35Z</time>
      </trkpt>
      <trkpt lat="44.59406" lon="6.85331">
        <ele>1926.14</ele>
        <time>2015-03-24T12:35:36Z</time>
      </trkpt>
      <trkpt lat="44.59408" lon="6.85315">
        <ele>1924.7</ele>
        <time>2015-03-24T12:35:38Z</time>
      </trkpt>
      <trkpt lat="44.59409" lon="6.85299">
        <ele>1921.81</ele>
        <time>2015-03-24T12:35:40Z</time>
      </trkpt>
      <trkpt lat="44.59409" lon="6.85291">
        <ele>1921.81</ele>
        <time>2015-03-24T12:35:41Z</time>
      </trkpt>
      <trkpt lat="44.5941" lon="6.85264">
        <ele>1920.37</ele>
        <time>2015-03-24T12:35:44Z</time>
      </trkpt>
      <trkpt lat="44.59411" lon="6.85254">
        <ele>1919.89</ele>
        <time>2015-03-24T12:35:45Z</time>
      </trkpt>
      <trkpt lat="44.59421" lon="6.85217">
        <ele>1916.04</ele>
        <time>2015-03-24T12:35:49Z</time>
      </trkpt>
      <trkpt lat="44.59423" lon="6.85209">
        <ele>1916.04</ele>
        <time>2015-03-24T12:35:50Z</time>
      </trkpt>
      <trkpt lat="44.59426" lon="6.85194">
        <ele>1917.49</ele>
        <time>2015-03-24T12:35:53Z</time>
      </trkpt>
      <trkpt lat="44.59429" lon="6.85176">
        <ele>1918.45</ele>
        <time>2015-03-24T12:36:05Z</time>
      </trkpt>
      <trkpt lat="44.59431" lon="6.85167">
        <ele>1918.45</ele>
        <time>2015-03-24T12:36:20Z</time>
      </trkpt>
      <trkpt lat="44.59435" lon="6.85155">
        <ele>1918.45</ele>
        <time>2015-03-24T12:36:32Z</time>
      </trkpt>
      <trkpt lat="44.59434" lon="6.8515">
        <ele>1917.01</ele>
        <time>2015-03-24T12:36:40Z</time>
      </trkpt>
      <trkpt lat="44.59427" lon="6.85145">
        <ele>1917.97</ele>
        <time>2015-03-24T12:36:54Z</time>
      </trkpt>
      <trkpt lat="44.59426" lon="6.85141">
        <ele>1916.53</ele>
        <time>2015-03-24T12:36:57Z</time>
      </trkpt>
      <trkpt lat="44.59425" lon="6.85139">
        <ele>1916.53</ele>
        <time>2015-03-24T12:36:58Z</time>
      </trkpt>
      <trkpt lat="44.59424" lon="6.85138">
        <ele>1916.53</ele>
        <time>2015-03-24T12:36:59Z</time>
      </trkpt>
      <trkpt lat="44.59423" lon="6.85135">
        <ele>1916.53</ele>
        <time>2015-03-24T12:37:00Z</time>
      </trkpt>
      <trkpt lat="44.59422" lon="6.85132">
        <ele>1916.53</ele>
        <time>2015-03-24T12:37:01Z</time>
      </trkpt>
      <trkpt lat="44.59413" lon="6.85092">
        <ele>1916.04</ele>
        <time>2015-03-24T12:37:11Z</time>
      </trkpt>
      <trkpt lat="44.59406" lon="6.85045">
        <ele>1915.08</ele>
        <time>2015-03-24T12:37:21Z</time>
      </trkpt>
      <trkpt lat="44.594" lon="6.85003">
        <ele>1914.6</ele>
        <time>2015-03-24T12:37:34Z</time>
      </trkpt>
      <trkpt lat="44.59397" lon="6.84996">
        <ele>1914.12</ele>
        <time>2015-03-24T12:37:41Z</time>
      </trkpt>
      <trkpt lat="44.59396" lon="6.84995">
        <ele>1914.12</ele>
        <time>2015-03-24T12:37:42Z</time>
      </trkpt>
      <trkpt lat="44.59396" lon="6.84993">
        <ele>1914.12</ele>
        <time>2015-03-24T12:37:43Z</time>
      </trkpt>
      <trkpt lat="44.59393" lon="6.84978">
        <ele>1916.04</ele>
        <time>2015-03-24T12:37:55Z</time>
      </trkpt>
      <trkpt lat="44.5939" lon="6.84965">
        <ele>1914.6</ele>
        <time>2015-03-24T12:38:05Z</time>
      </trkpt>
      <trkpt lat="44.5939" lon="6.84963">
        <ele>1914.6</ele>
        <time>2015-03-24T12:38:06Z</time>
      </trkpt>
      <trkpt lat="44.5939" lon="6.84961">
        <ele>1914.6</ele>
        <time>2015-03-24T12:38:07Z</time>
      </trkpt>
      <trkpt lat="44.59389" lon="6.84959">
        <ele>1914.6</ele>
        <time>2015-03-24T12:38:08Z</time>
      </trkpt>
      <trkpt lat="44.59389" lon="6.84957">
        <ele>1914.6</ele>
        <time>2015-03-24T12:38:09Z</time>
      </trkpt>
      <trkpt lat="44.59388" lon="6.84955">
        <ele>1914.6</ele>
        <time>2015-03-24T12:38:10Z</time>
      </trkpt>
      <trkpt lat="44.59388" lon="6.84952">
        <ele>1914.6</ele>
        <time>2015-03-24T12:38:11Z</time>
      </trkpt>
      <trkpt lat="44.59387" lon="6.8495">
        <ele>1914.6</ele>
        <time>2015-03-24T12:38:12Z</time>
      </trkpt>
      <trkpt lat="44.59387" lon="6.84948">
        <ele>1915.56</ele>
        <time>2015-03-24T12:38:13Z</time>
      </trkpt>
      <trkpt lat="44.59387" lon="6.84946">
        <ele>1916.04</ele>
        <time>2015-03-24T12:38:14Z</time>
      </trkpt>
      <trkpt lat="44.59386" lon="6.84944">
        <ele>1915.56</ele>
        <time>2015-03-24T12:38:15Z</time>
      </trkpt>
      <trkpt lat="44.59385" lon="6.84942">
        <ele>1916.04</ele>
        <time>2015-03-24T12:38:16Z</time>
      </trkpt>
      <trkpt lat="44.59384" lon="6.8494">
        <ele>1916.04</ele>
        <time>2015-03-24T12:38:17Z</time>
      </trkpt>
      <trkpt lat="44.59384" lon="6.84938">
        <ele>1916.04</ele>
        <time>2015-03-24T12:38:18Z</time>
      </trkpt>
      <trkpt lat="44.59383" lon="6.84936">
        <ele>1916.53</ele>
        <time>2015-03-24T12:38:19Z</time>
      </trkpt>
      <trkpt lat="44.59383" lon="6.84934">
        <ele>1916.53</ele>
        <time>2015-03-24T12:38:20Z</time>
      </trkpt>
      <trkpt lat="44.59382" lon="6.84932">
        <ele>1916.53</ele>
        <time>2015-03-24T12:38:21Z</time>
      </trkpt>
      <trkpt lat="44.59382" lon="6.8493">
        <ele>1916.53</ele>
        <time>2015-03-24T12:38:22Z</time>
      </trkpt>
      <trkpt lat="44.59382" lon="6.84928">
        <ele>1916.53</ele>
        <time>2015-03-24T12:38:23Z</time>
      </trkpt>
      <trkpt lat="44.59382" lon="6.84926">
        <ele>1916.53</ele>
        <time>2015-03-24T12:38:24Z</time>
      </trkpt>
      <trkpt lat="44.59382" lon="6.84923">
        <ele>1917.49</ele>
        <time>2015-03-24T12:38:37Z</time>
      </trkpt>
      <trkpt lat="44.59382" lon="6.84923">
        <ele>1915.56</ele>
        <time>2015-03-24T12:38:43Z</time>
      </trkpt>
      <trkpt lat="44.59381" lon="6.8492">
        <ele>1917.49</ele>
        <time>2015-03-24T12:39:00Z</time>
      </trkpt>
      <trkpt lat="44.59381" lon="6.8492">
        <ele>1917.49</ele>
        <time>2015-03-24T12:39:07Z</time>
      </trkpt>
      <trkpt lat="44.5938" lon="6.8492">
        <ele>1916.53</ele>
        <time>2015-03-24T12:39:14Z</time>
      </trkpt>
      <trkpt lat="44.59378" lon="6.84915">
        <ele>1917.49</ele>
        <time>2015-03-24T12:39:25Z</time>
      </trkpt>
      <trkpt lat="44.59377" lon="6.8491">
        <ele>1916.53</ele>
        <time>2015-03-24T12:39:29Z</time>
      </trkpt>
      <trkpt lat="44.5937" lon="6.84885">
        <ele>1918.45</ele>
        <time>2015-03-24T12:39:45Z</time>
      </trkpt>
      <trkpt lat="44.59365" lon="6.8487">
        <ele>1917.97</ele>
        <time>2015-03-24T12:40:00Z</time>
      </trkpt>
      <trkpt lat="44.5936" lon="6.84859">
        <ele>1919.41</ele>
        <time>2015-03-24T12:40:12Z</time>
      </trkpt>
      <trkpt lat="44.59354" lon="6.84843">
        <ele>1920.85</ele>
        <time>2015-03-24T12:40:27Z</time>
      </trkpt>
      <trkpt lat="44.59349" lon="6.84832">
        <ele>1922.29</ele>
        <time>2015-03-24T12:40:41Z</time>
      </trkpt>
      <trkpt lat="44.59345" lon="6.84817">
        <ele>1923.74</ele>
        <time>2015-03-24T12:40:59Z</time>
      </trkpt>
      <trkpt lat="44.59342" lon="6.84802">
        <ele>1924.7</ele>
        <time>2015-03-24T12:41:13Z</time>
      </trkpt>
      <trkpt lat="44.59345" lon="6.84791">
        <ele>1925.66</ele>
        <time>2015-03-24T12:41:27Z</time>
      </trkpt>
      <trkpt lat="44.59347" lon="6.84791">
        <ele>1927.1</ele>
        <time>2015-03-24T12:41:40Z</time>
      </trkpt>
      <trkpt lat="44.59348" lon="6.84793">
        <ele>1926.14</ele>
        <time>2015-03-24T12:41:51Z</time>
      </trkpt>
      <trkpt lat="44.5935" lon="6.84794">
        <ele>1927.1</ele>
        <time>2015-03-24T12:42:06Z</time>
      </trkpt>
      <trkpt lat="44.59348" lon="6.84793">
        <ele>1925.66</ele>
        <time>2015-03-24T12:42:16Z</time>
      </trkpt>
      <trkpt lat="44.59348" lon="6.84792">
        <ele>1927.1</ele>
        <time>2015-03-24T12:42:19Z</time>
      </trkpt>
      <trkpt lat="44.59348" lon="6.84792">
        <ele>1927.58</ele>
        <time>2015-03-24T12:42:41Z</time>
      </trkpt>
      <trkpt lat="44.59353" lon="6.84786">
        <ele>1928.54</ele>
        <time>2015-03-24T12:42:55Z</time>
      </trkpt>
      <trkpt lat="44.59349" lon="6.84779">
        <ele>1927.58</ele>
        <time>2015-03-24T12:43:07Z</time>
      </trkpt>
      <trkpt lat="44.59343" lon="6.84776">
        <ele>1927.1</ele>
        <time>2015-03-24T12:43:23Z</time>
      </trkpt>
      <trkpt lat="44.59348" lon="6.84785">
        <ele>1927.1</ele>
        <time>2015-03-24T12:43:35Z</time>
      </trkpt>
      <trkpt lat="44.59349" lon="6.84787">
        <ele>1928.54</ele>
        <time>2015-03-24T12:43:37Z</time>
      </trkpt>
      <trkpt lat="44.5935" lon="6.84789">
        <ele>1928.54</ele>
        <time>2015-03-24T12:43:52Z</time>
      </trkpt>
      <trkpt lat="44.59351" lon="6.84789">
        <ele>1928.54</ele>
        <time>2015-03-24T12:44:10Z</time>
      </trkpt>
      <trkpt lat="44.59349" lon="6.84787">
        <ele>1927.58</ele>
        <time>2015-03-24T12:44:26Z</time>
      </trkpt>
      <trkpt lat="44.59349" lon="6.84789">
        <ele>1928.06</ele>
        <time>2015-03-24T12:44:59Z</time>
      </trkpt>
      <trkpt lat="44.5935" lon="6.84789">
        <ele>1928.06</ele>
        <time>2015-03-24T12:45:00Z</time>
      </trkpt>
      <trkpt lat="44.5935" lon="6.84789">
        <ele>1928.06</ele>
        <time>2015-03-24T12:45:22Z</time>
      </trkpt>
      <trkpt lat="44.59349" lon="6.8479">
        <ele>1928.06</ele>
        <time>2015-03-24T12:45:47Z</time>
      </trkpt>
    </trkseg>
  </trk>
</gpx>